[[{"header":{"parameterUnit":"m.s-1","parameterCategory":1,"la1":30.6,"la2":28.766,"lo1":-90.7593,"lo2":-88.6598,"dy":0.0162,"dx":0.0183,"nx":116,"ny":114,"refTime":"2024-05-31T18:00:00:Z","depth":0,"parameterNumber":2,"parameterNumberName":"U-component_of_WINDS"},"data":[0.0,0.0,0.0,0.0,0.0,0.0,0.0,0.0,0.0,0.0,0.0,0.0,0.0,0.0,0.0,0.0,0.0,0.0,0.0,0.0,0.0,0.0,0.0,0.0,0.0,0.0,0.0,0.0,0.0,0.0,0.0,0.0,0.0,0.0,0.0,0.0,0.0,0.0,0.0,0.0,0.0,0.0,0.0,0.0,0.0,0.0,0.0,0.0,0.0,0.0,0.0,0.0,0.0,0.0,0.0,0.0,0.0,0.0,0.0,0.0,0.0,0.0,0.0,0.0,0.0,0.0,0.0,0.0,0.0,0.0,0.0,0.0,0.0,0.0,0.0,0.0,0.0,0.0,0.0,0.0,0.0,0.0,0.0,0.0,0.0,0.0,0.0,0.0,0.0,0.0,0.0,0.0,0.0,0.0,0.0,0.0,0.0,0.0,0.0,0.0,0.0,0.0,0.0,0.0,0.0,0.0,0.0,0.0,0.0,0.0,0.0,0.0,0.0,0.0,0.0,0.0,0.0,0.0,0.0,0.0,0.0,0.0,0.0,0.0,0.0,0.0,0.0,0.0,0.0,0.0,0.0,0.0,0.0,0.0,0.0,0.0,0.0,0.0,0.0,0.0,0.0,0.0,0.0,0.0,0.0,0.0,0.0,0.0,0.0,0.0,0.0,0.0,0.0,0.0,0.0,0.0,0.0,0.0,0.0,0.0,0.0,0.0,0.0,0.0,0.0,0.0,0.0,0.0,0.0,0.0,0.0,0.0,0.0,0.0,0.0,0.0,0.0,0.0,0.0,0.0,0.0,0.0,0.0,0.0,0.0,0.0,0.0,0.0,0.0,0.0,0.0,0.0,0.0,0.0,0.0,0.0,0.0,0.0,0.0,0.0,0.0,0.0,0.0,0.0,0.0,0.0,0.0,0.0,0.0,0.0,0.0,0.0,0.0,0.0,0.0,0.0,0.0,0.0,0.0,0.0,0.0,0.0,0.0,0.0,0.0,0.0,0.0,0.0,0.0,0.0,0.0,0.0,0.0,0.0,0.0,0.0,0.0,0.0,0.0,0.0,0.0,0.0,0.0,0.0,0.0,0.0,0.0,0.0,0.0,0.0,0.0,0.0,0.0,0.0,0.0,0.0,0.0,0.0,0.0,0.0,0.0,0.0,0.0,0.0,0.0,0.0,0.0,0.0,0.0,0.0,0.0,0.0,0.0,0.0,0.0,0.0,0.0,0.0,0.0,0.0,0.0,0.0,0.0,0.0,0.0,0.0,0.0,0.0,0.0,0.0,0.0,0.0,0.0,0.0,0.0,0.0,0.0,0.0,0.0,0.0,0.0,0.0,0.0,0.0,0.0,0.0,0.0,0.0,0.0,0.0,0.0,0.0,0.0,0.0,0.0,0.0,0.0,0.0,0.0,0.0,0.0,0.0,0.0,0.0,0.0,0.0,0.0,0.0,0.0,0.0,0.0,0.0,0.0,0.0,0.0,0.0,0.0,0.0,0.0,0.0,0.0,0.0,0.0,0.0,0.0,0.0,0.0,0.0,0.0,0.0,0.0,0.0,0.0,0.0,0.0,0.0,0.0,0.0,0.0,0.0,0.0,0.0,0.0,0.0,0.0,0.0,0.0,0.0,0.0,0.0,0.0,0.0,0.0,0.0,0.0,0.0,0.0,0.0,0.0,0.0,0.0,0.0,0.0,0.0,0.0,0.0,0.0,0.0,0.0,0.0,0.0,0.0,0.0,0.0,0.0,0.0,0.0,0.0,0.0,0.0,0.0,0.0,0.0,0.0,0.0,0.0,0.0,0.0,0.0,0.0,0.0,0.0,0.0,0.0,0.0,0.0,0.0,0.0,0.0,0.0,0.0,0.0,0.0,0.0,0.0,0.0,0.0,0.0,0.0,0.0,0.0,0.0,0.0,0.0,0.0,0.0,0.0,0.0,0.0,0.0,0.0,0.0,0.0,0.0,0.0,0.0,0.0,0.0,0.0,0.0,0.0,0.0,0.0,0.0,0.0,0.0,0.0,0.0,0.0,0.0,0.0,0.0,0.0,0.0,0.0,0.0,0.0,0.0,0.0,0.0,0.0,0.0,0.0,0.0,0.0,0.0,0.0,0.0,0.0,0.0,0.0,0.0,0.0,0.0,0.0,0.0,0.0,0.0,0.0,0.0,0.0,0.0,0.0,0.0,0.0,0.0,0.0,0.0,0.0,0.0,0.0,0.0,0.0,0.0,0.0,0.0,0.0,0.0,0.0,0.0,0.0,0.0,0.0,0.0,0.0,0.0,0.0,0.0,0.0,0.0,0.0,0.0,0.0,0.0,0.0,0.0,0.0,0.0,0.0,0.0,0.0,0.0,0.0,0.0,0.0,0.0,0.0,0.0,0.0,0.0,0.0,0.0,0.0,0.0,0.0,0.0,0.0,0.0,0.0,0.0,0.0,0.0,0.0,0.0,0.0,0.0,0.0,0.0,0.0,0.0,0.0,0.0,0.0,0.0,0.0,0.0,0.0,0.0,0.0,0.0,0.0,0.0,0.0,0.0,0.0,0.0,0.0,0.0,0.0,0.0,0.0,0.0,0.0,0.0,0.0,0.0,0.0,0.0,0.0,0.0,0.0,0.0,0.0,0.0,0.0,0.0,0.0,0.0,0.0,0.0,0.0,0.0,0.0,0.0,0.0,0.0,0.0,0.0,0.0,0.0,0.0,0.0,0.0,0.0,0.0,0.0,0.0,0.0,0.0,0.0,0.0,0.0,0.0,0.0,0.0,0.0,0.0,0.0,0.0,0.0,0.0,0.0,0.0,0.0,0.0,0.0,0.0,0.0,0.0,0.0,0.0,0.0,0.0,0.0,0.0,0.0,0.0,0.0,0.0,0.0,0.0,0.0,0.0,0.0,0.0,0.0,0.0,0.0,0.0,0.0,0.0,0.0,0.0,0.0,0.0,0.0,0.0,0.0,0.0,0.0,0.0,0.0,0.0,0.0,0.0,0.0,0.0,0.0,0.0,0.0,0.0,0.0,0.0,0.0,0.0,0.0,0.0,0.0,0.0,0.0,0.0,0.0,0.0,0.0,0.0,0.0,0.0,0.0,0.0,0.0,0.0,0.0,0.0,0.0,0.0,0.0,0.0,0.0,0.0,0.0,0.0,0.0,0.0,0.0,0.0,0.0,0.0,0.0,0.0,0.0,0.0,0.0,0.0,0.0,0.0,0.0,0.0,0.0,0.0,0.0,0.0,0.0,0.0,0.0,0.0,0.0,0.0,0.0,0.0,0.0,0.0,0.0,0.0,0.0,0.0,0.0,0.0,0.0,0.0,0.0,0.0,0.0,0.0,0.0,0.0,0.0,0.0,0.0,0.0,0.0,0.0,0.0,0.0,0.0,0.0,0.0,0.0,0.0,0.0,0.0,0.0,0.0,0.0,0.0,0.0,0.0,0.0,0.0,0.0,0.0,0.0,0.0,0.0,0.0,0.0,0.0,0.0,0.0,0.0,0.0,0.0,0.0,0.0,0.0,0.0,0.0,0.0,0.0,0.0,0.0,0.0,0.0,0.0,0.0,0.0,0.0,0.0,0.0,0.0,0.0,0.0,0.0,0.0,0.0,0.0,0.0,0.0,0.0,0.0,0.0,0.0,0.0,0.0,0.0,0.0,0.0,0.0,0.0,0.0,0.0,0.0,0.0,0.0,0.0,0.0,0.0,0.0,0.0,0.0,0.0,0.0,0.0,0.0,0.0,0.0,0.0,0.0,0.0,0.0,0.0,0.0,0.0,0.0,0.0,0.0,0.0,0.0,0.0,0.0,0.0,0.0,0.0,0.0,0.0,0.0,0.0,0.0,0.0,0.0,0.0,0.0,0.0,0.0,0.0,0.0,0.0,0.0,0.0,0.0,0.0,0.0,0.0,0.0,0.0,0.0,0.0,0.0,0.0,0.0,0.0,0.0,0.0,0.0,0.0,0.0,0.0,0.0,0.0,0.0,0.0,0.0,0.0,0.0,0.0,0.0,0.0,0.0,0.0,0.0,0.0,0.0,0.0,0.0,0.0,0.0,0.0,0.0,0.0,0.0,0.0,0.0,0.0,0.0,0.0,0.0,0.0,0.0,0.0,0.0,0.0,0.0,0.0,0.0,0.0,0.0,0.0,0.0,0.0,0.0,0.0,0.0,0.0,0.0,0.0,0.0,0.0,0.0,0.0,0.0,0.0,0.0,0.0,0.0,0.0,0.0,0.0,0.0,0.0,0.0,0.0,0.0,0.0,0.0,0.0,0.0,0.0,0.0,0.0,0.0,0.0,0.0,0.0,0.0,0.0,0.0,0.0,0.0,0.0,0.0,0.0,0.0,0.0,0.0,0.0,0.0,0.0,0.0,0.0,0.0,0.0,0.0,0.0,0.0,0.0,0.0,0.0,0.0,0.0,0.0,0.0,0.0,0.0,0.0,0.0,0.0,0.0,0.0,0.0,0.0,0.0,0.0,0.0,0.0,0.0,0.0,0.0,0.0,0.0,0.0,0.0,0.0,0.0,0.0,0.0,0.0,0.0,0.0,0.0,0.0,0.0,0.0,0.0,0.0,0.0,0.0,0.0,0.0,0.0,0.0,0.0,0.0,0.0,0.0,0.0,0.0,0.0,0.0,0.0,0.0,0.0,0.0,0.0,0.0,0.0,0.0,0.0,0.0,0.0,0.0,0.0,0.0,0.0,0.0,0.0,0.0,0.0,0.0,0.0,0.0,0.0,0.0,0.0,0.0,0.0,0.0,0.0,0.0,0.0,0.0,0.0,0.0,0.0,0.0,0.0,0.0,0.0,0.0,0.0,0.0,0.0,0.0,0.0,0.0,0.0,0.0,0.0,0.0,0.0,0.0,0.0,0.0,0.0,0.0,0.0,0.0,0.0,0.0,0.0,0.0,0.0,0.0,0.0,0.0,0.0,0.0,0.0,0.0,0.0,0.0,0.0,0.0,0.0,0.0,0.0,0.0,0.0,0.0,0.0,0.0,0.0,0.0,0.0,0.0,0.0,0.0,0.0,0.0,0.0,0.0,0.0,0.0,0.0,0.0,0.0,0.0,0.0,0.0,0.0,0.0,0.0,0.0,0.0,0.0,0.0,0.0,0.0,0.0,0.0,0.0,0.0,0.0,0.0,0.0,0.0,0.0,0.0,0.0,0.0,0.0,0.0,0.0,0.0,0.0,0.0,0.0,0.0,0.0,0.0,0.0,0.0,0.0,0.0,0.0,0.0,0.0,0.0,0.0,0.0,0.0,0.0,0.0,0.0,0.0,0.0,0.0,0.0,0.0,0.0,0.0,0.0,0.0,0.0,0.0,0.0,0.0,0.0,0.0,0.0,0.0,0.0,0.0,0.0,0.0,0.0,0.0,0.0,0.0,0.0,0.0,0.0,0.0,0.0,0.0,0.0,0.0,0.0,0.0,0.0,0.0,0.0,0.0,0.0,0.0,0.0,0.0,0.0,0.0,0.0,0.0,0.0,0.0,0.0,0.0,0.0,0.0,0.0,0.0,0.0,0.0,0.0,0.0,0.0,0.0,0.0,0.0,0.0,0.0,0.0,0.0,0.0,0.0,0.0,0.0,0.0,0.0,0.0,0.0,0.0,0.0,0.0,0.0,0.0,0.0,0.0,0.0,0.0,0.0,0.0,0.0,0.0,0.0,0.0,0.0,0.0,0.0,0.0,0.0,0.0,0.0,0.0,0.0,0.0,0.0,0.0,0.0,0.0,0.0,0.0,0.0,0.0,0.0,0.0,0.0,0.0,0.0,0.0,0.0,0.0,0.0,0.0,0.0,0.0,0.0,0.0,0.0,0.0,0.0,0.0,0.0,0.0,0.0,0.0,0.0,0.0,0.0,0.0,0.0,0.0,0.0,0.0,0.0,0.0,0.0,0.0,0.0,0.0,0.0,0.0,0.0,0.0,0.0,0.0,0.0,0.0,0.0,0.0,0.0,0.0,0.0,0.0,0.0,0.0,0.0,0.0,0.0,0.0,0.0,0.0,0.0,0.0,0.0,0.0,0.0,0.0,0.0,0.0,0.0,0.0,0.0,0.0,0.0,0.0,0.0,0.0,0.0,0.0,0.0,0.0,0.0,0.0,-3.3457,-3.1616,0.0,0.0,0.0,0.0,0.0,0.0,0.0,0.0,0.0,0.0,0.0,0.0,0.0,0.0,0.0,0.0,0.0,0.0,0.0,0.0,0.0,0.0,0.0,-1.3094,-1.4223,-1.4649,-1.4986,-1.5117,-1.4886,0.0,0.0,0.0,0.0,0.0,-1.535,-1.543,-1.5993,-1.6982,-1.7511,-1.8687,-2.0408,-2.0364,-1.9746,-1.8693,0.0,0.0,0.0,0.0,0.0,0.0,0.0,0.0,0.0,0.0,0.0,0.0,0.0,0.0,0.0,0.0,0.0,0.0,0.0,0.0,0.0,0.0,0.0,0.0,0.0,0.0,0.0,0.0,0.0,0.0,0.0,0.0,0.0,0.0,0.0,0.0,0.0,0.0,0.0,0.0,0.0,0.0,0.0,0.0,0.0,0.0,0.0,0.0,0.0,0.0,0.0,0.0,0.0,0.0,0.0,0.0,0.0,0.0,0.0,0.0,0.0,0.0,0.0,0.0,0.0,0.0,0.0,0.0,0.0,0.0,-3.8279,-3.6231,0.0,0.0,0.0,0.0,0.0,0.0,0.0,0.0,0.0,0.0,0.0,0.0,0.0,0.0,0.0,0.0,0.0,0.0,0.0,0.0,0.0,-1.1849,-1.2269,-1.4221,-1.5662,-1.6026,-1.6472,-1.6771,-1.6869,-1.598,0.0,0.0,0.0,-1.6099,-1.6922,-1.7304,-1.7961,-1.8959,-1.9706,-2.1329,-2.3781,-2.5357,-2.4568,-2.1812,-2.1311,0.0,0.0,0.0,0.0,0.0,0.0,0.0,0.0,0.0,0.0,0.0,0.0,0.0,0.0,0.0,0.0,0.0,0.0,0.0,0.0,0.0,0.0,0.0,0.0,0.0,0.0,0.0,0.0,0.0,0.0,0.0,0.0,0.0,0.0,0.0,0.0,0.0,0.0,0.0,0.0,0.0,0.0,0.0,0.0,0.0,0.0,0.0,0.0,0.0,0.0,0.0,0.0,0.0,0.0,0.0,0.0,0.0,0.0,0.0,0.0,0.0,0.0,0.0,-4.7632,-4.8078,-4.8457,-4.7516,-4.7204,-4.7244,-4.3765,-4.2147,-4.1813,-3.958,0.0,0.0,0.0,0.0,0.0,0.0,0.0,0.0,0.0,0.0,0.0,0.0,0.0,0.0,0.0,0.0,0.0,0.0,0.0,-1.2622,-1.4162,-1.5343,-1.6625,-1.8153,-1.7669,-1.7476,-1.7896,-1.7275,0.0,0.0,-1.6828,-1.7014,-1.7143,-1.8052,-1.8954,-1.9902,-2.3707,-2.6479,-2.8258,-2.9014,-2.9153,-2.856,-2.5679,-2.4289,-2.3954,0.0,0.0,0.0,0.0,0.0,0.0,0.0,0.0,0.0,0.0,0.0,0.0,0.0,0.0,0.0,0.0,0.0,0.0,0.0,0.0,0.0,0.0,0.0,0.0,0.0,0.0,0.0,0.0,0.0,0.0,0.0,0.0,0.0,0.0,0.0,0.0,0.0,0.0,0.0,0.0,0.0,-3.1078,-3.2727,0.0,0.0,0.0,0.0,0.0,0.0,0.0,0.0,0.0,0.0,0.0,0.0,0.0,-4.6965,-4.8472,-5.0875,-5.2103,-5.2249,-5.3126,-5.3568,-5.3592,-5.2818,-5.2165,-5.1587,-5.1009,0.0,-4.4925,-4.2658,0.0,0.0,0.0,0.0,0.0,0.0,0.0,0.0,0.0,0.0,0.0,0.0,0.0,0.0,0.0,0.0,0.0,0.0,0.0,0.0,0.0,-1.7231,-1.8878,-2.0164,-2.0293,-2.0175,-1.982,-1.9002,-1.8407,-1.8118,-1.796,-1.8334,-1.9374,-2.0375,-2.208,-2.4495,-2.7835,-2.9985,-3.1016,-3.1752,-3.2239,-3.2467,-3.0885,-2.8657,-2.6042,-2.4422,0.0,0.0,0.0,0.0,0.0,0.0,0.0,0.0,0.0,0.0,0.0,0.0,0.0,0.0,0.0,0.0,0.0,0.0,0.0,0.0,0.0,0.0,0.0,0.0,0.0,0.0,0.0,0.0,0.0,0.0,0.0,0.0,0.0,0.0,0.0,0.0,0.0,0.0,0.0,-3.0963,-3.3623,-3.528,-3.5698,-3.5506,0.0,0.0,0.0,0.0,0.0,0.0,0.0,0.0,0.0,-4.7251,-4.9841,-5.1756,-5.2952,-5.539,-5.6579,-5.6579,-5.7447,-5.7642,-5.7253,-5.693,-5.6352,-5.5672,-5.5672,-5.4281,-5.1699,-4.7699,-4.536,-4.4092,0.0,0.0,0.0,0.0,-4.1968,-4.2304,0.0,0.0,0.0,0.0,0.0,0.0,0.0,0.0,0.0,0.0,0.0,0.0,-1.7009,-1.912,-2.0902,-2.2077,-2.247,-2.2408,-2.1811,-2.0672,-1.9911,-1.9789,-1.9324,-1.9744,-2.1106,-2.2778,-2.5461,-2.9159,-3.1314,-3.2739,-3.3502,-3.4241,-3.4745,-3.5053,-3.4822,-3.259,-2.8802,-2.7334,-2.5531,-2.3498,0.0,0.0,0.0,0.0,0.0,0.0,0.0,0.0,0.0,0.0,0.0,0.0,0.0,0.0,0.0,0.0,0.0,0.0,0.0,0.0,0.0,0.0,0.0,0.0,0.0,0.0,0.0,0.0,0.0,0.0,0.0,0.0,0.0,0.0,0.0,0.0,0.0,-3.4287,-3.6545,-3.8265,-3.9811,-4.0065,0.0,0.0,0.0,0.0,0.0,0.0,-4.7278,-4.8416,-4.9975,-5.227,-5.4473,-5.6014,-5.6822,-5.8621,-5.9515,-5.9515,-6.0126,-6.0103,-5.9574,-5.9574,-5.9204,-5.8474,-5.8474,-5.8036,-5.6865,-5.2145,-4.9624,-4.8625,-4.7506,-4.6741,-4.636,-4.71,-4.7284,-4.738,0.0,0.0,0.0,0.0,0.0,0.0,0.0,0.0,0.0,0.0,0.0,-1.7047,-1.9455,-2.0728,-2.2115,-2.3821,-2.3235,-2.3031,-2.364,-2.2007,-2.1003,-2.0991,-2.0965,-2.1068,-2.1275,-2.4671,-2.8462,-3.266,-3.3628,-3.4786,-3.6118,-3.6659,-3.6833,-3.6596,-3.6302,-3.5319,-3.362,-3.0289,-2.8386,-2.7378,-2.3409,0.0,0.0,0.0,0.0,0.0,0.0,0.0,0.0,0.0,0.0,0.0,0.0,0.0,0.0,0.0,0.0,0.0,0.0,0.0,0.0,0.0,0.0,0.0,0.0,0.0,0.0,0.0,0.0,0.0,0.0,0.0,0.0,0.0,0.0,0.0,0.0,0.0,0.0,-4.28,-4.4875,0.0,0.0,0.0,0.0,-4.6672,-4.8196,-4.9867,-5.1573,-5.3188,-5.4803,-5.6455,-5.8084,-5.9331,-6.0162,-6.0272,-6.0346,-6.0346,-6.0382,-6.0358,-6.0334,-6.0334,-5.9953,-5.9222,-5.9222,-5.8813,-5.7889,-5.469,-5.2899,-5.1928,-4.9736,-4.889,-4.9006,-4.9739,-5.0434,-5.1128,0.0,0.0,0.0,0.0,0.0,-0.9237,-0.928,-1.042,-1.1557,-1.2331,-1.5531,-1.8274,-1.9747,-2.1862,-2.3855,-2.5543,-2.4928,-2.4456,-2.4618,-2.3023,-2.2264,-2.271,-2.229,-2.3406,-2.6255,-2.9181,-3.1929,-3.4577,-3.5753,-3.6737,-3.7575,-3.7624,-3.775,-3.7985,-3.7904,-3.7279,-3.6141,-3.3309,-3.1348,-2.9922,-2.7012,-2.4926,0.0,0.0,0.0,0.0,0.0,0.0,0.0,0.0,0.0,0.0,0.0,0.0,0.0,0.0,0.0,0.0,0.0,0.0,0.0,0.0,0.0,0.0,0.0,0.0,0.0,0.0,0.0,0.0,0.0,0.0,0.0,0.0,0.0,0.0,0.0,0.0,0.0,-4.6701,-4.9305,0.0,-4.8173,-4.8922,-4.9917,-5.0969,-5.205,-5.3628,-5.5757,-5.6895,-5.7997,-5.9098,-6.0199,-6.0896,-6.1153,-6.2218,-6.2768,-6.2768,-6.3319,-6.3576,-6.3576,-6.3576,-6.3119,-6.2365,-6.2365,-6.1606,-6.0267,-5.868,-5.7284,-5.6041,-5.5226,-5.4931,-5.5005,-5.5226,-5.551,-5.5695,0.0,0.0,0.0,0.0,-0.9218,-0.9174,-0.9218,-1.0653,-1.2076,-1.3103,-1.656,-1.9492,-2.0975,-2.3073,-2.4999,-2.6462,-2.5808,-2.5393,-2.5598,-2.3973,-2.3236,-2.3736,-2.3892,-2.597,-3.0275,-3.2314,-3.4468,-3.6776,-3.7669,-3.8309,-3.8727,-3.884,-3.8971,-3.9129,-3.9386,-3.9203,-3.8615,-3.6964,-3.4688,-3.2021,-2.9982,-2.8381,-2.6962,0.0,0.0,0.0,0.0,0.0,0.0,0.0,0.0,0.0,0.0,0.0,0.0,0.0,0.0,0.0,0.0,0.0,0.0,0.0,0.0,0.0,0.0,0.0,0.0,0.0,0.0,0.0,0.0,0.0,0.0,0.0,0.0,0.0,0.0,-4.4892,-4.8324,-4.9745,-5.2831,-5.4057,-5.2068,-5.313,-5.4223,-5.4974,-5.5904,-5.7116,-5.8731,-5.9575,-6.0382,-6.119,-6.1998,-6.2548,-6.2842,-6.3943,-6.4494,-6.4494,-6.5044,-6.5301,-6.5301,-6.5301,-6.5007,-6.4494,-6.4494,-6.3722,-6.2422,-6.1904,-6.0946,-5.9677,-5.8887,-5.8729,-5.8923,-5.8923,-5.8923,-5.8852,0.0,0.0,0.0,-0.929,-0.9073,-0.8969,-0.9107,-1.0599,-1.2597,-1.5172,-1.7879,-2.0582,-2.3174,-2.441,-2.5438,-2.6495,-2.5808,-2.5654,-2.6544,-2.4864,-2.3934,-2.4202,-2.5851,-2.8736,-3.2891,-3.3859,-3.5937,-3.9284,-3.9354,-3.9468,-3.9679,-4.045,-4.0507,-4.0005,-4.0744,-4.1095,-4.1095,-4.1095,-3.8343,-3.388,-3.2228,-3.1138,-3.0165,0.0,0.0,0.0,0.0,0.0,0.0,0.0,0.0,0.0,0.0,0.0,0.0,0.0,0.0,0.0,0.0,0.0,0.0,0.0,0.0,0.0,0.0,0.0,0.0,0.0,0.0,0.0,0.0,0.0,0.0,0.0,0.0,0.0,-4.435,-4.8172,-5.1164,-5.2,-5.5389,-5.708,-5.545,-5.7404,-5.8791,-5.8788,-5.9811,-6.048,-6.0456,-6.1227,-6.2034,-6.2842,-6.3686,-6.4494,-6.5301,-6.5338,-6.5338,-6.5338,-6.5375,-6.5375,-6.5375,-6.5375,-6.5375,-6.5338,-6.5338,-6.4897,-6.4127,-6.409,-6.3613,-6.262,-6.0326,-5.9838,-6.0493,-6.0493,-6.0456,-6.0456,0.0,0.0,-0.943,-0.9304,-0.9154,-0.9249,-0.9818,-1.093,-1.2586,-1.5083,-1.8006,-2.0556,-2.2413,-2.4169,-2.558,-2.6538,-2.5808,-2.5654,-2.6544,-2.498,-2.4865,-2.678,-2.9621,-3.2314,-3.4731,-3.6199,-3.7738,-3.9284,-4.0274,-4.0769,-4.0847,-4.1218,-4.1297,-4.1134,-4.1109,-4.1095,-4.1095,-4.1095,-4.0325,-3.8909,-3.6707,-3.4619,-3.2661,0.0,0.0,0.0,0.0,0.0,0.0,0.0,0.0,0.0,0.0,0.0,0.0,0.0,0.0,0.0,0.0,0.0,0.0,0.0,0.0,0.0,0.0,0.0,0.0,0.0,0.0,0.0,0.0,0.0,0.0,0.0,-4.5041,-4.7881,-4.7969,-5.1664,-5.4895,-5.6357,-5.8558,-5.9831,-5.9688,-6.0266,-6.0612,-6.0509,-6.1342,-6.1684,-6.1288,-6.2622,-6.3503,-6.3723,-6.453,-6.5081,-6.5301,-6.5888,-6.6182,-6.6182,-6.6769,-6.7026,-6.7026,-6.7026,-6.6733,-6.6182,-6.6182,-6.5705,-6.4934,-6.4347,-6.3943,-6.3624,-6.2347,-6.1958,-6.2144,-6.2144,-6.1777,-6.1263,0.0,-0.9508,-0.9359,-0.9233,-0.9099,-0.9269,-0.9994,-1.0959,-1.2732,-1.5944,-1.8218,-2.0531,-2.3067,-2.4385,-2.5493,-2.6495,-2.5808,-2.5654,-2.6544,-2.6048,-2.6664,-2.8852,-3.1852,-3.4237,-3.5962,-3.7661,-3.8969,-3.9785,-4.0961,-4.1456,-4.1302,-4.1996,-4.223,-4.2112,-4.2078,-4.2103,-4.2103,-4.2103,-4.1919,-4.1479,-4.0084,-3.8248,-3.6134,-3.3915,-3.2798,-3.2167,-3.0554,-3.0145,-3.0249,-2.9535,0.0,0.0,0.0,0.0,0.0,0.0,0.0,0.0,0.0,0.0,0.0,0.0,0.0,0.0,0.0,0.0,0.0,0.0,0.0,0.0,0.0,0.0,0.0,0.0,-4.9239,-5.2143,-5.2983,-5.5241,-5.728,-5.8627,-6.0319,-6.1452,-6.1682,-6.2113,-6.2357,-6.2315,-6.2674,-6.2918,-6.2946,-6.3689,-6.442,-6.5081,-6.5558,-6.5962,-6.6292,-6.6769,-6.699,-6.699,-6.7467,-6.7687,-6.7687,-6.7687,-6.743,-6.699,-6.699,-6.6549,-6.5778,-6.5301,-6.4714,0.0,0.0,0.0,0.0,0.0,-6.2511,-6.2108,0.0,-0.9363,-0.9233,-0.9114,-0.8978,-0.9179,-1.0007,-1.0858,-1.2933,-1.7159,-1.8544,-2.057,-2.427,-2.4743,-2.5278,-2.6364,-2.5731,-2.5692,-2.6697,-2.7659,-2.8967,-3.0731,-3.316,-3.5276,-3.6962,-3.8562,-3.9784,-4.0592,-4.1467,-4.1787,-4.1607,-4.2846,-4.3297,-4.3028,-4.3365,-4.3515,-4.3515,-4.3515,-4.3094,-4.2433,-4.2433,-4.1479,-3.9717,-3.6692,-3.5518,-3.5142,-3.313,-3.211,-3.1779,-3.1859,0.0,0.0,0.0,0.0,0.0,0.0,0.0,0.0,0.0,0.0,0.0,0.0,0.0,0.0,0.0,0.0,0.0,0.0,0.0,0.0,0.0,0.0,0.0,0.0,-5.3052,-5.6022,-5.8154,-5.8511,-5.8896,-5.9704,-6.1166,-6.2178,-6.237,-6.3302,-6.3925,-6.3955,-6.3936,-6.4171,-6.4786,0.0,0.0,0.0,0.0,-6.699,-6.7687,-6.7687,-6.7687,-6.7687,-6.7687,-6.7687,-6.7687,-6.7687,-6.7687,-6.7687,-6.7687,-6.7283,-6.6623,-6.6549,-6.5595,-6.4127,-6.3172,-6.278,-6.278,-6.278,-6.278,-6.278,0.0,-0.9294,-0.9124,-0.9099,-0.8978,-0.9349,-1.069,-1.1324,-1.3065,-1.7082,-1.8727,-2.0583,-2.3431,-2.4486,-2.513,-2.5523,-2.5385,-2.5962,-2.7544,-2.9083,-3.0968,-3.3353,-3.5238,-3.7046,-3.8738,-3.9568,-4.0339,-4.116,-4.203,-4.2736,-4.334,-4.4032,-4.4308,-4.4216,-4.3717,-4.3515,-4.3515,-4.3515,-4.3404,-4.3294,-4.3294,-4.2286,-4.0728,-3.946,-3.8542,-3.7875,-3.701,-3.6805,-3.6879,-3.6426,-3.5935,-3.5329,-3.4473,-3.2652,0.0,0.0,0.0,0.0,0.0,0.0,0.0,0.0,0.0,0.0,0.0,0.0,0.0,0.0,0.0,0.0,0.0,0.0,0.0,-5.225,-5.5544,-5.8139,-5.9133,-5.9858,-6.0627,-6.1512,-6.1908,-6.2627,-6.3974,-6.4334,-6.4559,-6.4825,-6.5487,-6.554,-6.4845,-6.6012,-6.6654,-6.6502,-6.7136,-6.754,-6.7687,-6.7687,-6.7687,-6.7687,0.0,0.0,-6.7687,-6.7687,-6.7687,-6.7687,-6.7687,-6.7614,-6.7393,-6.6769,-6.5925,-6.4934,-6.3392,-6.278,-6.278,-6.278,-6.278,-6.278,-0.9417,-0.9233,-0.9073,-0.8999,-0.9259,-0.981,-1.0927,-1.1624,-1.3362,-1.7112,-1.8169,-1.9715,-2.2574,-2.3329,-2.3742,-2.4024,-2.4808,-2.6192,-2.8357,-3.0083,-3.2192,-3.4737,-3.6289,-3.7729,-3.9031,-3.9594,-4.0247,-4.1059,-4.1927,-4.2762,-4.3573,-4.4078,-4.429,-4.4261,-4.3726,-4.3515,-4.3515,-4.3515,-4.3515,-4.3515,-4.3515,-4.302,-4.2213,-4.1405,-4.0598,-3.9806,-3.9143,-3.8826,-3.8639,-3.8083,-3.7557,-3.6988,-3.6433,-3.5069,-3.3297,0.0,0.0,0.0,0.0,0.0,0.0,0.0,0.0,0.0,0.0,0.0,0.0,0.0,0.0,-4.4273,0.0,0.0,-5.3646,-5.5644,-5.7701,-5.934,-6.0057,-6.0512,-6.1127,-6.1985,-6.2474,-6.3205,-6.4474,-6.4974,-6.5487,-6.6078,-6.6292,-6.6398,-6.642,-6.6956,-6.7258,-6.709,-6.7467,-6.7687,-6.7687,-6.7687,-6.7687,-6.7687,-6.7687,-6.7687,-6.7687,-6.7687,-6.7687,-6.7687,-6.7687,-6.7687,-6.7614,-6.6843,-6.6256,-6.5778,-6.4567,-6.3833,-6.3392,-6.2989,-6.278,-6.278,-0.929,-0.9144,-0.9052,-0.9095,-0.9571,-1.0225,-1.119,-1.1874,-1.3428,-1.6679,-1.7412,-1.8684,-2.1485,-2.2065,-2.2432,-2.2954,-2.4548,-2.6595,-2.9198,-3.0968,-3.316,-3.5885,-3.6944,-3.8004,-3.9033,-3.9509,-4.0152,-4.0954,-4.1807,-4.2648,-4.345,-4.3833,-4.3982,-4.3967,-4.3664,-4.3515,-4.3515,-4.3515,-4.3515,-4.3515,-4.3515,-4.3515,-4.3441,-4.2763,-4.1956,-4.1022,-4.0377,-3.9579,-3.8819,-3.8611,-3.8205,-3.775,-3.7598,-3.7007,-3.5875,-3.3533,-3.3024,0.0,0.0,0.0,0.0,0.0,0.0,0.0,0.0,0.0,-4.0742,-4.4346,-4.6768,-4.9259,-5.2542,-5.5019,-5.7014,-5.8449,-5.9398,-6.0104,-6.07,-6.0781,-6.1127,-6.1985,-6.282,-6.3705,-6.4743,-6.5474,-6.6244,-6.7051,-6.6892,-6.7207,-6.8111,-6.7846,-6.7746,-6.7852,-6.7731,-6.7687,-6.7687,-6.7687,-6.7687,-6.7687,-6.7687,-6.7687,-6.7687,-6.7687,-6.7687,-6.7687,-6.7687,-6.7687,-6.7677,-6.699,-6.6733,-6.6659,-6.5852,-6.5154,-6.4457,-6.3613,-6.3319,-6.3257,0.0,-0.8989,-0.8971,-0.9752,-0.9739,-1.0215,-1.1911,-1.2186,-1.2957,-1.5097,-1.6776,-1.8337,-1.9748,-2.1195,-2.2472,-2.3602,-2.5273,-2.7393,-3.0071,-3.1814,-3.4237,-3.7584,-3.7564,-3.827,-3.9929,-4.0127,-4.0649,-4.1493,-4.2319,-4.314,-4.3908,-4.3975,-4.3982,-4.3967,-4.3664,-4.3515,-4.3515,-4.3515,-4.3515,-4.3515,-4.3515,-4.3515,-4.3515,-4.3387,-4.2433,-4.1095,-4.0985,-3.9704,-3.8176,-3.9136,-3.9147,-3.8903,-3.994,-3.9631,-3.8534,-3.6859,-3.5251,-3.3994,-3.3724,-3.502,-3.6969,-3.9246,-3.9861,-4.1324,0.0,0.0,-4.6887,-5.0395,-5.1973,-5.3244,-5.5157,-5.7008,-5.8479,-5.9254,-6.0096,-6.07,-6.0793,-6.0781,-6.1127,-6.1985,-6.282,-6.3935,-6.559,-6.582,-6.6244,-6.7051,-6.7781,-6.8316,-6.8693,-6.8924,-6.8881,-6.8416,-6.7956,-6.7687,-6.7687,-6.7687,-6.7687,-6.7687,-6.7687,-6.7687,-6.7687,-6.7687,-6.7687,-6.7687,-6.7687,-6.7687,-6.7687,-6.7577,-6.7577,-6.7467,-6.6659,-6.6292,-6.6145,-6.5338,-6.5044,-6.4934,0.0,-0.8936,-0.9058,-1.025,-1.0272,-1.0554,-1.1858,-1.2423,-1.3235,-1.4889,-1.5752,-1.6733,-1.8068,-1.9307,-2.0846,-2.2931,-2.4219,-2.6185,-2.9283,-3.1188,-3.3659,-3.6941,-3.7205,-3.8071,-3.977,-3.953,-4.0,-4.1314,-4.164,-4.2453,-4.371,-4.371,-4.371,-4.3693,-4.3546,-4.3515,-4.3515,-4.3515,-4.3515,-4.3515,-4.3515,-4.3515,-4.3441,-4.2983,-4.1809,-4.0414,-4.0414,-3.9531,0.0,-3.8174,-3.8358,-3.8755,-3.9631,-3.962,-3.9068,-3.7874,-3.7693,-3.8207,-3.9669,-4.0239,-4.1046,-4.3585,-4.497,-4.6471,-4.9471,-5.0356,-5.127,-5.3777,-5.5341,-5.6628,-5.7877,-5.907,-5.9941,0.0,-6.055,-6.0781,-6.0781,-6.0781,-6.1127,-6.1985,-6.2397,-6.3281,-6.4974,-6.5128,-6.5897,-6.7705,-6.8205,-6.8733,-6.9501,-6.9675,-6.9393,-6.8535,-6.8284,-6.8033,-6.7714,-6.7687,-6.7687,-6.7687,-6.7687,-6.7687,-6.7687,-6.7687,-6.7687,-6.7687,-6.7687,-6.7687,-6.7687,-6.7687,-6.7687,-6.765,-6.732,-6.7173,-6.7026,-6.5778,-6.5301,-6.5264,0.0,-0.901,-0.9264,-1.0466,-1.0631,-1.0948,-1.2032,-1.2589,-1.3351,-1.4612,-1.495,-1.5706,-1.7275,-1.8236,-1.9693,-2.1905,-2.3062,-2.5012,-2.8196,-3.0122,-3.2613,-3.59,-3.6436,-3.7468,-3.9191,-3.9087,-3.9606,-4.0781,-4.1205,-4.2029,-4.3167,-4.3387,-4.3515,-4.3515,-4.3515,-4.3515,-4.3515,-4.3515,-4.3515,-4.3515,-4.3515,-4.3351,-4.3057,-4.2286,-4.0818,-3.9255,-3.9255,-3.8432,-3.7227,-3.6388,-3.6648,-3.7482,-3.8076,-3.8584,-3.8892,-3.8738,-3.9892,-4.1554,-4.3162,-4.3855,-4.4701,-4.7009,-4.9048,-5.0741,-5.1828,-5.3203,-5.4755,-5.6521,-5.7842,-5.8913,-5.9843,-6.0453,-6.0781,-6.0781,-6.1012,-6.105,-6.0819,-6.1012,-6.1281,-6.1678,-6.1755,-6.2332,-6.3782,-6.432,-6.5667,-6.8205,-6.8385,-6.8967,-7.0254,-7.0162,-6.9757,-6.8956,-6.866,-6.8333,-6.793,-6.7757,-6.7687,-6.7687,-6.7687,-6.7687,-6.7687,-6.7687,-6.7687,-6.7687,-6.7687,-6.7687,-6.7687,-6.7687,-6.7687,-6.7687,-6.7687,-6.7687,-6.754,-6.6402,-6.5962,-6.5925,0.0,0.0,-0.9611,-1.028,-1.0623,-1.1268,-1.274,-1.2746,-1.2914,-1.3813,-1.4615,-1.5863,-1.7848,-1.8772,-1.9686,-2.0756,-2.2353,-2.4474,-2.7176,-2.8901,-3.1433,-3.4966,-3.5399,-3.6407,-3.829,-3.9332,-3.99,-3.9937,-4.1515,-4.2286,-4.2359,-4.313,-4.3515,-4.3515,-4.3515,-4.3515,-4.3515,-4.3515,-4.3515,-4.3515,-4.3515,-4.302,-4.2249,-4.1425,-3.9643,-3.7566,-3.7566,-3.6024,-3.3913,-3.3628,-3.4071,-3.4927,-3.5461,-3.6738,0.0,-3.9938,-4.1662,-4.2854,-4.2077,-4.4269,-4.7201,-4.8894,-5.1202,-5.351,-5.5164,-5.6252,-5.7368,-5.9023,-5.9435,-5.9742,-6.06,-6.0793,-6.0781,-6.0781,-6.1524,-6.1793,-6.0935,-6.1524,-6.1755,-6.0935,-6.0819,-6.1166,0.0,-6.3666,-6.5667,-6.8205,-6.8385,-6.9115,-7.0808,-7.0362,-7.0095,-7.0061,-6.9042,-6.8511,-6.8487,-6.7956,-6.7687,-6.7687,-6.7687,-6.7687,-6.7687,-6.7687,-6.7687,-6.7687,-6.7687,-6.7687,-6.7687,-6.7687,-6.7687,-6.7687,-6.7687,-6.7687,-6.7687,-6.7677,-6.7614,-6.7504,0.0,0.0,0.0,-1.0931,-1.094,-1.1251,-1.2527,-1.2674,-1.2842,-1.359,-1.4645,0.0,0.0,0.0,0.0,0.0,-2.1801,-2.3288,-2.5327,-2.7767,-3.0122,-3.2269,-3.416,-3.5632,-3.6691,-3.7951,-3.8744,-3.9093,-4.0194,-4.0965,-4.1499,-4.1772,-4.1919,-4.1919,-4.247,-4.269,-4.269,-4.269,-4.302,-4.3404,-4.2323,-4.2066,-4.2139,-4.0818,-3.8469,-3.5701,0.0,-3.3471,-3.2351,-3.1937,-3.2446,-3.338,-3.4354,-3.543,-3.6892,-3.9669,-4.1739,-4.3508,-4.547,-4.724,-4.924,-5.2087,-5.3818,-5.5434,-5.7703,-5.8434,-5.8819,-5.9396,-5.9088,-5.8781,-5.9088,-5.9127,-5.9319,-5.9858,-6.1127,-6.1793,-6.0935,-6.2012,-6.2358,-6.0973,-6.132,0.0,0.0,0.0,0.0,-6.6551,-6.7244,-6.8282,-7.0014,-7.0441,-7.0478,-7.0112,-6.9413,-6.8847,-6.8511,-6.7982,-6.7687,-6.7687,-6.7687,-6.7687,-6.7687,-6.7687,-6.7687,-6.7687,-6.7687,-6.7687,-6.7687,-6.7687,-6.7687,-6.7687,-6.7687,-6.7687,-6.7687,-6.7687,-6.7687,-6.765,0.0,0.0,0.0,0.0,0.0,0.0,0.0,0.0,0.0,0.0,0.0,0.0,0.0,0.0,0.0,0.0,0.0,-2.2184,-2.3836,-2.5984,-2.8037,-3.0019,-3.1947,-3.3356,-3.4188,-3.5241,-3.6248,-3.7202,-3.8016,-3.8921,-3.9976,-4.0256,-4.0341,-4.0288,-4.1075,-4.1442,-4.1442,-4.1442,-4.1735,-4.2066,-4.0451,-3.9937,-3.9974,-3.8322,-3.5862,0.0,-3.1445,-3.0542,-3.0044,-2.9746,-3.0726,-3.2256,-3.3377,-3.5584,-3.8154,-4.0315,-4.2624,-4.5047,-4.7817,-4.9625,-5.1433,-5.4241,-5.6011,-5.7396,-5.8781,-5.9281,-5.9242,-5.8319,-5.7742,-5.728,-5.7011,-5.6703,-5.7049,-5.8781,-6.0242,-6.1166,-6.1243,-6.2435,-6.2897,-6.182,-6.1935,-6.2216,0.0,0.0,0.0,-6.5743,-6.6936,-6.8205,-6.9629,-7.0475,-7.0748,-7.0416,-6.9683,-6.9127,-6.8795,-6.8047,-6.7687,-6.7687,-6.7687,-6.7687,-6.7687,-6.7687,-6.7687,-6.7687,-6.7687,-6.7687,-6.7687,-6.7687,-6.7687,-6.7687,-6.7687,-6.7687,-6.7687,-6.7687,-6.7687,-6.7687,0.0,0.0,0.0,0.0,0.0,0.0,0.0,0.0,0.0,0.0,0.0,0.0,0.0,0.0,0.0,0.0,0.0,0.0,-2.2786,-2.3722,-2.5458,-2.8185,-2.8924,-2.9814,-3.1018,-3.1638,-3.2716,-3.4298,-3.513,-3.6232,-3.7649,-3.8417,-3.8645,-3.8469,-3.9276,-3.9643,-3.9643,-3.9643,-3.9643,-3.9496,-3.7896,-3.6795,-3.5936,-3.4284,-3.2192,-2.9879,-2.8338,-2.7501,-2.7151,-2.728,-2.9224,-3.179,-3.2884,-3.7161,-4.1846,-4.2,-4.4462,-4.7471,-4.9202,-5.1471,-5.3818,-5.5472,-5.7665,-5.9242,-5.8473,-5.8819,-5.8588,-5.6088,-5.5511,-5.5203,0.0,0.0,-5.428,-5.7588,-5.8973,-6.0204,-6.187,-6.2858,-6.3385,0.0,0.0,0.0,0.0,0.0,0.0,-6.582,0.0,-6.8744,-6.9667,-7.0475,-7.0898,-7.0898,-6.9847,-6.9313,-6.9313,-6.8235,-6.7687,-6.7687,-6.7687,-6.7687,-6.7687,-6.7687,-6.7687,-6.7687,-6.7687,-6.7687,-6.7687,-6.7687,-6.7687,-6.7687,-6.7687,-6.7687,-6.7687,-6.7687,-6.7687,-6.7687,0.0,0.0,0.0,0.0,0.0,0.0,0.0,0.0,0.0,0.0,0.0,0.0,0.0,0.0,0.0,0.0,0.0,0.0,-2.1098,-2.3218,-2.4754,-2.5477,-2.7713,-2.8995,-2.9103,-3.0638,-3.1522,-3.1749,-3.2545,-3.3354,-3.4166,-3.4389,-3.4683,-3.5092,-3.5885,-3.6252,-3.6252,-3.6252,-3.6252,-3.6105,-3.4491,-3.3733,-3.3426,-3.2412,-3.0503,-2.8374,-2.7934,-2.7076,-2.6417,-2.8466,0.0,0.0,0.0,-3.9585,-4.2308,-4.4846,-4.7548,-5.024,-5.2549,-5.4587,-5.6434,-5.8127,-5.8588,-5.855,-5.8357,-5.7434,-5.6126,-5.4241,-5.2856,-5.1712,-5.0856,-5.2087,-5.3703,-5.5203,-5.8819,0.0,-6.2062,-6.3897,0.0,-6.3474,0.0,-6.4743,-6.432,-6.5397,0.0,0.0,-6.7205,-6.809,-6.9629,-7.0475,-7.0898,-7.0898,-6.9847,-6.9313,-6.9313,-6.8235,-6.7687,-6.7687,-6.7687,-6.7687,-6.7687,-6.7687,-6.7687,-6.7687,-6.7687,-6.7687,-6.7687,-6.7687,-6.7687,-6.7687,-6.7687,-6.7687,-6.7687,-6.7687,-6.7687,-6.7687,0.0,0.0,0.0,0.0,0.0,0.0,0.0,0.0,0.0,0.0,0.0,0.0,0.0,0.0,0.0,0.0,0.0,0.0,0.0,-2.2209,-2.3487,-2.3958,-2.5853,-2.6919,-2.6903,-2.8327,-2.9224,-2.9513,-3.0333,-3.1004,-3.1512,-3.1512,-3.1484,-3.1511,-3.2457,-3.281,-3.268,-3.2837,-3.2876,0.0,0.0,-3.0503,-3.043,-2.9586,-2.8227,-2.6806,-2.7163,-2.8326,0.0,0.0,0.0,-3.8738,-4.0816,-4.2893,-4.5086,-4.7778,0.0,-5.2741,-5.4549,-5.6511,-5.8319,-5.9281,-5.9165,-5.8434,-5.6973,-5.5588,-5.3703,-5.051,-4.9125,-4.8211,-4.7317,-4.8971,-5.1202,-5.3549,0.0,0.0,-6.2358,-6.3858,-6.482,0.0,-6.5513,0.0,-6.6244,-6.7128,-6.7821,0.0,-6.8244,-6.8667,-6.9667,-7.0475,-7.0898,-7.0898,-7.0078,-6.9433,-6.8935,-6.8123,-6.7687,-6.7687,-6.7687,-6.7687,-6.7687,-6.7687,-6.7687,-6.7687,-6.7687,-6.7687,-6.7687,-6.7687,-6.7687,-6.7687,-6.7687,-6.7687,-6.7687,-6.7687,-6.7687,-6.7687,0.0,0.0,0.0,0.0,0.0,0.0,0.0,0.0,0.0,0.0,0.0,0.0,0.0,0.0,0.0,0.0,0.0,0.0,0.0,0.0,0.0,-2.3206,-2.4058,-2.4632,-2.4987,-2.5736,-2.6591,-2.7544,-2.8225,-2.8778,-2.9225,-2.9135,-2.8755,-2.8225,-2.9211,-2.9466,-2.9189,-2.9564,-2.9635,-2.9392,-2.8143,-2.7578,-2.7431,0.0,0.0,-2.5678,-2.6507,0.0,0.0,0.0,-3.9167,-4.1585,-4.3974,-4.6443,-4.8817,-5.0779,-5.301,-5.5011,-5.5934,-5.7896,-5.9627,-5.9511,-5.9319,-5.828,-5.4934,-5.3241,-5.101,-4.6249,-4.5171,-4.4825,-4.397,-4.5509,-4.8202,-5.2241,0.0,-5.8462,-6.2692,-6.3512,-6.4512,-6.6821,-6.6705,-6.6974,-6.8436,-6.8614,-6.8932,-6.9715,-6.9753,-6.9767,-6.986,-7.0514,-7.0909,-7.0944,-7.0522,-6.9835,-6.8833,-6.8354,-6.8051,-6.7834,-6.7941,-6.7867,-6.7714,-6.7757,-6.7794,-6.7687,-6.7687,-6.7687,-6.7687,-6.7687,-6.7687,-6.7687,-6.7687,-6.7687,-6.7687,-6.7687,-6.7687,-6.7687,0.0,0.0,0.0,0.0,0.0,0.0,0.0,0.0,0.0,0.0,-1.7116,-1.723,0.0,0.0,0.0,0.0,0.0,0.0,0.0,0.0,0.0,-2.3033,-2.3974,-2.4607,-2.4847,-2.5108,-2.5405,-2.5731,-2.5702,-2.6021,-2.6637,-2.6172,-2.6167,-2.6537,-2.6729,-2.6633,-2.6361,-2.6952,-2.6666,-2.5882,-2.6553,-2.6392,-2.5852,-2.6392,0.0,0.0,0.0,0.0,0.0,0.0,-4.0752,-4.4982,-4.6536,-4.8506,-5.0856,-5.3933,-5.5675,-5.6907,-5.8434,-5.9704,-6.0396,-5.9665,-5.8473,-5.6538,-5.3115,-5.0077,0.0,-4.4162,-4.297,-4.22,-4.1324,-4.4316,-4.7817,-5.0664,-5.4434,-5.8462,-6.2692,-6.4551,-6.5859,0.0,-6.8244,-6.9167,-6.9436,-6.9689,0.0,0.0,-7.002,-7.0218,-7.0654,-7.0821,-7.1026,-7.1298,-7.1214,-7.0971,-7.0547,-7.0462,-6.9839,-6.8678,-6.9147,-6.8777,-6.7714,-6.8173,-6.8123,-6.7687,-6.7687,0.0,-6.7687,-6.7687,-6.7687,-6.7687,-6.7687,-6.7687,-6.7687,-6.7687,-6.7687,-6.7687,0.0,0.0,0.0,0.0,0.0,0.0,0.0,-1.6272,-1.7276,-1.8763,-1.8721,-1.8574,-1.8574,-1.8232,-1.7992,0.0,0.0,0.0,0.0,0.0,0.0,0.0,-2.386,-2.4505,-2.4797,-2.5267,0.0,0.0,0.0,-2.5583,0.0,0.0,0.0,0.0,-2.5041,-2.4918,-2.4633,-2.5126,-2.5037,-2.4632,-2.557,-2.5742,0.0,0.0,0.0,0.0,0.0,0.0,0.0,0.0,-4.0065,-4.5337,-4.7759,-4.9805,-5.1818,-5.4357,-5.5983,-5.7291,-5.8511,-5.9819,-6.0589,-5.9704,-5.7896,-5.5286,-5.125,0.0,0.0,-4.151,-4.0312,-3.9815,-3.9861,-4.297,0.0,-4.8394,-5.1895,-5.5962,-6.0666,-6.2435,-6.4359,-6.7436,-6.8898,-6.986,-7.0283,-7.0202,-7.0112,-7.0112,-6.9829,-6.9901,-7.0463,-7.1185,-7.166,-7.1827,-7.1947,-7.1939,-7.1828,-7.1567,-7.1087,-7.0409,-7.0675,-7.0263,-6.9215,-6.9477,-6.9047,-6.8123,-6.8123,-6.7956,-6.7687,-6.7687,-6.7687,-6.7687,-6.7687,-6.7687,-6.7687,-6.7687,-6.7687,-6.7687,0.0,0.0,0.0,0.0,0.0,0.0,0.0,-1.7456,-1.856,-2.0048,-2.0251,-2.0048,-1.9464,-1.8572,-1.8121,0.0,0.0,0.0,0.0,0.0,0.0,0.0,0.0,-2.4393,-2.479,0.0,0.0,0.0,0.0,0.0,0.0,0.0,0.0,0.0,0.0,0.0,0.0,-2.3935,-2.4036,0.0,0.0,0.0,0.0,0.0,0.0,0.0,0.0,0.0,0.0,0.0,-3.8418,-4.3316,-4.6894,-4.9625,-5.1879,-5.3799,-5.5538,-5.7086,-5.815,-5.958,-6.055,-5.9511,-5.7319,-5.4276,-4.9756,-4.6129,0.0,-3.9344,-3.8082,-3.7924,-3.8854,-4.147,-4.4239,0.0,-4.9423,-5.3203,-5.8511,-6.0435,-6.3012,0.0,-6.9206,0.0,-7.0821,-7.0314,0.0,-6.9918,-6.9433,-6.9508,-7.0345,-7.1413,-7.2237,-7.2706,-7.2946,-7.3076,-7.3125,-7.2718,-7.2346,-7.2033,-7.2195,-7.1779,-7.0863,-7.0965,-7.0341,-6.9206,-6.9206,-6.8889,-6.8368,-6.8247,-6.8068,-6.7944,-6.776,-6.7687,-6.7687,-6.7687,-6.7687,-6.7687,0.0,0.0,0.0,0.0,0.0,0.0,0.0,-1.7907,-1.935,-2.0886,-2.1089,-2.1055,-2.0987,-1.9667,-1.9176,0.0,0.0,0.0,0.0,0.0,0.0,0.0,0.0,0.0,0.0,0.0,0.0,0.0,0.0,0.0,0.0,0.0,0.0,0.0,0.0,0.0,0.0,0.0,0.0,0.0,0.0,0.0,0.0,0.0,0.0,0.0,0.0,0.0,0.0,0.0,0.0,-3.8115,-4.2354,-4.6722,-5.0732,-5.3162,0.0,0.0,-5.8394,-5.9805,-6.0435,-5.8819,-5.6472,-5.3472,-4.9173,0.0,-4.0978,-3.8562,-3.7201,-3.6791,-3.7901,-3.9631,-4.2162,-4.624,0.0,-5.1702,-5.7588,-6.1089,-6.4089,-6.6898,0.0,0.0,-7.0898,-6.9992,-6.9373,-6.9373,-6.8869,-6.9359,-7.1204,-7.1405,-7.2368,-7.4423,-7.4471,-7.4635,-7.488,-7.4826,-7.4162,-7.2881,-7.3441,-7.3023,-7.1735,-7.2186,-7.2073,-7.1518,-7.1518,-7.1171,0.0,-6.9916,-6.9284,-6.8715,-6.7981,-6.7687,-6.7687,-6.7687,-6.7687,-6.7687,0.0,0.0,0.0,0.0,0.0,0.0,-1.7151,-1.8234,-1.9621,-2.1583,-2.1495,-2.136,-2.182,-2.0919,-2.0347,-2.0477,0.0,0.0,0.0,0.0,0.0,0.0,0.0,0.0,0.0,0.0,0.0,0.0,0.0,0.0,0.0,0.0,0.0,0.0,0.0,0.0,0.0,0.0,0.0,0.0,0.0,0.0,0.0,0.0,0.0,0.0,0.0,0.0,0.0,0.0,0.0,0.0,-3.8854,-4.1982,0.0,0.0,-5.2387,-5.4638,-5.6801,-5.8681,-5.9742,-5.8588,-5.6011,-5.263,-4.8503,-4.3954,-4.0024,-3.7899,-3.6452,-3.6077,-3.7701,-3.8969,-4.0862,-4.4085,-4.5586,-4.8048,-5.301,-5.6203,-5.9704,-6.4282,-6.7051,0.0,0.0,0.0,-6.9021,-6.8368,-6.8592,-6.9434,-7.1062,-7.1769,-7.2775,-7.4167,-7.505,-7.5518,-7.5632,-7.5616,-7.5343,-7.4792,-7.5037,-7.4615,-7.3548,-7.3789,-7.328,-7.2263,-7.195,-7.1681,0.0,-6.9868,-6.9318,-6.9346,-6.8168,-6.7687,-6.7687,-6.7687,-6.7687,-6.7687,0.0,0.0,0.0,0.0,0.0,-1.6035,-1.7287,-1.8471,-1.9891,-2.1718,-2.1779,-2.186,-2.2344,-2.2055,-2.1722,-2.1463,-2.1639,0.0,0.0,0.0,0.0,0.0,0.0,0.0,0.0,0.0,0.0,-2.6518,0.0,0.0,0.0,0.0,0.0,0.0,0.0,0.0,0.0,0.0,0.0,0.0,0.0,0.0,0.0,0.0,0.0,0.0,0.0,0.0,0.0,0.0,0.0,0.0,0.0,0.0,0.0,0.0,-4.9643,-5.2361,-5.4943,-5.7073,-5.8383,-5.7539,-5.4898,-5.1479,-4.7656,-4.3243,-3.9419,-3.7623,-3.6084,-3.5687,-3.7624,-3.8507,-3.9815,-4.2624,-4.3778,-4.5828,-5.0246,-5.3075,-5.6544,-6.1592,0.0,-6.6736,-6.8624,-6.894,-6.8794,-6.8125,-6.8568,-6.952,-7.0979,-7.1971,-7.3042,-7.4214,-7.5228,-7.5818,-7.6015,-7.6015,-7.6015,-7.6015,-7.6015,-7.5668,-7.5091,-7.4896,-7.4373,-7.3564,-7.2848,-7.2541,0.0,-7.0363,-6.9662,-6.9743,-6.8268,-6.7687,-6.7687,-6.7687,-6.7687,-6.7687,0.0,0.0,0.0,0.0,0.0,0.0,-1.6597,-1.8572,-2.0285,-2.1089,-2.2073,-2.2695,-2.2695,-2.2996,-2.3317,-2.3653,-2.2718,0.0,0.0,0.0,0.0,0.0,0.0,0.0,0.0,0.0,-2.6107,-2.6282,-2.6888,-2.7098,0.0,0.0,0.0,0.0,0.0,0.0,0.0,0.0,0.0,0.0,0.0,0.0,0.0,0.0,0.0,0.0,0.0,0.0,0.0,0.0,0.0,0.0,0.0,0.0,0.0,0.0,-4.7201,-5.0269,-5.3046,-5.5107,-5.6202,-5.5338,-5.2948,-4.9948,-4.6588,-4.2573,-3.9206,-3.7795,-3.6221,-3.5687,-3.7624,-3.8007,-3.9123,-4.2547,-4.3778,-4.5947,-5.0631,-5.3505,-5.6216,0.0,0.0,-6.3988,-6.5577,-6.7423,-6.8618,-6.8879,-6.8898,0.0,-7.1211,-7.1843,-7.3079,-7.5034,-7.5109,-7.5413,-7.5976,-7.6015,-7.6015,-7.6015,-7.6015,-7.6015,-7.5962,-7.5357,-7.5391,-7.5894,-7.4769,-7.4255,0.0,-7.1892,-7.0631,-6.9954,-6.8311,-6.7687,-6.7687,-6.7687,-6.7687,-6.7687,0.0,0.0,0.0,0.0,0.0,0.0,0.0,-1.7868,-1.9235,-2.0482,-2.0651,-2.1065,-2.2119,-2.2318,-2.2725,-2.3617,-2.3394,0.0,0.0,0.0,0.0,0.0,0.0,0.0,0.0,0.0,-2.6867,-2.8213,-2.8831,-2.9328,-2.969,-2.8884,-2.7985,0.0,0.0,0.0,0.0,0.0,0.0,0.0,0.0,0.0,0.0,0.0,0.0,0.0,0.0,0.0,0.0,0.0,0.0,0.0,0.0,0.0,0.0,-3.8746,-4.2726,0.0,-4.8996,-5.086,-5.194,-5.1061,-4.9556,-4.7548,-4.4776,-4.1805,-3.9206,-3.7795,-3.664,-3.6345,-3.774,-3.8469,-4.0282,-4.4541,-4.5415,0.0,-5.0312,0.0,0.0,-5.905,-6.3796,-6.7036,0.0,0.0,-6.822,-6.8825,-6.9412,-7.0183,-7.1219,-7.1987,-7.3055,-7.4489,-7.4924,-7.5396,-7.5976,-7.6015,-7.6015,-7.6015,-7.6015,-7.6015,-7.5962,-7.5396,-7.518,-7.5306,-7.4168,-7.3911,-7.4114,-7.1478,-7.0513,-7.0509,-6.8489,-6.7687,-6.7687,-6.7687,-6.7687,-6.7596,0.0,0.0,0.0,0.0,0.0,0.0,0.0,-1.76,-1.8931,-1.9878,-2.016,-2.08,-2.2035,-2.2321,-2.2792,-2.3785,-2.3878,0.0,0.0,0.0,0.0,0.0,0.0,0.0,0.0,-2.6059,-2.7599,-2.9583,-3.0417,-3.121,-3.1873,-3.1154,-2.9906,-2.8227,-2.775,0.0,0.0,0.0,0.0,0.0,0.0,0.0,0.0,0.0,0.0,0.0,0.0,0.0,0.0,0.0,0.0,0.0,0.0,0.0,0.0,0.0,-3.8438,-4.2575,-4.5559,-4.7494,-4.8583,-4.806,-4.7011,-4.5442,-4.2989,-4.0794,-3.886,-3.7357,-3.6748,-3.6717,-3.7647,-3.8498,-4.0318,-4.4037,-4.4673,-4.6012,0.0,0.0,0.0,-5.9246,0.0,0.0,0.0,-6.7546,-6.8017,-6.8862,-6.9633,-7.044,-7.1284,-7.2055,-7.2943,-7.3934,-7.4489,-7.5183,-7.5976,-7.6015,-7.6015,-7.6015,-7.6015,-7.6015,-7.5962,-7.5165,-7.4924,-7.5036,-7.3637,-7.3205,0.0,-7.1067,-7.0126,-7.005,-6.8352,-6.7687,-6.7687,-6.7687,-6.7488,-6.7146,0.0,0.0,0.0,0.0,0.0,0.0,0.0,-1.7724,-1.9241,-1.9241,-2.0403,-2.1545,-2.2375,-2.2783,-2.3299,-2.4116,0.0,0.0,0.0,0.0,0.0,0.0,0.0,0.0,0.0,-2.6508,-2.8272,-3.0385,-3.1713,-3.2769,-3.3601,-3.3398,-3.1872,-2.929,-2.9219,0.0,0.0,0.0,0.0,0.0,0.0,0.0,0.0,0.0,0.0,0.0,0.0,0.0,0.0,0.0,0.0,0.0,0.0,0.0,0.0,0.0,0.0,0.0,0.0,-4.4642,-4.5658,-4.5632,-4.4801,-4.335,-4.1104,-3.9548,0.0,-3.6631,-3.6519,-3.6895,-3.7544,-3.8347,-3.9696,-4.2108,-4.2549,0.0,0.0,-5.1305,0.0,0.0,-6.2879,0.0,-6.5411,-6.6806,-6.8017,-6.8862,-6.9596,-7.0367,-7.1146,-7.1945,-7.2614,-7.3205,-7.3793,-7.4694,-7.5932,-7.5962,-7.6015,-7.6015,-7.6015,-7.5962,-7.5902,-7.4789,-7.4568,0.0,-7.3138,-7.23,-7.2025,-7.0595,-6.9559,-6.8825,-6.8017,-6.7687,-6.7687,-6.7687,-6.7146,-6.6404,0.0,0.0,0.0,0.0,0.0,0.0,0.0,0.0,0.0,0.0,-1.9885,-2.1013,-2.1862,-2.2575,-2.3299,0.0,0.0,0.0,0.0,0.0,0.0,0.0,0.0,0.0,0.0,-2.688,-2.8629,-3.0385,-3.262,-3.4389,-3.5625,-3.535,-3.4122,-3.2117,-3.1236,-2.9953,0.0,0.0,0.0,0.0,0.0,0.0,0.0,0.0,0.0,0.0,-3.0535,-3.1738,0.0,0.0,0.0,0.0,0.0,0.0,0.0,0.0,-3.3314,-3.5199,-3.7046,0.0,-4.0317,-3.9483,-3.9479,-3.9482,0.0,-3.8004,-3.7564,-3.6773,-3.6664,-3.7233,-3.9023,-3.9565,-4.1173,-4.5604,-4.6824,-4.8461,-5.1959,-5.6316,0.0,-6.3759,-6.5742,-6.6916,-6.71,-6.7467,-6.8017,-6.8862,-6.9082,-6.9522,-7.033,-7.055,-7.0944,-7.1529,-7.2124,-7.3323,-7.5306,-7.5787,-7.6015,-7.6015,-7.6015,-7.5772,-7.5289,-7.4609,-7.4139,-7.3733,-7.2234,-7.1553,-7.1388,-6.9825,-6.9082,-6.8825,-6.8017,-6.7687,-6.7687,-6.7687,-6.7146,-6.6313,0.0,0.0,0.0,0.0,0.0,0.0,0.0,0.0,0.0,0.0,0.0,0.0,0.0,0.0,0.0,0.0,0.0,0.0,0.0,0.0,0.0,0.0,0.0,0.0,-2.5176,-2.6824,-2.8746,-3.0868,-3.3398,-3.5407,-3.6896,-3.6768,-3.5395,-3.3011,-3.1124,-2.9843,0.0,0.0,0.0,0.0,0.0,0.0,0.0,0.0,0.0,0.0,-3.0286,-3.1231,0.0,-3.2275,-3.343,-3.4584,0.0,0.0,0.0,0.0,-3.2045,-3.3218,-3.3935,-3.6503,-3.8959,-3.8727,-3.8976,-3.9147,-3.8491,-3.7704,-3.6963,-3.6286,0.0,-3.75,-3.8919,-4.0015,-4.1942,-4.5675,-4.6942,0.0,0.0,0.0,-6.2952,-6.5044,-6.6733,-6.7687,0.0,-6.7687,-6.7871,-6.8311,-6.8678,-6.9082,-6.9522,-6.9889,-7.0266,-7.0591,-7.1366,-7.2505,-7.3964,-7.4934,-7.5399,-7.5399,-7.5526,-7.5238,-7.4519,-7.3689,-7.295,-7.2249,-7.1212,-7.055,-7.0146,-6.9265,-6.8678,-6.8311,-6.7871,-6.7687,-6.766,-6.7258,-6.6517,-6.5617,0.0,0.0,0.0,0.0,0.0,0.0,0.0,0.0,0.0,0.0,0.0,0.0,0.0,0.0,0.0,0.0,0.0,0.0,0.0,0.0,0.0,0.0,0.0,-2.5015,-2.5441,-2.6842,-2.8841,-3.1436,-3.4068,-3.6162,-3.7683,-3.8029,-3.6406,-3.3161,-3.0533,-2.9244,0.0,0.0,0.0,0.0,0.0,0.0,0.0,0.0,0.0,0.0,0.0,0.0,0.0,-3.2314,-3.3276,-3.4013,-3.2852,0.0,0.0,0.0,0.0,0.0,-3.2684,-3.596,-3.9238,-3.9746,-4.0108,-4.0085,-3.92,0.0,0.0,0.0,0.0,0.0,0.0,-4.056,0.0,0.0,0.0,0.0,-5.5317,-6.0089,-6.3576,-6.5118,-6.6733,0.0,-6.7687,-6.7687,-6.7687,-6.7687,-6.8311,-6.8715,-6.8715,-6.9376,-6.9706,-6.9706,-7.0808,-7.1612,-7.2104,-7.3714,-7.4514,-7.45,-7.4631,-7.431,-7.3533,-7.2507,-7.1616,-7.0834,-7.02,0.0,-6.8898,-6.8788,-6.8311,-6.7687,-6.7687,-6.7687,-6.7569,-6.67,-6.5811,-6.4866,0.0,0.0,0.0,0.0,0.0,0.0,0.0,0.0,0.0,0.0,0.0,0.0,0.0,0.0,0.0,0.0,0.0,0.0,0.0,0.0,0.0,0.0,-2.4804,-2.5614,-2.7435,-2.7704,-2.9087,-3.1667,-3.4889,-3.6964,-3.7963,-3.9841,-3.8367,-3.4023,-3.1936,-3.0283,-2.8987,0.0,0.0,0.0,0.0,0.0,0.0,0.0,0.0,0.0,0.0,0.0,0.0,-3.1,-3.2314,-3.3821,-3.15,0.0,0.0,0.0,0.0,0.0,-3.4236,-3.6601,-3.8009,-3.7143,-3.8238,-3.92,-3.8035,-3.7562,0.0,0.0,0.0,0.0,0.0,-4.259,-4.4581,0.0,0.0,-5.517,0.0,0.0,-6.4237,-6.5191,0.0,-6.7687,-6.7687,-6.7687,-6.7687,-6.7687,-6.7797,-6.7871,-6.7871,-6.7981,-6.8054,-6.8054,-6.9125,-6.973,-6.9811,-7.2384,-7.3668,-7.3692,-7.3215,-7.268,-7.2116,-7.1476,-7.0819,-7.0202,0.0,-6.9009,-6.8862,-6.8164,-6.7797,-6.7687,-6.7687,-6.7687,-6.7569,-6.67,-6.5811,-6.4766,0.0,0.0,0.0,0.0,0.0,0.0,0.0,0.0,0.0,0.0,0.0,0.0,0.0,0.0,0.0,0.0,0.0,0.0,0.0,0.0,0.0,-2.6277,-2.6199,-2.6657,-2.7699,-2.9202,-3.1162,-3.359,-3.6625,-3.8777,-4.0038,-3.9541,-3.7357,-3.3799,-3.1831,-3.0238,-2.8987,-2.8987,0.0,0.0,0.0,0.0,0.0,0.0,0.0,0.0,0.0,0.0,0.0,0.0,-3.216,-3.3237,-3.1621,0.0,0.0,0.0,0.0,0.0,-3.3423,-3.5661,-3.7409,-3.7824,-3.95,-4.1007,-4.0872,-4.0013,-3.9195,0.0,0.0,0.0,0.0,0.0,-4.7769,-5.2192,0.0,-5.7593,-5.9575,-6.1924,-6.387,0.0,0.0,-6.721,-6.765,-6.7687,-6.7687,-6.7687,-6.7687,-6.7687,-6.7687,-6.7687,-6.7687,-6.7687,-6.875,-6.9313,-6.9313,-7.115,-7.2322,-7.2769,-7.2365,-7.1803,-7.1124,-7.0251,-6.9479,-6.8788,0.0,-6.8238,-6.8201,-6.7834,-6.7687,-6.7687,-6.7687,-6.7433,-6.6852,-6.5462,-6.4393,-6.3464,0.0,0.0,0.0,0.0,0.0,0.0,0.0,0.0,0.0,0.0,0.0,0.0,0.0,0.0,0.0,0.0,0.0,0.0,0.0,0.0,-2.5284,-2.7068,-2.7365,-2.8002,-2.911,-3.0989,-3.3262,-3.5852,-3.8347,-4.0431,-4.2038,-3.9162,-3.6415,-3.378,-3.1764,-3.0251,-2.9152,-2.9123,-2.9089,0.0,0.0,0.0,0.0,0.0,0.0,0.0,0.0,0.0,0.0,0.0,0.0,0.0,0.0,0.0,0.0,-3.1346,-3.0846,-3.1154,-3.3237,-3.5199,-3.7185,-3.9253,-4.0978,-4.2519,-4.3627,-4.2624,-4.16,0.0,0.0,0.0,0.0,-4.7462,0.0,-5.5828,-5.7767,-5.9187,-6.0517,-6.2071,-6.3576,-6.4861,-6.5888,-6.6733,-6.7357,-6.7577,-6.7687,-6.7687,-6.7687,-6.7687,-6.7687,-6.7687,-6.7687,-6.7687,-6.875,-6.9313,-6.9313,-7.0346,-7.1245,-7.1898,-7.1445,-7.0918,-7.0273,-6.9149,-6.8274,-6.7687,-6.7687,-6.7687,-6.7687,-6.7687,-6.7687,-6.7687,-6.7488,-6.6729,-6.559,-6.4218,-6.3162,-6.2381,0.0,0.0,0.0,0.0,0.0,0.0,0.0,0.0,0.0,0.0,0.0,0.0,0.0,0.0,0.0,0.0,0.0,0.0,0.0,0.0,-2.4903,-2.5807,-2.7233,-2.9842,-3.3641,-3.3122,-3.4462,-3.78,-3.9546,-4.1285,-4.2923,-3.986,-3.7194,-3.4895,-3.2678,-3.0961,-2.9653,-2.9464,-2.9353,-2.9332,0.0,0.0,0.0,0.0,0.0,0.0,0.0,0.0,0.0,0.0,0.0,0.0,0.0,0.0,-3.2891,-3.2776,-3.2199,-3.2314,-3.5538,-3.6538,-3.7417,-4.0396,-4.1284,-4.1916,-4.397,-4.4097,0.0,-4.6248,0.0,0.0,0.0,-5.1506,-5.4702,-5.6944,-5.9301,-6.1041,-6.147,0.0,-6.4053,-6.4163,-6.5558,-6.6512,-6.6586,-6.7247,-6.7687,-6.7687,-6.7687,-6.7687,-6.7687,-6.7687,-6.7687,-6.7687,-6.875,-6.9313,-6.9313,-7.0346,-7.0937,-7.0962,-6.9945,-6.9463,-6.9347,-6.8297,-6.7724,-6.7687,-6.7687,-6.7687,-6.7687,-6.7687,-6.7687,-6.7633,-6.6823,-6.5429,-6.3899,-6.3755,-6.3162,-6.2381,0.0,0.0,0.0,0.0,0.0,0.0,0.0,0.0,0.0,0.0,0.0,0.0,0.0,0.0,0.0,0.0,0.0,0.0,0.0,0.0,-2.5157,-2.6618,-2.766,-2.969,-3.2934,-3.4863,-3.7309,-4.0354,-4.2047,-4.2393,-4.1431,-3.9785,-3.7309,-3.4279,-3.3416,-3.2117,-3.0487,-3.0233,-3.016,-3.0064,-2.9307,0.0,0.0,0.0,0.0,0.0,0.0,0.0,0.0,0.0,-3.1188,-3.1863,-3.1021,-3.1987,-3.3226,-3.2026,-3.1554,-3.1962,-3.4251,-3.5886,-3.7528,-3.989,-4.1749,0.0,0.0,-4.6607,-4.7316,-4.9667,-5.0712,0.0,0.0,0.0,-5.5697,-5.8507,-5.99,-6.1047,-6.2169,-6.2879,-6.3503,-6.4016,-6.464,-6.5411,-6.6402,-6.6769,-6.7136,-6.765,-6.7687,-6.7687,-6.7687,-6.7687,-6.7687,-6.7687,-6.875,-6.9313,-6.9313,-7.0044,-7.0593,-7.0898,-7.0145,-6.9626,-6.9272,-6.8521,-6.8033,-6.7687,-6.7687,-6.7687,-6.7687,-6.7687,-6.7687,-6.7542,-6.6089,-6.4767,-6.3647,-6.3087,-6.2697,-6.2381,0.0,0.0,0.0,0.0,0.0,0.0,0.0,0.0,0.0,0.0,0.0,0.0,0.0,0.0,0.0,0.0,0.0,0.0,-2.4826,-2.467,-2.5206,-2.6626,-2.7336,-2.8998,-3.1723,-3.4927,-3.7966,-4.0746,-4.2495,-4.2364,-4.0477,-3.9039,-3.7057,-3.468,-3.3815,-3.2904,-3.1969,-3.1092,-3.0712,-3.0645,-2.9758,-2.9244,0.0,0.0,0.0,0.0,0.0,0.0,0.0,0.0,-3.0511,-3.1336,-3.0876,-3.1938,-3.3083,-3.2005,-3.2172,-3.2978,-3.4165,-3.6127,-3.829,-4.0027,0.0,0.0,-4.8007,-4.8901,-4.9921,-5.2894,-5.3511,-5.3813,-5.4999,0.0,0.0,0.0,-6.0322,-6.1148,-6.261,-6.278,-6.3025,-6.3613,-6.3906,-6.453,-6.5632,-6.5962,-6.6366,-6.688,-6.7173,-6.732,-6.732,-6.754,-6.7687,-6.7687,-6.8567,-6.9042,-6.9042,-6.9757,-7.0298,-7.0637,-7.0463,-7.0078,-6.953,-6.8803,-6.8308,-6.793,-6.7757,-6.7687,-6.7687,-6.7687,-6.7369,-6.6722,-6.5486,-6.4288,-6.3237,-6.262,-6.2381,-6.2381,0.0,0.0,0.0,0.0,0.0,0.0,0.0,0.0,0.0,0.0,0.0,0.0,0.0,0.0,0.0,0.0,0.0,0.0,-2.4518,-2.4685,-2.4982,-2.5368,-2.6172,-2.7859,-3.0604,-3.3082,-3.5698,-3.8488,-4.0373,-4.0987,-4.0392,-3.7682,-3.6495,-3.657,-3.383,-3.324,-3.4064,-3.1922,-3.1004,-3.0959,-3.0428,-2.9721,0.0,0.0,0.0,0.0,0.0,0.0,0.0,0.0,-2.9551,-3.0085,-3.2264,-3.2643,-3.2383,-3.3147,-3.4542,-3.5808,-3.5889,-3.7664,-3.9802,-4.1152,0.0,0.0,-4.9983,-5.0839,-5.1977,-5.5978,-5.6161,-5.5881,-5.6735,-5.6573,0.0,-5.9487,-6.0587,-6.1471,-6.2659,-6.278,-6.278,-6.278,-6.3576,-6.409,-6.409,-6.4824,-6.5301,-6.5301,-6.6035,-6.6476,-6.6476,-6.7247,-6.7687,-6.7687,-6.821,-6.8511,-6.8511,-6.9569,-7.0095,-7.0112,-7.0637,-7.0622,-7.0078,-6.8999,-6.8511,-6.8487,-6.793,-6.7687,-6.7687,-6.7687,-6.6634,-6.4999,-6.4999,-6.3936,-6.2381,-6.2381,-6.2381,-6.2381,0.0,0.0,0.0,0.0,0.0,0.0,0.0,0.0,0.0,0.0,0.0,0.0,0.0,0.0,0.0,0.0,0.0,0.0,-2.4723,-2.4485,-2.4423,-2.453,-2.5878,-2.6996,-2.7811,-3.0729,-3.4128,-3.7871,-3.8985,-3.8665,-3.6962,-3.6726,-3.5996,-3.4968,-3.5304,-3.4886,-3.383,-3.2433,-3.2071,-3.2286,-3.0792,-3.0063,0.0,0.0,0.0,0.0,0.0,0.0,0.0,0.0,0.0,0.0,-3.0817,-3.2644,-3.418,-3.2495,-3.3692,-3.5474,-3.4887,-3.6781,0.0,-4.1765,0.0,0.0,0.0,-5.2491,0.0,0.0,-5.7005,-5.6507,-5.6758,-5.6731,0.0,-5.9108,-6.0089,-6.1124,-6.261,-6.278,-6.278,-6.278,-6.3025,-6.3429,-6.4016,-6.431,-6.4677,-6.5264,-6.5521,-6.5668,-6.5668,-6.6402,-6.6843,-6.6843,-6.7914,-6.8511,-6.8511,-6.919,-6.972,-7.0112,-7.0266,-7.0266,-7.0078,-6.9393,-6.8884,-6.8487,-6.793,-6.7687,-6.7687,-6.7687,-6.6634,-6.4999,-6.4999,-6.3936,-6.2381,-6.2381,-6.2381,-6.2381,0.0,0.0,0.0,0.0,0.0,0.0,0.0,0.0,0.0,0.0,0.0,0.0,0.0,0.0,0.0,0.0,0.0,0.0,0.0,-2.4419,-2.445,-2.4677,-2.5621,-2.6576,-2.7519,-3.0512,-3.2944,-3.4803,-3.6387,-3.659,-3.5538,-3.6308,-3.6353,-3.5738,-3.6776,-3.6328,-3.4751,-3.3657,-3.2934,-3.2437,-3.1519,-3.076,-3.0246,0.0,0.0,0.0,0.0,0.0,0.0,0.0,0.0,0.0,-2.9721,-3.1199,-3.2797,-3.2071,-3.3744,-3.5932,-3.6364,-3.8744,0.0,-4.4267,-4.75,-5.0875,-5.3922,0.0,0.0,0.0,-5.7373,-5.6895,-5.7226,-5.7042,0.0,-5.9355,-6.0089,-6.097,-6.256,-6.278,-6.278,-6.278,-6.278,-6.3025,-6.3539,-6.3576,-6.3796,-6.4273,-6.464,-6.4824,-6.4824,-6.5595,-6.6035,-6.6035,-6.6814,-6.7319,-6.7482,-6.8044,-6.8584,-6.9103,-6.9664,-6.9934,-6.9919,-6.9493,-6.9127,-6.8795,-6.8058,-6.7687,-6.7687,-6.7314,-6.6301,-6.4966,-6.4597,-6.3647,-6.2381,-6.2381,-6.2381,-6.2381,0.0,0.0,0.0,0.0,0.0,0.0,0.0,0.0,0.0,0.0,0.0,0.0,0.0,0.0,0.0,0.0,0.0,0.0,0.0,0.0,-2.4763,-2.5384,-2.5595,-2.6833,-2.917,-3.1561,-3.208,-3.0644,-3.3217,-3.4753,-3.5249,-3.6185,-3.7031,-3.7862,-3.7947,-3.7301,-3.6127,-3.4945,-3.3402,-3.1782,-3.2207,-3.1518,-3.0283,-3.1017,0.0,0.0,0.0,0.0,0.0,0.0,0.0,0.0,-2.9097,-2.917,-2.9647,-3.1775,-3.4247,-3.678,-3.8982,-4.2029,-4.5223,-4.7792,-4.9884,0.0,-5.6051,-5.7483,-5.7997,-5.7997,0.0,-5.7152,-5.7886,-5.7409,-5.7666,-5.9942,-6.0346,-6.0933,-6.2475,-6.2743,-6.278,-6.278,-6.278,-6.278,-6.278,-6.278,-6.278,-6.278,-6.3539,-6.4005,-6.4044,-6.4827,-6.5257,-6.5333,-6.5407,-6.5644,-6.606,-6.6623,-6.7106,-6.7638,-6.8949,-6.9629,-6.9679,-6.9469,-6.9333,-6.9169,-6.8148,-6.7687,-6.7633,-6.6765,-6.5842,-6.49,-6.4042,-6.3162,-6.2381,-6.2381,-6.2381,-6.2381,0.0,0.0,0.0,0.0,0.0,0.0,0.0,0.0,0.0,0.0,0.0,0.0,0.0,0.0,0.0,0.0,0.0,0.0,0.0,0.0,-2.4587,-2.5384,-2.72,-2.9072,-3.0834,-3.1054,-3.1005,-3.0829,-3.2266,-3.3054,-3.3272,-3.4944,-3.6067,-3.6702,-3.7385,-3.6549,-3.4555,-3.3061,-3.2069,-3.1421,-3.0931,-3.0503,-3.021,-3.0393,-2.9843,0.0,0.0,0.0,0.0,0.0,0.0,0.0,-2.9721,-3.0393,-3.087,-3.076,-3.3366,-3.6413,-3.6927,-4.0341,0.0,0.0,-5.2454,-5.5904,-5.7409,-5.7886,-5.7997,-5.7997,-5.785,-5.7776,-5.796,-5.785,-5.8107,-5.9258,-6.0015,-6.075,-6.1704,-6.2401,-6.278,-6.278,-6.278,-6.278,-6.278,-6.278,-6.278,-6.278,-6.2989,-6.3248,-6.3705,-6.447,-6.5084,-6.5516,-6.6137,-6.6516,-6.664,-6.7162,-6.75,-6.76,-6.8321,-6.9052,-6.9731,-6.9851,-6.9492,-6.8637,-6.7982,-6.7687,-6.7633,-6.6765,-6.5842,-6.49,-6.4042,-6.3162,-6.2381,-6.2381,-6.2381,-6.2381,0.0,0.0,0.0,0.0,0.0,0.0,0.0,0.0,0.0,0.0,0.0,0.0,0.0,0.0,0.0,0.0,0.0,0.0,0.0,0.0,-2.474,-2.5915,-2.8396,-2.9791,-2.9806,-3.0131,-3.0094,-2.9706,-3.0479,-3.174,-3.3422,-3.55,-3.7033,-3.8052,-3.8013,-3.6799,-3.4708,-3.3101,-3.1793,-3.0834,-3.0797,-3.054,-3.0173,-2.9757,-2.9145,-2.8374,-2.7996,0.0,0.0,0.0,0.0,0.0,0.0,0.0,-2.9329,-3.043,-3.2559,-3.5055,-3.7404,0.0,0.0,-5.0105,0.0,-5.7005,-5.7813,-5.7997,-5.7997,-5.7997,-5.7997,-5.7997,-5.7997,-5.7997,-5.8253,-5.9074,-5.9551,-6.0236,-6.141,-6.1961,-6.2365,-6.2743,-6.278,-6.278,-6.278,-6.278,-6.278,-6.278,-6.278,-6.3038,-6.3587,-6.3981,-6.4486,-6.503,-6.5445,-6.5748,-6.5968,-6.6265,-6.6529,-6.6787,-6.7459,-6.8112,-6.8708,-6.9403,-6.9292,-6.8487,-6.793,-6.746,-6.6996,-6.6089,-6.5199,-6.4288,-6.3425,-6.2779,-6.2381,-6.2381,-6.2381,-6.2381,0.0,0.0,0.0,0.0,0.0,0.0,0.0,0.0,0.0,0.0,0.0,0.0,0.0,0.0,0.0,0.0,0.0,0.0,0.0,-2.4495,-2.5333,-2.6796,-2.9322,-2.9994,-2.8594,-2.9506,-2.9581,-2.8671,-2.9123,-3.118,-3.4784,-3.6493,-3.8175,-3.9802,-3.8784,-3.7139,-3.5095,-3.3343,-3.151,-2.9843,-3.0356,-3.0173,-2.9512,-2.884,-2.8191,-2.7493,-2.6833,-2.7126,-2.7798,-2.7798,0.0,0.0,0.0,0.0,-2.7346,-3.0173,-3.1641,-3.333,-3.7661,0.0,-4.6379,-5.1683,-5.4913,0.0,-5.7629,-5.7886,-5.7997,-5.7997,-5.7997,-5.7997,-5.7997,-5.7997,-5.8217,-5.8854,-5.9111,-5.9685,-6.1006,-6.13,-6.1704,-6.2511,-6.2585,-6.2658,-6.2805,-6.278,-6.278,-6.278,-6.278,-6.3049,-6.3702,-6.3745,-6.4039,-6.4655,-6.4672,-6.4889,-6.5336,-6.5264,-6.5507,-6.5946,-6.6731,-6.7208,-6.7425,-6.8414,-6.8661,-6.824,-6.7856,-6.7202,-6.6344,-6.5394,-6.4495,-6.361,-6.2774,-6.2381,-6.2381,-6.2381,-6.2381,-6.2381,0.0,0.0,0.0,0.0,0.0,0.0,0.0,0.0,0.0,0.0,0.0,-2.4997,-2.5053,-2.4891,0.0,0.0,0.0,0.0,-2.419,0.0,0.0,-2.7865,-2.9814,-3.0772,-3.0518,-3.0178,-2.9947,-2.9772,-3.0088,-3.2534,-3.6967,-3.6577,-3.7381,-3.9184,-3.8338,-3.6482,-3.3887,-3.1581,-2.9644,-2.8081,-2.7493,-2.72,-2.7079,-2.6969,-2.6859,-2.6759,-2.6638,-2.7126,-2.7798,-2.7798,-2.8338,0.0,0.0,0.0,-2.786,-2.8987,-3.0393,-3.2021,0.0,0.0,-4.7626,0.0,-5.4509,-5.6822,0.0,0.0,-5.7997,0.0,-5.7997,-5.7997,-5.7997,-5.7997,-5.8033,-5.8143,-5.8767,-5.9258,-5.9478,-6.0126,-6.086,-6.1667,-6.1741,-6.2034,-6.2732,-6.278,-6.278,-6.278,-6.278,-6.3262,-6.4217,-6.4275,-6.4769,-6.5848,-6.587,-6.6003,-6.6237,-6.6041,-6.5982,-6.6089,-6.6764,-6.6901,-6.657,-6.6937,-6.7234,-6.7482,-6.7635,-6.7202,-6.6344,-6.5394,-6.4495,-6.361,-6.2774,-6.2381,-6.2381,-6.2381,-6.2381,-6.2381,0.0,0.0,0.0,0.0,0.0,0.0,0.0,0.0,0.0,0.0,0.0,-2.5182,-2.5182,-2.5011,0.0,0.0,0.0,0.0,-2.4366,-2.554,0.0,0.0,-2.8264,-2.8768,-2.829,-2.8158,-2.8338,-2.8804,-2.8345,-3.1203,-3.7149,-3.6652,-3.8365,-4.1764,-3.9882,-3.7837,-3.5656,-3.2302,-2.9953,-2.8422,-2.7717,-2.8312,-2.9312,-2.6958,-2.7247,-2.8569,-2.6117,-2.5768,-2.6513,-2.6979,-2.7677,-2.8411,-2.8877,0.0,0.0,0.0,-2.8815,-3.043,-3.5238,-4.0414,-4.5425,0.0,-5.2126,-5.3852,-5.5252,-5.5862,-5.6222,-5.6603,-5.6711,-5.6978,-5.7844,-5.7997,-5.7997,-5.7997,-5.829,-5.8694,-5.9148,-5.9478,-6.0052,-6.0823,-6.0933,-6.1227,-6.2034,-6.2144,-6.2328,-6.2743,-6.278,-6.3248,-6.4332,-6.4389,-6.4899,-6.6051,-6.6109,-6.6187,-6.6387,-6.6187,-6.6079,-6.5986,-6.5972,-6.5734,-6.5285,-6.557,-6.6036,-6.6625,-6.637,-6.5741,-6.4916,-6.4456,-6.3791,-6.2931,-6.2542,-6.2381,-6.2381,-6.2381,-6.2381,-6.2381,0.0,0.0,0.0,0.0,0.0,0.0,0.0,0.0,0.0,0.0,0.0,0.0,-2.5229,0.0,0.0,0.0,0.0,0.0,-2.4567,0.0,0.0,0.0,0.0,-2.7389,-2.6346,-2.671,-2.7121,-2.7582,-2.7115,-3.0351,-3.6963,-3.7155,-3.982,-4.4374,-4.1698,-3.9292,-3.6942,-3.3256,-3.0907,-2.9561,-2.8915,-2.9758,-3.1219,-2.8946,-2.9498,-3.1022,-2.7327,-2.6439,-2.6917,-2.6906,-2.7457,-2.8154,-2.8583,-2.786,0.0,0.0,0.0,0.0,0.0,0.0,-4.2187,-4.6804,-4.9131,-5.0867,0.0,0.0,-5.454,0.0,-5.5582,-5.6059,-5.718,-5.7413,-5.7413,-5.7413,-5.7413,-5.7631,-5.825,-5.8482,-5.8908,-5.9737,-5.9993,-6.0419,-6.1227,-6.13,-6.1557,-6.2144,-6.2218,-6.2729,-6.3993,-6.4122,-6.4764,-6.6144,-6.619,-6.625,-6.6463,-6.6212,-6.606,-6.5943,-6.5517,-6.4987,-6.4407,-6.4595,-6.4889,-6.5278,-6.5131,-6.4624,-6.3771,-6.3729,-6.3199,-6.2381,-6.2381,-6.2381,-6.2381,-6.2381,-6.2381,-6.2381,0.0,0.0,0.0,0.0,0.0,0.0,0.0,0.0,0.0,0.0,0.0,0.0,0.0,0.0,0.0,0.0,0.0,0.0,0.0,0.0,0.0,0.0,0.0,0.0,-2.6605,-2.7385,-2.7467,-2.6659,-2.7956,-3.1445,-3.6928,-3.8271,-4.136,-4.5699,-4.324,-4.001,-3.6193,-3.3623,-3.2045,-3.1213,-3.0405,-3.016,-3.0613,-3.3453,-3.4151,-3.3406,-3.1654,-3.1066,-3.0736,-2.8496,-2.8264,-2.8803,-2.8081,-2.7798,-2.7603,0.0,0.0,0.0,0.0,-3.5275,0.0,-4.2193,-4.5905,0.0,0.0,0.0,-5.3752,-5.4504,-5.5221,-5.5724,-5.5808,-5.5836,-5.5836,-5.5836,-5.5836,-5.5836,-5.5872,-5.6546,-5.7325,-5.8109,-5.8823,-5.9588,-6.0382,-6.0456,-6.0493,-6.0529,-6.0529,-6.1308,-6.3068,-6.3351,-6.436,-6.6322,-6.6363,-6.6443,-6.6597,-6.6276,-6.609,-6.609,-6.5916,-6.5344,-6.4389,-6.4389,-6.3883,-6.3062,-6.448,-6.4624,-6.3771,-6.3729,-6.3199,-6.2381,-6.2381,-6.2381,-6.2381,-6.2381,-6.2381,-6.2381,0.0,0.0,0.0,0.0,0.0,0.0,0.0,0.0,0.0,0.0,0.0,0.0,0.0,-2.5198,-2.5105,-2.4949,-2.483,0.0,0.0,0.0,0.0,0.0,0.0,0.0,0.0,-2.645,-2.6712,-2.6406,-2.6654,-2.9476,-3.4636,-3.5847,-3.8155,-4.1295,-4.1442,-4.1038,-3.99,-3.5848,-3.3977,-3.366,-3.2994,-3.4019,-3.5875,-3.482,-3.6253,-3.8382,-3.493,-3.3366,-3.279,-3.1637,-3.0609,-2.9575,-2.8458,-2.7631,-2.6759,-2.5438,-2.6355,0.0,0.0,0.0,0.0,-4.0113,-4.2905,-4.5326,-4.7289,-4.9201,-5.0843,-5.1537,-5.2643,-5.3538,-5.3538,-5.4704,-5.5724,-5.5724,-5.5724,-5.5724,-5.5724,-5.5948,-5.6221,-5.6534,-5.6788,-5.7272,-5.8089,-5.8631,-5.9143,-5.9677,-6.0127,-6.0952,-6.2258,-6.3025,-6.4077,-6.5518,-6.6104,-6.6405,-6.6476,-6.6231,-6.6112,-6.61,-6.5615,-6.5035,-6.437,-6.4019,-6.322,-6.2068,-6.2576,-6.2848,-6.2964,-6.2427,-6.2255,-6.2381,-6.2381,-6.2381,-6.2381,-6.2381,-6.2381,-6.2381,0.0,0.0,0.0,0.0,0.0,0.0,0.0,0.0,0.0,-2.5308,0.0,0.0,0.0,0.0,-2.6008,-2.557,-2.5469,-2.5336,-2.5094,0.0,0.0,0.0,0.0,0.0,0.0,-2.6543,-2.6822,-2.6184,-2.6393,-2.8501,-3.2377,-3.3598,-3.5811,-3.8689,-3.8637,-3.9863,-4.1662,-3.8123,-3.6619,-3.6597,-3.6191,-3.7401,-3.9375,-3.8728,-3.9911,-4.162,-3.8899,-3.6962,-3.5503,-3.4386,-3.2978,-3.1339,-2.9454,-2.7534,-2.5768,-2.4564,-2.5915,-2.8044,-2.9108,0.0,0.0,0.0,0.0,-4.1336,-4.4939,-4.643,-4.7564,-4.9052,-5.0541,-5.1623,-5.1894,-5.3366,-5.4655,-5.4934,-5.4969,-5.4969,-5.4969,-5.5173,-5.532,-5.532,-5.5552,-5.5901,-5.646,-5.6981,-5.7613,-5.8454,-5.8939,0.0,-6.141,-6.2167,-6.3306,-6.4935,-6.5897,-6.6416,-6.6416,-6.6169,-6.6096,-6.6187,-6.5654,-6.5019,-6.437,-6.4019,-6.3043,-6.1576,-6.1264,-6.1411,-6.1831,-6.1468,-6.1603,-6.2042,-6.2279,-6.2381,-6.2341,-6.1951,-6.1797,-6.1716,0.0,0.0,0.0,0.0,0.0,0.0,0.0,0.0,-2.5154,-2.5303,0.0,0.0,0.0,0.0,0.0,-2.6736,-2.6659,-2.6269,-2.5385,-2.5308,0.0,0.0,0.0,0.0,0.0,-2.7889,-2.7842,-2.5988,-2.7372,-2.8849,-3.0426,-3.1826,-3.4637,-3.8395,-3.5202,-3.6486,-4.0912,-4.0047,-3.9806,-3.9937,-3.9863,-3.9937,-4.0598,-4.5241,-4.5274,-4.2999,-4.3664,-4.2007,-3.913,-3.6724,0.0,-3.4196,-3.1034,-2.7662,-2.4782,-2.4411,-2.5988,-2.7871,0.0,0.0,0.0,0.0,0.0,0.0,-4.2901,0.0,-4.4085,-4.7128,-4.8917,-5.0168,-5.1014,-5.1758,-5.2503,-5.3348,-5.3484,-5.3518,-5.3518,-5.4106,-5.4575,-5.4575,-5.5203,-5.5638,-5.5638,-5.5667,-5.6004,-5.6773,-5.6887,-5.8014,-6.0523,-6.0845,-6.2138,-6.4668,-6.5795,-6.6348,-6.6348,-6.6065,-6.6065,-6.6381,-6.6046,-6.5359,-6.4389,-6.4389,-6.3356,-6.152,-6.073,-6.0352,-6.029,-6.0966,-6.1298,-6.1366,-6.211,-6.2381,-6.2263,-6.1078,-6.0628,-6.0417,0.0,0.0,0.0,0.0,0.0,-2.4146,-2.4578,-2.4866,-2.5279,0.0,0.0,0.0,-2.7549,-2.828,-2.8665,-2.8434,-2.789,-2.7159,-2.6308,-2.5654,-2.5308,-2.5308,-2.6774,-2.7127,-2.6087,-2.7545,-2.7471,-2.5775,-2.6615,-2.7325,-2.793,-2.9333,-3.1518,-3.427,-3.3954,-3.5238,-3.7514,-3.5495,-3.7331,-4.1442,-3.9108,-4.0928,-4.5058,-4.4635,-4.5875,-4.763,0.0,-4.5485,-4.4038,0.0,-3.9726,-3.7115,-3.2299,-2.8784,-2.6453,-2.6333,-2.7838,-2.9402,-2.8851,0.0,0.0,0.0,0.0,0.0,0.0,0.0,-4.0426,-4.3916,-4.5432,-4.6819,-4.9187,-5.0202,-5.1116,-5.2435,-5.3112,-5.3518,-5.3518,-5.3685,-5.3816,-5.3816,-5.3979,-5.4106,-5.4106,-5.4606,-5.5203,0.0,-5.6589,-5.7734,-5.9676,-6.1278,-6.2664,-6.3887,-6.4938,-6.5453,-6.5459,-6.5755,-6.6065,-6.6381,-6.6046,-6.5359,-6.4389,-6.4389,-6.3057,-6.07,-6.0489,-5.9681,-5.8653,-5.9922,-6.0757,-6.1366,-6.211,-6.2381,-6.2341,-6.203,-6.1358,-6.0544,0.0,0.0,0.0,0.0,0.0,-2.5082,-2.5658,-2.5872,-2.644,0.0,0.0,0.0,-3.0385,-3.1275,-3.1468,-3.0743,-2.9621,-2.8429,-2.7236,-2.6346,-2.5692,-2.5308,-2.6726,-2.7196,-2.6524,-2.7904,-2.7818,-2.6087,-2.6418,-2.6501,-2.6319,-2.7448,-2.8913,-3.0613,-3.1091,-3.2412,-3.4114,-3.1641,-3.4541,-4.0781,-4.0561,0.0,0.0,-4.6434,-4.73,0.0,0.0,0.0,-4.5875,-4.4698,-4.1995,0.0,0.0,-3.0988,-2.9233,-2.7977,-2.9623,-3.1601,-3.0332,-3.1775,0.0,0.0,0.0,0.0,-3.7733,-3.8087,-3.8693,0.0,-4.3572,-4.4722,-4.6786,-4.8003,-4.8993,-4.9721,-5.0794,-5.1832,-5.2701,-5.2487,-5.2238,-5.2238,-5.2238,-5.2238,-5.2238,-5.2976,-5.3806,-5.4552,-5.5745,-5.7313,-5.9349,-6.1438,-6.2769,-6.3142,-6.4072,-6.4588,-6.4691,-6.5141,-6.5516,-6.5875,-6.5881,-6.5359,-6.437,-6.4008,-6.2596,-6.0335,-5.9534,-5.8427,-5.7252,-5.7963,-5.9282,-6.0892,-6.1637,-6.211,-6.2302,-6.1276,-6.0459,-5.9697,0.0,0.0,-2.4586,-2.4557,-2.5415,-2.6486,-2.7585,-2.7629,-2.8196,0.0,-3.0563,-3.1766,-3.4609,-3.543,-3.5154,-3.3583,-3.1769,-2.9962,-2.8275,-2.7198,-2.6226,-2.5437,-2.6734,-2.7418,-2.7311,-2.867,-2.845,-2.6602,-2.6602,-2.6172,-2.5411,-2.6025,-2.6796,-2.7651,-2.7567,-2.8826,-3.0883,-2.9193,-3.2302,-3.8762,-4.2433,-4.4452,0.0,0.0,-4.8952,-4.7168,-4.917,-4.8236,-4.6041,-4.5872,-4.2997,0.0,0.0,0.0,0.0,-2.9959,-3.1625,0.0,-3.2397,-3.3502,0.0,0.0,0.0,0.0,-3.8821,-3.8321,-3.7887,0.0,-4.2178,-4.2895,-4.4012,-4.5331,-4.6249,-4.6185,-4.7342,-4.9015,-5.1218,-5.0806,-5.0269,-5.0269,-5.0365,-5.0397,-5.0397,-5.1192,-5.2108,-5.3011,-5.4874,-5.7047,-5.9444,-6.1426,-6.2426,-6.2343,-6.323,-6.3784,-6.3959,-6.4294,-6.4687,-6.5129,-6.5533,-6.5282,-6.437,-6.3497,-6.2118,-6.0304,-5.8324,-5.7025,-5.6159,-5.5762,-5.7257,-5.9895,-6.0705,-6.1447,-6.1816,-5.9686,-5.8748,-5.8314,0.0,-2.5256,-2.4933,-2.599,-2.6133,-2.6798,-2.8864,-2.8712,-2.9352,-3.2045,-3.397,-3.6154,-3.8954,-3.82,-3.7392,-3.7046,-3.4199,-3.1698,-3.0,-2.7846,-2.6447,-2.6028,-2.6835,-2.7453,-2.7895,-2.8693,-2.8272,-2.6602,-2.6602,-2.6172,-2.5374,-2.4897,-2.5438,-2.6796,-2.6146,-2.6843,-2.8679,-3.1458,0.0,-3.689,-3.8337,-4.2817,-4.8598,-4.8151,-4.8908,-5.0089,-4.9307,-4.8736,-4.8173,-4.6989,-4.479,-4.2117,0.0,0.0,0.0,-3.4869,-3.496,-3.5509,-3.5562,-3.5627,0.0,0.0,0.0,0.0,-3.485,-3.4506,-3.4981,0.0,-3.7694,-3.8067,-4.1271,-4.2591,-4.3351,-4.3929,-4.4919,-4.6445,-4.8748,-4.9405,-4.9609,-4.9609,-5.0083,-5.0397,-5.0397,-5.0589,-5.1353,-5.2977,-5.6005,-5.828,-5.9362,-6.078,-6.1486,-6.1288,-6.2404,-6.3003,-6.3065,-6.3552,-6.4244,-6.509,-6.4915,-6.4709,-6.437,-6.3497,-6.2118,-6.0304,-5.8324,-5.7025,-5.6126,-5.5172,-5.6059,-5.8011,-5.8741,-5.947,-6.0018,-5.953,-5.8522,-5.7292,-2.5438,-2.541,-2.5616,-2.6511,-2.7154,-2.8347,-3.0736,-3.0786,-3.171,-3.4996,-3.7593,-3.9599,-4.0757,-4.0133,-3.938,-3.8692,-3.593,-3.3308,-3.1192,-2.9462,-2.7817,-2.6308,-2.7244,-2.789,-2.8088,-2.868,-2.862,-2.7813,-2.6969,-2.6172,-2.5374,-2.5007,-2.5878,-2.7739,-2.6539,-2.7567,-3.0234,-3.0815,-3.3124,-3.6776,-4.072,0.0,-4.9018,-4.9496,-5.0283,-5.0972,-4.9806,-4.9208,-4.8714,-4.6853,-4.55,0.0,-4.1474,-4.051,-3.9918,0.0,-3.8021,-3.8678,-3.7674,0.0,0.0,-3.7071,0.0,0.0,0.0,-3.5393,-3.5484,-3.7741,-3.7126,-3.7009,-3.9614,-4.0392,-4.0867,-4.1498,-4.2932,-4.4234,-4.4955,-4.6792,-4.7886,-4.741,-4.8044,-4.8498,-4.8354,-4.8795,-5.038,-5.3403,-5.6165,-5.8214,-5.9447,-6.0626,-6.1276,-6.1267,-6.183,-6.2158,-6.2148,-6.2668,-6.3219,-6.3713,-6.4299,-6.4426,-6.4089,-6.3413,-6.1935,-5.9814,-5.7628,-5.5856,-5.4473,-5.3352,-5.4134,-5.6108,-5.7427,-5.8386,-5.8963,-5.8707,-5.7682,-5.6479,-2.4921,-2.5532,-2.6274,-2.6826,-2.818,-3.0018,-3.245,-3.2887,-3.4235,-3.7877,-4.0712,-4.2335,-4.2269,-4.211,-4.1724,-4.1069,-3.8238,-3.5507,-3.3314,-3.1706,-2.9807,-2.7518,-2.8029,-2.8465,-2.8724,-2.8769,-2.8693,-2.8546,-2.7079,-2.6025,-2.5411,-2.5411,-2.6623,-2.873,-2.7613,-2.9113,-3.2314,0.0,0.0,-3.8098,0.0,-4.6864,-4.7571,-5.0266,-5.0859,-5.0224,-4.9888,-4.9462,-4.8714,-4.6786,-4.6143,-4.5635,-4.276,-4.2794,0.0,0.0,0.0,-4.1802,0.0,0.0,0.0,0.0,0.0,-3.8049,0.0,0.0,0.0,-3.7999,-3.735,0.0,0.0,0.0,0.0,0.0,0.0,0.0,0.0,-4.3815,0.0,-4.4859,-4.5825,-4.6374,-4.5996,-4.6862,-4.9222,-5.341,-5.5343,-5.7262,-5.9429,-6.0538,-6.1205,-6.1435,-6.1444,-6.1484,-6.1504,-6.1794,-6.2043,-6.2296,-6.3442,-6.3918,-6.3756,-6.3158,-6.1642,-5.9355,-5.6853,-5.4704,-5.2812,-5.188,-5.2723,-5.4778,-5.6295,-5.7273,-5.7912,-5.7581,-5.6689,-5.562,-2.5792,-2.6071,-2.643,-2.7487,-2.8939,-3.0807,-3.3297,-3.4162,-3.5885,-3.9654,-4.2253,-4.4257,-4.5593,-4.5055,-4.5277,-4.6943,-4.2701,-3.9515,-3.8515,-3.4603,-3.2094,-3.1468,-2.9317,-2.9047,-3.0968,-2.8984,-2.7603,-2.6859,-2.5999,-2.5485,-2.5411,-2.5411,-2.6292,-2.7959,-2.8742,-3.0118,-3.1987,0.0,-3.6692,0.0,-4.3579,-4.4207,0.0,-4.7111,-4.7814,-4.7368,-4.866,-4.9046,-4.8849,0.0,-4.7635,-4.7259,0.0,-4.479,-4.5072,-4.3235,0.0,0.0,0.0,0.0,0.0,0.0,-4.039,0.0,0.0,0.0,-3.6503,-3.5786,0.0,0.0,0.0,0.0,0.0,0.0,0.0,0.0,-3.8982,-4.1039,-4.262,-4.2947,-4.4788,-4.5667,-4.478,-4.562,-4.7807,-5.1686,-5.2936,-5.5264,-5.9218,-6.006,-6.0692,-6.1301,-6.1305,-6.14,-6.1504,-6.084,-6.1098,-6.2296,-6.1953,-6.2489,-6.3756,-6.2575,-6.1104,-5.9355,-5.6853,-5.4704,-5.29,-5.2767,-5.3439,-5.463,-5.4851,-5.5342,-5.6007,-5.6454,-5.5719,-5.448,-2.5449,-2.5659,-2.6227,-2.7571,-2.8331,-2.9916,-3.3278,-3.725,-4.0409,-4.1984,-4.3894,-4.5774,-4.7619,-4.6182,-4.5717,-4.7289,-4.4554,-4.1781,-3.9502,-3.7172,-3.5285,-3.4054,-3.2039,-3.1302,-3.2082,-2.9721,-2.8326,-2.7996,-2.6256,-2.5411,-2.5411,-2.5411,-2.7115,-3.016,-3.0132,-3.2382,-3.6131,0.0,-3.6586,0.0,0.0,0.0,0.0,-4.6922,-4.8885,-4.8753,-4.9413,-4.9898,-5.0101,0.0,-4.8274,0.0,0.0,0.0,0.0,-4.4852,0.0,0.0,0.0,0.0,0.0,0.0,0.0,0.0,-3.6878,0.0,-3.613,0.0,0.0,0.0,0.0,0.0,0.0,0.0,-3.7915,0.0,0.0,0.0,-4.0978,0.0,0.0,0.0,-4.4063,-4.4925,-4.6707,-4.9668,-5.1449,-5.3756,-5.6883,-5.8649,-5.9952,-6.0702,-6.1109,-6.1149,-6.0817,-6.0468,-6.0392,-6.0641,-6.1209,-6.2118,-6.3255,-6.2905,-6.1373,-5.8973,-5.7226,-5.4746,-5.1972,-5.262,-5.3569,-5.4672,-5.5288,-5.5693,-5.5962,-5.6381,-5.5695,-5.4683,-2.5373,-2.5639,-2.6251,-2.7317,-2.8116,-3.0024,-3.43,-3.9434,-4.2983,-4.3441,-4.4892,-4.6763,-4.8979,-4.762,-4.7282,-4.9123,-4.7348,-4.4951,-4.232,-4.0453,-3.8752,-3.7127,-3.5057,-3.3807,-3.3623,-3.1005,-2.9427,-2.8987,-2.6796,-2.5852,-2.6072,-2.6072,-2.7911,-3.1276,-3.1556,-3.4376,-3.874,0.0,-3.782,-4.0059,-4.1197,-4.2046,-4.315,-4.7686,-4.9816,-5.0437,-5.0655,-5.0932,-5.1014,-4.9729,-4.8951,0.0,-4.8274,-4.7496,-4.6583,0.0,0.0,0.0,-4.3639,0.0,0.0,0.0,0.0,0.0,0.0,0.0,0.0,0.0,0.0,0.0,0.0,0.0,0.0,0.0,0.0,-3.7884,0.0,-3.7968,0.0,0.0,0.0,0.0,0.0,-4.3384,-4.4854,-4.7811,-4.9527,-5.1936,-5.5327,-5.7399,-5.9137,-6.0443,-6.0788,-6.077,-6.0292,-6.0008,-5.9703,-5.9407,-6.0509,-6.1581,-6.2563,-6.2574,-6.11,-5.8358,-5.7191,-5.46,-5.1293,-5.2767,-5.3871,-5.4755,-5.6126,-5.6663,-5.6674,-5.6918,-5.6132,-5.4962,-2.6112,-2.6423,-2.6657,-2.6725,-2.887,-3.2249,-3.7036,-3.9733,-4.1735,-4.3294,-4.4892,-4.6947,-4.9777,-5.0001,-5.1384,-5.5011,-5.23,-5.0011,-4.916,-4.5028,-4.2247,-4.1341,-3.8014,-3.6207,-3.6193,-3.2999,-3.0577,-2.8987,-2.7372,-2.6979,0.0,0.0,-2.8432,-2.9796,-3.3049,-3.5599,-3.7581,-3.9224,-4.2482,-4.6443,-4.5771,-4.8128,-5.1685,0.0,-4.9291,-5.128,-5.205,0.0,0.0,-5.0304,-5.0033,0.0,0.0,0.0,0.0,0.0,0.0,0.0,0.0,0.0,0.0,-4.1212,0.0,0.0,0.0,0.0,-3.8464,0.0,0.0,0.0,0.0,0.0,0.0,0.0,0.0,0.0,0.0,0.0,0.0,0.0,0.0,0.0,0.0,-4.0385,-4.1797,0.0,-4.6679,-4.9466,-5.5641,-5.6651,-5.8262,-6.0893,-6.043,-6.0212,-6.0281,-5.929,-5.8952,-5.9407,-5.9581,-6.0351,-6.1642,-6.1088,-5.9658,-5.7478,-5.633,-5.4051,-5.1386,-5.3613,-5.4589,-5.4838,-5.7001,-5.7845,-5.7904,-5.8131,-5.6798,-5.507,-2.7303,-2.7769,-2.798,-2.7223,-2.8278,-3.1053,-3.6417,-4.0805,-4.4268,-4.6397,-4.7645,-4.9743,-5.3363,-5.279,-5.3091,-5.5401,-5.4084,-5.2546,-5.1213,-4.77,-4.6024,-4.6818,-4.1634,-3.8988,-3.9656,-3.5504,-3.2357,-3.0389,-2.882,-2.8213,0.0,0.0,0.0,-3.1112,-3.3528,-3.6318,0.0,0.0,0.0,0.0,0.0,-4.912,-5.2999,0.0,-5.2044,-5.275,-5.3022,-5.2938,0.0,-5.2435,-5.1657,-5.0879,-5.1116,-5.0168,-4.8951,-4.8714,-4.8646,-4.8409,0.0,0.0,-4.7912,-4.3471,0.0,0.0,0.0,0.0,0.0,0.0,0.0,0.0,0.0,0.0,0.0,0.0,0.0,0.0,0.0,0.0,0.0,0.0,0.0,0.0,0.0,0.0,0.0,-4.4147,-4.5256,0.0,-5.2447,-5.4911,-5.6954,-5.8619,-5.9604,-5.9809,-5.9256,-5.8877,-5.8776,-5.8933,-5.9381,-6.0362,-6.1795,-6.1108,-6.0048,-5.8671,-5.6645,-5.4498,-5.2395,-5.3165,-5.3913,-5.4755,-5.6204,-5.726,-5.7941,-5.8204,-5.7812,-5.712,-2.8798,-2.8833,-2.8814,-2.8209,-2.9741,-3.262,-3.7273,-4.204,-4.5883,-4.8012,-4.9554,-5.1777,-5.5229,-5.4656,-5.4693,-5.6308,-5.5721,-5.4436,-5.2564,-5.0175,-4.8956,-4.9159,-4.4953,-4.2472,-4.2262,-3.847,-3.5243,-3.2756,-3.121,-3.0392,0.0,0.0,0.0,0.0,0.0,-3.6755,-3.9893,-4.254,-4.457,0.0,0.0,-5.0731,0.0,0.0,-5.4132,-5.394,0.0,-5.3946,-5.3518,-5.3518,-5.2841,-5.2097,-5.257,-5.1555,-5.0168,-5.0168,-4.9999,-4.9627,-4.8883,-4.939,0.0,-4.5574,-4.4639,0.0,-3.9332,0.0,-4.0493,0.0,0.0,0.0,0.0,0.0,0.0,0.0,0.0,0.0,0.0,-3.3215,0.0,0.0,0.0,0.0,0.0,0.0,-3.9807,-4.2673,-4.3845,0.0,0.0,-5.3386,-5.5795,-5.7267,-5.8806,-5.9192,-5.8312,-5.8134,-5.8134,-5.8333,-5.8977,-6.0055,-6.1423,-6.108,-6.0199,-5.8863,-5.7147,-5.527,-5.3483,-5.3483,-5.3956,-5.4672,-5.5337,-5.6282,-5.7427,-5.8519,-5.9025,-5.9011,-3.0579,-2.9764,-2.9429,-2.9902,-3.3174,-3.6692,0.0,0.0,-4.6507,-4.8196,-5.0582,-5.3041,-5.5486,-5.5743,-5.6308,-5.7804,-5.7253,-5.5801,-5.3485,-5.2503,-5.1011,-4.8807,-4.7914,-4.6396,-4.4085,-4.1754,-3.9027,-3.6003,0.0,0.0,0.0,0.0,0.0,0.0,-3.4463,0.0,-3.9176,-4.2617,-4.5864,-4.8823,-5.1028,-5.2959,-5.4603,-5.5379,-5.5203,-5.4695,-5.5408,-5.473,-5.3518,-5.3518,-5.3518,-5.3518,-5.3518,-5.2976,-5.2367,-5.23,-5.1826,-5.115,-5.0405,-5.0236,-4.9729,-4.7564,-4.6955,0.0,0.0,0.0,-4.4141,0.0,0.0,0.0,0.0,0.0,0.0,0.0,0.0,0.0,0.0,0.0,0.0,0.0,0.0,0.0,0.0,-3.6522,-3.7999,-4.1717,-4.2448,0.0,0.0,-5.2141,-5.474,-5.684,-5.8053,-5.8354,-5.7675,-5.7181,-5.7206,-5.7706,-5.8417,-5.9418,-6.0648,-6.098,-6.0097,-5.8312,-5.7821,-5.6545,-5.4723,-5.4598,-5.4589,-5.4589,-5.4547,-5.528,-5.6585,-5.9161,-6.033,-6.0417,-3.1994,-3.2804,-3.3987,-3.5232,-3.6006,-3.7277,0.0,0.0,0.0,-4.9774,-5.227,-5.4693,-5.7116,-5.7373,-5.7334,-5.7216,-5.6985,-5.636,-5.5133,-5.3193,-5.2315,-5.291,-4.9896,-4.8013,-4.7587,-4.4222,-4.1345,-3.8982,0.0,0.0,-3.41,0.0,0.0,0.0,0.0,0.0,-3.8308,-4.2469,-4.6158,-4.9378,-5.1161,-5.2537,-5.3608,0.0,-5.4757,-5.4603,-5.4818,-5.4296,-5.3518,-5.3518,-5.3518,-5.3518,-5.3518,-5.3382,-5.3078,-5.2469,-5.2604,-5.2739,-5.1961,-5.2164,-5.2232,-5.0507,-4.9255,-4.7902,0.0,0.0,0.0,0.0,0.0,0.0,0.0,0.0,0.0,0.0,0.0,0.0,0.0,0.0,0.0,-3.4645,0.0,0.0,0.0,-3.7144,-3.9209,-4.0665,-4.1962,0.0,0.0,0.0,-5.3194,-5.549,-5.7619,-5.8615,-5.8433,-5.7955,-5.8142,-5.8934,-5.923,-5.9964,-6.1136,-6.136,-6.1057,-6.0289,-5.9393,-5.8152,-5.6621,-5.4924,-5.4397,-5.4505,-5.3656,-5.5229,-5.8118,-5.9569,-6.033,-6.0544,-3.4074,-3.5506,-3.7124,-3.8003,0.0,0.0,-4.2111,-4.4654,0.0,-5.0435,-5.2894,0.0,-5.6271,-5.7373,-5.7703,-5.6964,-5.6912,-5.6276,-5.4732,-5.3739,-5.3293,-5.3468,-5.1356,-4.9942,-4.9438,-4.6364,-4.3541,-4.106,0.0,0.0,-3.4746,0.0,0.0,0.0,0.0,-3.6457,-3.81,-4.2929,-4.6282,-4.8428,-4.9911,-5.1094,0.0,-5.2533,-5.2773,-5.2807,-5.328,-5.3449,-5.3518,-5.3518,-5.3518,-5.3518,-5.3518,-5.3518,-5.3416,-5.2976,-5.3145,-5.3416,-5.2942,-5.3179,-5.3281,-5.2435,-5.1589,-5.0473,-4.8646,-4.8545,-4.8545,0.0,-4.669,-4.6182,0.0,0.0,0.0,0.0,0.0,0.0,0.0,0.0,0.0,0.0,-3.6045,0.0,0.0,-3.6927,-3.8472,-3.9157,-4.0926,0.0,0.0,0.0,-5.1991,-5.3696,-5.6434,-5.7693,-5.7386,-5.7473,-5.773,-5.8116,-5.8783,-5.9705,-6.0876,-6.1746,-6.1697,-6.0942,-6.0848,-5.9805,-5.8044,-5.6302,-5.5222,-5.4505,-5.3384,-5.4896,-5.7887,-5.9006,-6.0251,-6.1399,-3.651,-3.7988,-3.9377,-3.9309,0.0,0.0,0.0,-4.6888,0.0,-5.0965,0.0,-5.4876,-5.4876,-5.6748,-5.7679,-5.6835,-5.6721,-5.5768,-5.3479,-5.4027,-5.3832,-5.2429,-5.242,-5.1792,-5.0405,-4.8139,-4.55,0.0,0.0,0.0,0.0,0.0,0.0,0.0,0.0,0.0,0.0,-4.3588,-4.607,-4.6998,-4.8283,-4.9376,-5.0204,-5.0358,-5.0397,-5.0512,-5.1377,-5.2383,-5.3314,-5.345,-5.3518,-5.3518,-5.3518,-5.3518,-5.3518,-5.3518,-5.3518,-5.3518,-5.3518,-5.3518,-5.3518,-5.3518,-5.3518,-5.2976,-5.098,-5.0541,-5.0338,-4.9729,-4.7158,-4.573,0.0,0.0,0.0,0.0,0.0,0.0,0.0,0.0,0.0,0.0,0.0,0.0,0.0,0.0,0.0,0.0,0.0,0.0,0.0,0.0,-5.0765,-5.205,-5.506,-5.6431,-5.596,-5.6659,-5.6946,-5.672,-5.8013,-5.9193,-6.026,-6.2002,-6.2099,-6.0961,-6.2048,-6.1287,-5.9211,-5.808,-5.6354,-5.4295,-5.3296,-5.4505,-5.6927,-5.8052,-6.0171,-6.2381,-3.8597,-4.0238,-4.1508,-4.0933,-4.3742,-4.6814,-4.8996,-5.0353,-5.1774,-5.3528,-5.5868,-5.7373,-5.7373,-5.774,-5.7413,-5.6031,-5.592,0.0,0.0,0.0,0.0,-5.3277,-5.328,-5.2875,-5.1928,-4.9154,-4.6549,0.0,0.0,0.0,0.0,0.0,0.0,0.0,0.0,0.0,-4.2272,-4.3416,0.0,-4.688,-4.8242,-4.8891,-4.9175,-5.0048,-5.0397,-5.0397,-5.0589,-5.1336,-5.2312,-5.3179,-5.3518,-5.3518,-5.3518,-5.3518,-5.3518,-5.3518,-5.3518,-5.3518,-5.3518,-5.3518,-5.3518,-5.3518,-5.3518,-5.3416,-5.301,-5.2909,-5.2875,-5.2739,-5.066,-4.8627,-4.7902,0.0,0.0,0.0,0.0,0.0,0.0,0.0,0.0,0.0,0.0,-3.8039,0.0,0.0,0.0,0.0,0.0,0.0,0.0,0.0,-4.8563,0.0,-5.4693,-5.6269,0.0,0.0,-5.7978,-5.8296,-5.9059,-5.9502,-5.9797,-6.1864,-6.2228,-6.1355,-6.2769,-6.2183,-6.0051,-5.8932,-5.6383,-5.3209,-5.2989,-5.4505,-5.6927,-5.8052,-6.0171,-6.2381,-4.2422,-4.2997,-4.3606,-4.4012,0.0,0.0,0.0,-5.315,-5.4508,-5.4422,-5.5427,-5.6124,-5.6124,-5.7262,-5.7389,-5.5836,-5.5724,-5.5089,-5.3584,-5.3518,-5.3518,-5.3518,-5.3518,-5.3112,-5.2334,-5.0168,-4.7767,-4.5162,0.0,0.0,0.0,0.0,0.0,0.0,0.0,-3.8956,0.0,0.0,0.0,-4.7158,-4.8891,-4.9296,-4.8882,-4.9376,-4.9247,-4.8841,-4.9376,-4.986,-5.0518,-5.2134,-5.2662,-5.2765,-5.3314,-5.3518,-5.3518,-5.3518,-5.3518,-5.3518,-5.3518,-5.3518,-5.3518,-5.3518,-5.3518,-5.3518,-5.3518,-5.3518,-5.3518,-5.3518,-5.1151,-4.8117,-4.4974,-4.2264,0.0,0.0,0.0,0.0,0.0,0.0,-3.8133,0.0,0.0,0.0,0.0,0.0,0.0,0.0,0.0,0.0,-4.323,0.0,-4.8161,0.0,0.0,0.0,-5.7207,0.0,-5.79,-5.779,-5.8708,-5.9128,-5.9221,-6.1359,-6.1915,-6.1349,-6.2897,-6.2398,-6.0176,-5.7624,-5.5502,-5.3687,-5.2854,-5.3911,-5.6031,-5.756,-5.958,-6.1554,-4.5789,-4.5703,-4.5838,0.0,-4.9021,-5.1011,-5.2216,-5.4813,-5.6277,-5.5302,-5.517,-5.517,-5.517,-5.6859,-5.7389,-5.5836,-5.5724,-5.5089,-5.3584,-5.3518,-5.3518,-5.3518,-5.3518,-5.3213,-5.257,-5.1082,-4.8883,0.0,0.0,0.0,0.0,0.0,0.0,0.0,0.0,0.0,0.0,0.0,-4.6999,-4.7874,-4.9661,-4.9891,-4.9094,-4.8891,-4.8293,-4.7679,-4.8252,-4.847,-4.8759,-5.0595,-5.1525,-5.2065,-5.3144,-5.3518,-5.3518,-5.3518,-5.3518,-5.3518,-5.3518,-5.3518,-5.3518,-5.3518,-5.3518,-5.3518,-5.3518,-5.3518,-5.345,-5.3281,-5.0537,-4.6755,-4.2221,-4.0756,0.0,0.0,0.0,0.0,0.0,0.0,0.0,0.0,0.0,0.0,-3.8199,0.0,0.0,0.0,0.0,0.0,-4.2234,-4.4495,-4.7599,0.0,0.0,-5.484,-5.6247,0.0,-5.7877,-5.7267,-5.8258,-5.8727,-5.8846,-6.0846,-6.1537,-6.1292,-6.2799,-6.2307,-6.0113,-5.6425,-5.4838,-5.4443,-5.3116,-5.3558,-5.5223,-5.6802,-5.8744,-6.0745,-4.668,0.0,0.0,0.0,0.0,-5.2235,-5.2392,-5.4358,-5.626,-5.7504,-5.7666,-5.7666,-5.7666,-5.785,-5.7389,-5.5836,-5.5724,-5.5089,-5.3584,-5.3518,-5.3518,-5.3518,-5.3518,-5.345,-5.3382,-5.1894,-4.9661,0.0,0.0,-3.9884,0.0,0.0,0.0,0.0,0.0,0.0,0.0,-4.6684,-4.8074,-4.9175,-5.0077,-5.032,-5.0126,-4.9175,-4.8759,-4.8553,-4.7722,-4.7452,-4.7624,-4.8718,-5.0326,-5.2065,-5.3144,-5.3518,-5.3518,-5.3518,-5.3518,-5.3518,-5.3518,-5.3518,-5.3518,-5.3518,-5.3518,-5.3518,-5.3518,-5.3518,-5.3281,-5.257,-4.9745,-4.6181,-4.213,-4.2252,-4.1983,0.0,0.0,0.0,0.0,0.0,-3.7684,-3.7526,0.0,0.0,0.0,-3.5804,0.0,0.0,-3.8725,0.0,-4.3051,-4.344,-4.5335,-4.9221,-5.1909,-5.3607,-5.4188,-5.7138,-5.8611,-5.8533,-5.8673,-5.8853,-5.9191,-6.0549,-6.1322,-6.1617,-6.2475,-6.1906,-6.018,-5.7245,-5.5458,-5.4527,-5.3957,-5.4266,-5.5085,-5.5907,-5.8039,-6.0586,0.0,0.0,0.0,0.0,0.0,0.0,0.0,-5.5939,-5.7284,-5.7935,-5.8053,-5.8434,-5.9344,-5.9428,-5.8819,-5.7255,-5.714,-5.6278,-5.4296,-5.416,-5.3957,-5.3518,-5.3518,-5.3518,-5.3518,-5.2435,-5.0845,0.0,0.0,0.0,0.0,0.0,0.0,0.0,0.0,-4.3426,-4.5715,-4.7235,-4.8738,-5.0257,-5.101,-5.1303,-5.1192,-5.0165,-4.9376,-4.8677,-4.7636,-4.7309,-4.7452,-4.846,-4.9376,-5.0326,-5.1993,-5.2557,-5.2662,-5.3314,-5.3518,-5.3518,-5.3518,-5.3518,-5.3518,-5.3518,-5.3518,-5.3518,-5.3518,-5.3518,-5.3112,-5.173,-4.8771,-4.5665,-4.3003,-4.2342,-4.1983,-4.1444,0.0,0.0,0.0,0.0,0.0,-3.8831,0.0,-3.8627,0.0,0.0,0.0,0.0,0.0,-3.9126,-4.2742,-4.3821,-4.5819,-4.9152,0.0,-5.3777,-5.4179,-5.7184,-5.8713,-5.8713,-5.899,-5.9303,-5.9656,-6.0651,-6.1567,-6.2303,-6.2152,-6.1464,-6.0242,-5.7902,-5.6257,-5.5166,-5.467,-5.4497,-5.4679,-5.6104,-5.7832,-5.961,-5.1488,0.0,-5.0608,0.0,-5.3024,-5.3642,-5.5436,-5.6611,-5.7503,-5.7961,-5.8036,-5.8592,-5.9917,-5.9816,-5.9258,-5.8184,-5.7857,-5.6938,-5.5042,-5.4905,-5.46,-5.3856,-5.3822,0.0,-5.3518,-5.2942,-5.1928,-5.0405,-4.8105,0.0,0.0,0.0,0.0,0.0,-4.4299,-4.5295,-4.6629,-4.8244,-4.958,-5.0732,-5.1546,-5.2065,-5.2241,-5.0892,-4.9931,-4.9094,-4.7764,-4.7309,-4.7409,-4.8115,-4.8377,-4.8759,-5.1155,-5.1921,-5.2101,-5.3179,-5.3518,-5.3518,-5.3518,-5.3518,-5.3518,-5.3518,-5.3518,-5.3518,-5.3518,-5.3518,-5.2875,-5.0632,-4.7877,-4.5318,-4.3578,-4.2581,-4.2132,-4.2671,0.0,0.0,0.0,-3.9893,0.0,0.0,-3.9714,-3.936,-3.9698,-3.8411,0.0,0.0,0.0,0.0,0.0,-4.433,0.0,0.0,0.0,0.0,-5.4601,-5.734,-5.8756,-5.8913,-5.9084,-5.9666,-6.0539,-6.14,-6.2197,-6.2755,-6.1969,-6.1257,-6.061,-5.8736,-5.7356,-5.6416,-5.6034,-5.5625,-5.5429,-5.6949,-5.8314,-5.9434,-5.2131,-5.2266,-5.2739,-5.4296,-5.4601,-5.4838,-5.5581,-5.5716,-5.6268,-5.7799,-5.8,-5.8328,-5.9132,-5.8531,-5.8036,-5.8096,-5.73,-5.6501,-5.5718,-5.5716,-5.5378,0.0,0.0,-5.4262,-5.3518,-5.3484,-5.2739,-5.1217,0.0,0.0,-4.6718,0.0,-4.6418,-4.7872,-4.8615,-4.8597,-4.8211,-5.0011,-5.0619,-5.0512,-5.1488,-5.2522,-5.328,-5.1187,-5.0397,-5.0087,-4.803,-4.7309,-4.7309,-4.7309,-4.7309,-4.7849,-5.093,-5.1921,-5.2101,-5.3179,-5.3518,-5.3518,-5.3518,-5.3518,-5.3518,-5.3518,-5.3518,-5.3518,-5.3518,-5.3518,-5.2537,-4.9123,-4.6969,-4.5241,-4.3608,-4.329,-4.2841,-4.1624,0.0,0.0,0.0,-4.0165,0.0,-4.1688,-3.953,-3.8421,-3.9697,-3.7262,0.0,0.0,0.0,0.0,0.0,0.0,0.0,-5.0568,-5.3117,0.0,-5.51,-5.7503,-5.8932,-5.9372,-5.8932,-5.9832,-6.1919,-6.3044,-6.3294,-6.2755,-6.1969,-6.1604,-6.1456,-5.9765,-5.8873,-5.8511,-5.8336,-5.8027,-5.7865,-5.8556,-5.9522,-6.0586,-5.3822,-5.4262,-5.4769,-5.5277,-5.5784,-5.619,-5.6427,-5.6867,-5.738,-5.7871,-5.794,-5.8256,-5.9032,-5.9439,-5.9408,0.0,-5.8515,-5.7808,0.0,-5.6461,-5.6122,-5.5378,-5.4871,-5.4465,-5.4262,-5.3754,-5.3281,-5.2773,0.0,0.0,0.0,-4.8154,-4.853,-4.9858,-4.9473,-4.9418,-4.9687,-5.0252,-5.0885,-5.1451,-5.1776,-5.2557,-5.3348,-5.1921,-5.1005,-5.0204,-4.8841,-4.7861,-4.7309,-4.7309,-4.7309,-4.7581,-4.9256,-5.032,-5.108,-5.2134,-5.2904,-5.3518,-5.3518,-5.3518,-5.3518,-5.3518,-5.3518,-5.3518,-5.3518,-5.2571,-5.1076,-4.8849,-4.7007,-4.551,-4.4519,-4.432,-4.4394,-4.4637,-4.3863,0.0,-4.2382,0.0,-4.1194,-4.1148,-4.0789,-4.0545,-4.0562,-3.9272,0.0,0.0,0.0,0.0,0.0,0.0,0.0,0.0,-5.295,0.0,-5.4621,-5.7323,-5.8756,-5.8932,-5.9666,-6.0772,-6.2201,-6.2789,-6.2965,-6.278,-6.2541,-6.2103,-6.1576,-6.1019,-6.0198,-5.9291,-5.9218,-5.8922,-5.8492,-5.8716,-5.9566,-6.0586,-5.5006,-5.5378,-5.5818,-5.6089,-5.6494,-5.69,-5.7171,-5.7577,-5.7881,-5.7881,-5.7881,-5.8101,-5.8599,-5.9145,0.0,-5.9111,-5.8806,-5.8253,-5.7275,-5.7205,-5.69,-5.6156,-5.5683,-5.531,-5.5006,-5.4296,0.0,-5.3923,-5.2672,-5.1826,-5.1352,-5.076,-5.1128,-5.2169,-5.1303,-5.1103,-5.139,-5.1085,-5.1303,-5.1921,-5.1921,-5.2312,-5.28,-5.174,-5.0703,-4.9655,-4.8594,-4.7849,-4.7309,-4.7309,-4.7309,-4.7409,-4.803,-4.8963,-5.0009,-5.1043,-5.1813,-5.2416,-5.28,-5.2904,-5.3007,-5.3382,-5.3518,-5.3518,-5.3518,-5.233,-5.0892,-4.9603,-4.8015,-4.6605,-4.5876,-4.5494,-4.5602,-4.6461,-4.5402,-4.4399,-4.4212,0.0,-4.2442,0.0,0.0,0.0,0.0,-4.1603,-4.1311,0.0,0.0,0.0,0.0,0.0,-4.934,-5.0712,-5.395,-5.5713,-5.5757,-5.7528,-5.8545,-5.8713,-6.0304,-6.1506,-6.2299,-6.2854,-6.299,-6.278,-6.278,-6.2515,-6.2023,-6.1715,-6.1453,-6.112,-6.0515,-6.0415,-6.0621,-6.0299,-6.0628,-6.1276,-5.5854,-5.5958,-5.623,0.0,-5.708,0.0,-5.7889,-5.7991,-5.7991,-5.7991,-5.7991,-5.8027,-5.8065,-5.8065,-5.8388,-5.9111,0.0,0.0,0.0,-5.7881,-5.7577,-5.69,-5.6833,-5.6494,-5.5818,-5.504,-5.4634,-5.46,-5.3923,-5.3585,-5.3584,-5.3584,-5.3979,-5.4634,-5.3913,-5.3482,-5.3211,-5.2389,-5.2029,-5.2068,-5.2029,-5.1957,-5.1813,-5.0855,-4.9813,-4.8677,-4.7722,-4.7352,-4.7309,-4.7309,-4.7309,-4.7309,-4.7309,-4.7946,-4.8922,-4.997,-5.032,-5.0589,-5.1525,-5.1813,-5.2029,-5.311,-5.3416,-5.3518,-5.3518,-5.2697,-5.1795,-5.1072,-4.9603,-4.8235,-4.7533,-4.6863,-4.6631,-4.7243,-4.6149,-4.547,-4.6002,-4.4729,-4.4078,0.0,0.0,0.0,-4.3415,-4.4132,-4.4042,0.0,0.0,0.0,0.0,0.0,-4.959,-5.3734,-5.5742,-5.7143,-5.7997,-5.7997,-5.829,-5.8838,-6.0923,-6.2028,-6.2367,-6.317,-6.3285,-6.278,-6.278,-6.278,-6.273,-6.1996,-6.257,-6.3746,-6.2114,-6.2368,-6.3574,-6.2736,-6.2381,-6.2381,0.0,0.0,-5.9344,-5.952,-5.9555,-5.9364,-5.8874,-5.8806,-5.8806,-5.8806,-5.8806,-5.9078,-5.9771,-5.98,-5.9864,-6.0086,-5.8737,-5.7881,-5.7881,-5.7881,-5.7814,-5.7645,-5.7103,-5.6731,-5.6562,-5.5818,-5.5175,-5.46,-5.4431,-5.4328,-5.4359,-5.4359,-5.4726,-5.5408,-5.4699,-5.4634,-5.5014,-5.3681,-5.3449,-5.3907,-5.3349,-5.2627,-5.1885,-5.1667,-5.0403,-4.8759,-4.8512,-4.7946,-4.7309,-4.7309,-4.7309,-4.7309,-4.7309,-4.7452,-4.7849,-4.8882,-4.9773,-5.0435,-5.0703,-5.0741,-5.1005,-5.1993,-5.2904,-5.3518,-5.3518,-5.3314,-5.2703,-5.1212,-5.0599,-4.9897,-4.8582,-4.8663,-4.8776,-4.8455,-4.8114,-4.7452,-4.6064,-4.6494,-4.6652,0.0,-4.6871,-4.7346,-4.6943,-4.6675,-4.6044,0.0,0.0,-4.668,-4.7525,-4.8806,-5.0677,-5.3349,-5.5076,-5.6624,-5.7997,-5.7997,-5.8653,-6.0006,-6.1126,-6.2026,-6.2671,-6.2916,-6.2892,-6.278,-6.278,-6.278,-6.278,-6.2592,-6.3048,-6.3804,-6.273,-6.2855,-6.3574,-6.2736,-6.2381,-6.2381,-5.901,-5.9804,-6.0397,-6.0397,-6.0397,-6.0242,-5.9768,-5.9704,-5.9704,-5.9704,-5.9704,-5.9864,-6.0335,-6.0397,-6.0397,-6.0397,-5.9576,-5.8875,-5.8459,-5.8424,-5.8281,-5.7918,-5.7509,-5.7306,-5.7306,-5.6951,-5.6607,-5.624,-5.624,-5.6252,-5.623,-5.623,-5.6229,-5.6219,-5.5493,-5.5196,-5.5144,-5.4359,-5.4042,-5.4074,-5.4009,-5.3382,-5.2313,-5.1508,-5.0434,-4.9202,-4.8416,-4.7764,-4.7309,-4.7309,-4.7309,-4.7309,-4.7309,-4.7309,-4.7409,-4.7946,-4.8543,-4.9085,-4.9536,-4.9655,-5.0048,-5.1525,-5.2348,-5.2904,-5.3382,-5.3518,-5.3213,-5.23,-5.1796,-5.1396,-5.0986,-5.062,-5.0366,-5.0339,-4.9692,-4.8749,-4.7434,-4.8049,-4.8439,-4.7823,-4.9385,-5.0409,-5.0098,-5.0218,-4.9509,-4.7628,-4.851,0.0,-4.844,-5.0468,-5.2352,-5.3836,-5.5425,-5.6805,-5.7997,-5.8364,-5.9171,-6.0419,-6.1227,-6.2034,-6.278,-6.278,-6.278,-6.278,-6.278,-6.278,-6.278,-6.278,-6.3466,-6.4419,-6.3568,-6.391,-6.4801,-6.3936,-6.361,-6.361,-6.0427,-6.067,-6.076,-6.076,-6.076,-6.07,-6.058,-6.058,-6.058,-6.058,-6.058,-6.061,-6.073,-6.076,-6.076,-6.076,-6.076,-6.0366,-5.9377,-5.9311,-5.9011,-5.8315,-5.828,-5.828,-5.828,-5.8321,-5.8374,-5.8361,-5.8361,-5.8384,-5.8359,-5.8359,-5.8025,-5.7377,-5.6535,-5.5854,-5.5288,-5.5043,-5.4672,-5.4256,-5.4733,-5.4327,-5.3188,-5.1561,-5.0596,-4.9853,-4.8377,-4.7752,-4.7608,-4.7608,-4.7549,-4.7459,-4.7459,-4.7399,-4.7309,-4.7309,-4.7309,-4.7495,-4.8335,-4.8677,-4.9256,-5.1192,-5.1813,-5.2205,-5.328,-5.3518,-5.3518,-5.3518,-5.2976,-5.2697,-5.3376,-5.2409,-5.1598,-5.1862,-5.0751,-4.9607,-4.8816,0.0,-4.9924,-5.0024,-5.1942,-5.3221,-5.317,-5.3889,-5.3335,-5.0892,-5.2482,-5.2473,-4.9977,-5.2286,-5.3946,-5.4564,-5.5875,-5.6974,-5.7837,-5.8604,-5.9493,-6.042,-6.1226,-6.2008,-6.278,-6.278,-6.278,-6.278,-6.278,-6.278,-6.278,-6.2789,-6.3804,-6.5197,-6.4274,-6.495,-6.6313,-6.5361,-6.4999,-6.4999,-6.1371,-6.1969,-6.2438,-6.2438,-6.2438,-6.2219,-6.152,-6.14,-6.14,-6.14,-6.14,-6.1659,-6.235,-6.2438,-6.2438,-6.2438,-6.2438,-6.177,-6.0304,-6.018,-6.0149,-5.9991,-5.9991,-5.9991,-5.9991,-6.0012,-5.9708,-5.9111,-5.9111,-5.9144,-5.9114,-5.9114,-5.9398,-5.9784,-5.8381,-5.8023,-5.8391,-5.7105,-5.6892,-5.7324,-5.6767,-5.5923,-5.4932,-5.3923,-5.2348,-5.0712,-5.0449,-4.9748,-4.9,-4.9,-4.8596,-4.8147,-4.8147,-4.7758,-4.7309,-4.7309,-4.7309,-4.7352,-4.7495,-4.8126,-4.9094,-5.032,-5.1266,-5.2205,-5.328,-5.3518,-5.3518,-5.3518,-5.3416,-5.3343,-5.3479,-5.32,-5.2564,-5.1286,-5.0838,-4.998,-4.8127,0.0,-5.1755,-5.2094,-5.4594,-5.6431,-5.6764,-5.6349,-5.584,-5.5412,-5.4456,-5.3875,-5.3748,-5.415,-5.4466,-5.4578,-5.4809,-5.5642,-5.7064,-5.7875,-5.8972,-6.0404,-6.1227,-6.202,-6.278,-6.278,-6.278,-6.278,-6.278,-6.278,-6.2792,-6.2722,-6.373,-6.5207,-6.4194,-6.4863,-6.6313,-6.5361,-6.4999,-6.4999,-6.2156,-6.2541,-6.278,-6.278,-6.278,-6.2643,-6.2298,-6.2245,-6.2245,-6.2245,-6.2245,-6.2376,-6.2755,-6.278,-6.278,-6.278,-6.278,-6.249,-6.1751,-6.1293,-6.0849,-6.0397,-6.0397,-6.058,-6.1026,-6.1026,-6.1078,-6.1172,-6.1172,-6.119,-6.1204,-6.1204,-6.0897,-6.042,-5.9708,-5.9123,-5.8645,-5.8323,-5.8178,-5.8155,-5.8178,-5.7631,-5.6645,-5.5302,-5.4157,-5.307,-5.1497,-5.0599,-5.0096,-4.9494,-4.912,-4.885,-4.885,-4.864,-4.8297,-4.7938,-4.7578,-4.7309,-4.7309,-4.7636,-4.8377,-5.0009,-5.0741,-5.1521,-5.311,-5.3518,-5.3518,-5.3518,-5.3518,-5.3615,-5.4001,-5.4016,-5.3691,-5.2942,-5.2069,-5.1165,-5.0375,-5.1452,-5.2724,-5.3809,-5.632,-5.8145,-5.8566,-5.8486,-5.7974,-5.6891,-5.627,-5.5547,-5.4653,-5.4988,-5.5193,-5.5203,-5.5173,-5.5736,-5.6898,-5.7706,-5.8866,-6.0422,-6.1207,-6.2023,-6.278,-6.278,-6.278,-6.278,-6.278,-6.278,-6.2828,-6.3288,-6.4181,-6.5296,-6.527,-6.604,-6.7024,-6.6605,-6.6421,-6.6421,-6.2705,-6.278,-6.278,-6.278,-6.278,-6.278,-6.278,-6.278,-6.278,-6.278,-6.278,-6.278,-6.278,-6.278,-6.278,-6.278,-6.278,-6.278,-6.278,-6.2245,-6.1604,-6.0967,-6.0938,-6.1265,-6.1888,-6.1888,-6.2156,-6.278,-6.278,-6.278,-6.278,-6.278,-6.2161,-6.1035,-6.0847,-6.0092,-5.9008,-5.9573,-5.949,-5.9037,-5.96,-5.93,-5.8405,-5.6849,-5.5936,-5.5232,-5.2913,-5.1968,-5.1588,-5.0496,-5.0034,-4.9869,-4.9584,-4.9419,-4.9209,-4.8656,-4.8203,-4.7804,-4.7426,-4.7452,-4.8072,-4.9931,-5.0397,-5.093,-5.3041,-5.3314,-5.3179,-5.345,-5.3518,-5.3717,-5.4451,-5.4395,-5.4308,-5.4464,0.0,-5.236,-5.2621,-5.294,-5.3761,-5.5332,-5.7454,-5.906,-5.9746,-6.0086,-5.9559,-5.7847,-5.7897,-5.7175,-5.5223,-5.5847,-5.6087,-5.5724,-5.57,-5.6018,-5.6615,-5.7417,-5.8552,-6.0103,-6.0913,-6.1742,-6.2541,-6.273,-6.278,-6.278,-6.278,-6.289,-6.3147,-6.38,-6.4668,-6.5642,-6.6252,-6.7002,-6.7687,-6.7687,-6.7687,-6.7687,-6.278,-6.278,-6.278,-6.278,-6.278,-6.278,-6.278,-6.278,-6.278,-6.278,-6.278,-6.278,-6.278,-6.278,-6.278,-6.278,-6.278,-6.278,-6.278,-6.2755,-6.2705,-6.2654,-6.2618,-6.2654,-6.273,-6.273,-6.273,-6.278,-6.278,-6.278,-6.278,-6.278,-6.2743,-6.2595,-6.1833,-6.1468,-6.1368,-6.1423,-6.1396,-6.1368,-6.1423,-6.0941,-6.0141,-5.917,-5.7724,-5.6105,-5.5883,-5.5174,-5.4136,-5.3009,-5.2211,-5.1511,-5.0442,-4.9763,-4.9299,-4.9239,-4.9404,-4.927,-4.7731,-4.7988,-4.8932,-5.0126,-5.0397,-5.093,-5.3041,-5.2697,-5.2312,-5.3314,-5.3518,-5.3717,-5.4451,-5.3983,-5.369,-5.4389,0.0,0.0,-5.3146,-5.4121,-5.5341,-5.6684,-5.7992,-5.9289,-6.0565,-6.0731,-6.0313,-5.9311,-5.9282,-5.8527,-5.683,-5.7437,-5.7155,-5.5752,-5.5693,-5.574,-5.5789,-5.6537,-5.7672,-5.9207,-6.0082,-6.0909,-6.1715,-6.2464,-6.278,-6.278,-6.278,-6.3282,-6.4002,-6.3928,-6.4903,-6.6396,-6.6424,-6.6931,-6.7687,-6.7687,-6.7687,-6.7687,-6.278,-6.278,-6.278,-6.278,-6.278,-6.278,-6.278,-6.278,-6.278,-6.278,-6.278,-6.278,-6.278,-6.278,-6.278,-6.278,-6.278,-6.278,-6.278,-6.278,-6.278,-6.278,-6.278,-6.278,-6.278,-6.278,-6.278,-6.278,-6.278,-6.278,-6.278,-6.278,-6.278,-6.278,-6.249,-6.235,-6.235,-6.235,-6.235,-6.235,-6.235,-6.1888,-6.1055,-6.0242,-5.911,-5.7825,-5.6635,-5.5968,-5.5417,-5.4305,-5.3798,-5.3534,-5.3063,-5.2746,-5.2508,-5.2101,-5.1737,-5.1385,-5.0765,-5.0196,-4.9891,-5.0281,-5.0397,-5.0589,-5.141,-5.1262,-5.108,-5.1484,-5.1557,-5.1852,-5.2737,-5.3076,-5.3513,-5.4425,0.0,-5.3457,-5.3928,-5.4399,-5.5148,-5.6462,-5.8141,-5.9513,-6.0286,-6.0634,-6.0521,-5.9885,-5.9559,-5.899,-5.8083,-5.8015,-5.7741,-5.7218,-5.7158,-5.668,-5.5716,-5.6427,-5.7565,-5.9111,-5.9991,-6.082,-6.1632,-6.2427,-6.278,-6.2817,-6.3392,-6.3796,-6.4163,-6.5121,-6.5906,-6.6559,-6.7021,-6.7405,-6.7687,-6.7687,-6.7687,-6.7687,-6.278,-6.278,-6.278,-6.278,-6.278,-6.278,-6.278,-6.278,-6.278,-6.278,-6.278,-6.278,-6.278,-6.278,-6.278,-6.278,-6.278,-6.278,-6.278,-6.278,-6.278,-6.278,-6.278,-6.278,-6.278,-6.278,-6.278,-6.278,-6.278,-6.278,-6.278,-6.278,-6.278,-6.278,-6.2541,-6.2402,-6.2402,-6.2402,-6.2402,-6.2464,-6.2705,-6.2324,-6.1548,-6.0967,-6.0086,-5.8942,-5.7572,-5.6972,-5.6586,-5.549,-5.5125,-5.5011,-5.4713,-5.4589,-5.4493,-5.4054,-5.3657,-5.3388,-5.3388,-5.2476,-5.143,-5.0897,-5.0324,-4.997,-5.032,-5.0126,-5.0009,-5.032,-5.0397,-5.0589,-5.1303,-5.2111,-5.3045,-5.3999,-5.3878,-5.3971,-5.4755,-5.5088,-5.5619,-5.6644,-5.8349,-5.9576,-6.0036,-6.0521,-6.0533,-5.9916,-5.9576,-5.9121,-5.8487,-5.8408,-5.83,-5.8119,-5.8522,-5.7996,-5.644,-5.6908,-5.7662,-5.8737,-5.9864,-6.067,-6.1257,-6.2324,-6.278,-6.2879,-6.3723,-6.4237,-6.4567,-6.5925,-6.6659,-6.6916,-6.7467,-6.7687,-6.7687,-6.7687,-6.7687,-6.7687,-6.278,-6.278,-6.278,-6.278,-6.278,-6.278,-6.278,-6.278,-6.278,-6.278,-6.278,-6.278,-6.278,-6.278,-6.278,-6.278,-6.278,-6.278,-6.278,-6.278,-6.278,-6.278,-6.278,-6.278,-6.278,-6.278,-6.278,-6.278,-6.278,-6.278,-6.278,-6.278,-6.278,-6.2755,-6.1969,-6.1604,-6.1604,-6.1604,-6.1604,-6.1659,-6.249,-6.2324,-6.1632,-6.1604,-6.0575,-5.9111,-5.9111,-5.8599,-5.7701,-5.6586,-5.6204,-5.6047,-5.4961,-5.463,-5.463,-5.463,-5.485,-5.5111,-5.5111,-5.4585,-5.3601,-5.1926,-5.0159,-4.9054,-5.0126,-4.9536,-4.9094,-5.0165,-5.0358,-5.0358,-5.0397,-5.1192,-5.2142,-5.2977,-5.3933,-5.4848,-5.5581,-5.6367,-5.7069,-5.7537,-5.8666,-5.9559,-6.0059,-6.0508,-6.0391,-5.9475,-5.9389,-5.899,-5.8065,-5.8767,-5.8884,-5.8156,-5.9619,-5.9643,-5.8035,-5.7976,-5.7918,-5.7918,-5.9609,-6.0397,-6.0427,-6.2049,-6.2805,-6.2853,-6.3723,-6.4567,-6.5349,-6.6182,-6.699,-6.7687,-6.7687,-6.7687,-6.7687,-6.7687,-6.7687,-6.7687,-6.278,-6.278,-6.278,-6.278,-6.278,-6.278,-6.278,-6.278,-6.278,-6.278,-6.278,-6.278,-6.278,-6.278,-6.278,-6.278,-6.278,-6.278,-6.278,-6.278,-6.278,-6.278,-6.278,-6.278,-6.278,-6.278,-6.278,-6.278,-6.278,-6.278,-6.278,-6.278,-6.278,-6.2755,-6.1969,-6.1604,-6.1576,-6.0997,-6.1084,-6.1632,-6.1851,-6.2129,-6.2376,-6.1797,-6.0938,-5.9928,-5.9311,-5.8599,-5.7845,-5.7517,-5.7372,-5.7335,-5.7001,-5.6925,-5.6925,-5.6925,-5.698,-5.707,-5.707,-5.5984,-5.4465,-5.2667,-5.0844,-4.9387,-4.8998,-4.828,-4.7849,-4.8157,-4.824,-4.8418,-4.9135,-5.0165,-5.1192,-5.2073,-5.3112,-5.3913,-5.4106,-5.5267,-5.6106,-5.6224,-5.7847,-5.9084,-5.9559,-6.0006,-6.0189,-5.9916,-5.9266,-5.8913,-5.8827,-5.9074,-5.9626,-6.0516,-6.0438,-6.016,-5.9671,-5.904,-5.8459,-5.7918,-5.9609,-6.0397,-6.0458,-6.2434,-6.3477,-6.3785,-6.4953,-6.5345,-6.5206,-6.6105,-6.6181,-6.5868,-6.6553,-6.6794,-6.6852,-6.7488,-6.7687,-6.7687,-6.278,-6.278,-6.278,-6.278,-6.278,-6.278,-6.278,-6.278,-6.278,-6.278,-6.278,-6.278,-6.278,-6.278,-6.278,-6.278,-6.278,-6.278,-6.278,-6.3135,-6.3319,-6.3319,-6.3613,-6.3503,-6.2817,-6.278,-6.278,-6.278,-6.278,-6.278,-6.278,-6.278,-6.278,-6.2755,-6.1969,-6.14,-6.1084,-6.061,-6.067,-6.1142,-6.1492,-6.1915,-6.2271,-6.177,-6.0909,-5.9832,-5.9278,-5.8599,-5.7881,-5.7881,-5.7881,-5.7881,-5.7881,-5.7881,-5.7881,-5.7881,-5.7881,-5.7881,-5.7881,-5.6813,-5.5402,-5.4247,-5.2055,-4.997,-4.8922,-4.8177,-4.7698,-4.7698,-4.7489,-4.7495,-4.8115,-4.9376,-5.0589,-5.1192,-5.2522,-5.3618,-5.3881,-5.4969,-5.5836,-5.615,-5.767,-5.8796,-5.9121,-5.9543,-5.9874,-6.0017,-5.9321,-5.9154,-5.9648,-5.9979,-6.0603,-6.1557,-6.1448,-6.119,-6.0879,-6.0055,-5.9044,-5.7918,-5.9609,-6.0397,-6.0494,-6.275,-6.3909,-6.4189,-6.5583,-6.5789,-6.5177,-6.6043,-6.5842,-6.5065,-6.5617,-6.6095,-6.6464,-6.6967,-6.7405,-6.7687,-6.278,-6.278,-6.278,-6.278,-6.278,-6.278,-6.278,-6.278,-6.278,-6.278,-6.278,-6.278,-6.278,-6.278,-6.278,-6.278,-6.278,-6.2817,-6.2915,-6.3649,-6.4127,-6.42,-6.4897,-6.4604,-6.3062,-6.3,-6.3,-6.3,-6.3,-6.3,-6.3,-6.3,-6.3,-6.2975,-6.2187,-6.1379,-6.0595,-6.0441,-6.0437,-6.0549,-6.1229,-6.1548,-6.1604,-6.1604,-6.0575,-5.9111,-5.9111,-5.8599,-5.7881,-5.7881,-5.7881,-5.7881,-5.7881,-5.7881,-5.7881,-5.7881,-5.7881,-5.7881,-5.7881,-5.7114,-5.6321,-5.6243,-5.3769,-5.1053,-4.9807,-4.8925,-4.8386,-4.8386,-4.7908,-4.7489,-4.7489,-4.9159,-5.0493,-5.0493,-5.22,-5.375,-5.4482,-5.5232,-5.6004,-5.6773,-5.7927,-5.8652,-5.8713,-5.914,-5.959,-5.998,-5.9567,-5.9685,-6.0456,-6.119,-6.163,-6.1704,-6.2438,-6.2402,-6.1632,-6.079,-5.9574,-5.8027,-5.9606,-6.0468,-6.06,-6.3039,-6.4239,-6.4383,-6.593,-6.5998,-6.5166,-6.5923,-6.5685,-6.4766,-6.4866,-6.5394,-6.6156,-6.6344,-6.691,-6.7569,-6.278,-6.278,-6.278,-6.278,-6.278,-6.278,-6.278,-6.278,-6.278,-6.278,-6.278,-6.278,-6.278,-6.278,-6.278,-6.278,-6.278,-6.3099,-6.3759,-6.398,-6.4383,-6.5007,-6.5228,-6.5154,-6.4787,-6.4787,-6.4787,-6.4787,-6.4787,-6.4787,-6.4787,-6.4787,-6.4787,-6.4699,-6.3883,-6.3034,-6.2191,-6.0938,-6.0776,-6.1286,-6.0849,-6.1026,-6.1604,-6.1604,-6.0575,-5.9111,-5.9111,-5.8599,-5.7881,-5.7881,-5.7881,-5.7881,-5.7881,-5.7881,-5.7881,-5.7881,-5.7881,-5.7881,-5.7881,-5.7701,-5.7335,-5.6398,-5.5627,-5.4398,-5.1915,-5.018,-4.909,-4.909,-4.9,-4.888,-4.888,-5.0144,-5.119,-5.119,-5.2494,-5.375,-5.4482,-5.5232,-5.6004,-5.6773,-5.7666,-5.8304,-5.8673,-5.9353,-6.0082,-6.0778,-6.0416,-6.0493,-6.13,-6.152,-6.1887,-6.2511,-6.2732,-6.2402,-6.1632,-6.079,-5.9864,-5.884,-5.9896,-6.0715,-6.1441,-6.3647,-6.5151,-6.6025,-6.6753,-6.6272,-6.5045,-6.5222,-6.4392,-6.3049,-6.3719,-6.4113,-6.4462,-6.5909,-6.6523,-6.6794,-6.278,-6.278,-6.278,-6.278,-6.278,-6.278,-6.278,-6.278,-6.278,-6.278,-6.278,-6.278,-6.278,-6.278,-6.278,-6.278,-6.3172,-6.3613,-6.4053,-6.4824,-6.5411,-6.5852,-6.6256,-6.6439,-6.6439,-6.6439,-6.6072,-6.5301,-6.5301,-6.5301,-6.5301,-6.5301,-6.5301,-6.5275,-6.4821,-6.4174,-6.3279,-6.2033,-6.1974,-6.2666,-6.1834,-6.1742,-6.2135,-6.2135,-6.1046,-5.9556,-5.9556,-5.9336,-5.8896,-5.8524,-5.8423,-5.8355,-5.8017,-5.7881,-5.7881,-5.7881,-5.7881,-5.7881,-5.7881,-5.7881,-5.7848,-5.764,-5.6901,-5.564,-5.365,-5.2235,-5.1382,-5.1382,-5.1103,-5.0886,-5.0886,-5.1868,-5.2675,-5.2675,-5.4077,-5.5363,-5.6178,-5.6943,-5.7694,-5.8478,-5.8908,-5.9214,-5.9494,-6.011,-6.0874,-6.1635,-6.1486,-6.1712,-6.2526,-6.2315,-6.2365,-6.2805,-6.278,-6.2592,-6.2192,-6.1343,-6.0938,-6.0866,-6.0928,-6.1207,-6.169,-6.438,-6.5964,-6.6539,-6.717,-6.6534,-6.4999,-6.4999,-6.3972,-6.2459,-6.2893,-6.3314,-6.3827,-6.4769,-6.5397,-6.5873,-6.278,-6.278,-6.278,-6.278,-6.278,-6.278,-6.278,-6.278,-6.278,-6.278,-6.278,-6.278,-6.278,-6.278,-6.278,-6.278,-6.3613,-6.4163,-6.431,-6.5668,-6.6549,-6.6696,-6.732,-6.7687,-6.7687,-6.7687,-6.7026,-6.5705,-6.5574,-6.5484,-6.5484,-6.5313,-6.5313,-6.5484,-6.5484,-6.5068,-6.4375,-6.3351,-6.3306,-6.3892,-6.3044,-6.2634,-6.2505,-6.2666,-6.164,-6.0114,-6.0114,-6.0114,-6.0013,-5.9404,-5.9201,-5.9099,-5.8457,-5.8254,-5.8254,-5.8118,-5.8084,-5.8087,-5.8099,-5.8101,-5.8281,-5.9111,-5.8111,-5.6682,-5.5758,-5.4649,-5.3766,-5.3766,-5.3326,-5.2941,-5.2941,-5.3797,-5.4494,-5.4494,-5.5962,-5.7394,-5.8184,-5.8868,-5.9574,-6.031,-6.0419,-6.0456,-6.0603,-6.1018,-6.1645,-6.2513,-6.2609,-6.2886,-6.3534,-6.3168,-6.2904,-6.2805,-6.278,-6.278,-6.278,-6.2141,-6.2145,-6.2795,-6.2397,-6.2235,-6.2302,-6.5213,-6.6586,-6.6733,-6.7393,-6.6664,-6.4999,-6.4999,-6.3972,-6.2381,-6.2381,-6.2855,-6.3498,-6.3647,-6.4253,-6.5098,-6.278,-6.278,-6.278,-6.278,-6.278,-6.278,-6.278,-6.278,-6.278,-6.278,-6.278,-6.278,-6.278,-6.278,-6.278,-6.278,-6.3613,-6.4383,-6.5081,-6.5999,-6.6806,-6.7504,-6.7614,-6.7687,-6.7687,-6.7687,-6.7577,-6.7357,-6.6611,-6.6227,-6.6227,-6.539,-6.5453,-6.6227,-6.6227,-6.6219,-6.6079,-6.4419,-6.3841,-6.3833,-6.3044,-6.2244,-6.1675,-6.2408,-6.164,-6.0114,-6.0114,-6.0114,-6.008,-5.9979,-5.9945,-5.9945,-5.9844,-5.981,-5.9674,-5.9066,-5.8863,-5.8877,-5.8909,-5.8943,-5.9144,-5.9991,-6.0019,-5.9794,-5.9666,-5.6932,-5.4429,-5.4429,-5.4406,-5.4342,-5.4342,-5.5287,-5.608,-5.608,-5.7168,-5.8301,-5.9033,-5.9222,-5.9574,-6.031,-6.0419,-6.0676,-6.1374,-6.1483,-6.2063,-6.3326,-6.3444,-6.3482,-6.3571,-6.3543,-6.3285,-6.2805,-6.278,-6.278,-6.278,-6.2685,-6.2687,-6.2831,-6.4108,-6.4692,-6.4757,-6.5943,-6.688,-6.754,-6.7677,-6.6664,-6.4999,-6.4999,-6.3972,-6.2381,-6.2381,-6.2498,-6.2659,-6.3425,-6.4253,-6.5032,-6.278,-6.278,-6.278,-6.278,-6.278,-6.278,-6.278,-6.278,-6.278,-6.278,-6.278,-6.278,-6.278,-6.278,-6.278,-6.278,-6.4016,-6.4934,-6.5301,-6.6476,-6.732,-6.7677,-6.7687,-6.7687,-6.7687,-6.7687,-6.7687,-6.7687,-6.7286,-6.6881,-6.6404,-6.5966,-6.5712,-6.5617,-6.5617,-6.5627,-6.558,-6.4305,-6.4096,-6.4421,-6.3612,-6.3032,-6.2714,-6.3136,-6.2463,-6.1366,-6.1366,-6.1366,-6.1298,-6.0926,-6.0757,-6.0689,-6.025,-6.0114,-6.0047,-5.9708,-5.9607,-5.9661,-5.9737,-5.9769,-6.0,-6.0867,-6.073,-6.0519,-6.0967,-5.9399,-5.7833,-5.7833,-5.7833,-5.7833,-5.7833,-5.829,-5.8618,-5.8618,-5.9698,-6.0673,-6.0996,-6.1447,-6.1691,-6.1741,-6.1741,-6.1887,-6.2254,-6.2533,-6.2969,-6.3571,-6.3892,-6.4056,-6.4056,-6.3766,-6.3498,-6.3262,-6.2941,-6.3025,-6.3503,-6.3523,-6.3721,-6.4094,-6.5347,-6.5674,-6.5229,-6.6583,-6.7357,-6.7687,-6.7687,-6.6967,-6.5748,-6.5196,-6.4253,-6.3087,-6.2581,-6.2381,-6.2459,-6.2817,-6.3202,-6.3647]},{"header":{"parameterUnit":"m.s-1","parameterCategory":1,"la1":30.6,"la2":28.766,"lo1":-90.7593,"lo2":-88.6598,"dy":0.0162,"dx":0.0183,"nx":116,"ny":114,"refTime":"2024-05-31T18:00:00:Z","depth":0,"parameterNumber":3,"parameterNumberName":"V-component_of_WINDS"},"data":[0.0,0.0,0.0,0.0,0.0,0.0,0.0,0.0,0.0,0.0,0.0,0.0,0.0,0.0,0.0,0.0,0.0,0.0,0.0,0.0,0.0,0.0,0.0,0.0,0.0,0.0,0.0,0.0,0.0,0.0,0.0,0.0,0.0,0.0,0.0,0.0,0.0,0.0,0.0,0.0,0.0,0.0,0.0,0.0,0.0,0.0,0.0,0.0,0.0,0.0,0.0,0.0,0.0,0.0,0.0,0.0,0.0,0.0,0.0,0.0,0.0,0.0,0.0,0.0,0.0,0.0,0.0,0.0,0.0,0.0,0.0,0.0,0.0,0.0,0.0,0.0,0.0,0.0,0.0,0.0,0.0,0.0,0.0,0.0,0.0,0.0,0.0,0.0,0.0,0.0,0.0,0.0,0.0,0.0,0.0,0.0,0.0,0.0,0.0,0.0,0.0,0.0,0.0,0.0,0.0,0.0,0.0,0.0,0.0,0.0,0.0,0.0,0.0,0.0,0.0,0.0,0.0,0.0,0.0,0.0,0.0,0.0,0.0,0.0,0.0,0.0,0.0,0.0,0.0,0.0,0.0,0.0,0.0,0.0,0.0,0.0,0.0,0.0,0.0,0.0,0.0,0.0,0.0,0.0,0.0,0.0,0.0,0.0,0.0,0.0,0.0,0.0,0.0,0.0,0.0,0.0,0.0,0.0,0.0,0.0,0.0,0.0,0.0,0.0,0.0,0.0,0.0,0.0,0.0,0.0,0.0,0.0,0.0,0.0,0.0,0.0,0.0,0.0,0.0,0.0,0.0,0.0,0.0,0.0,0.0,0.0,0.0,0.0,0.0,0.0,0.0,0.0,0.0,0.0,0.0,0.0,0.0,0.0,0.0,0.0,0.0,0.0,0.0,0.0,0.0,0.0,0.0,0.0,0.0,0.0,0.0,0.0,0.0,0.0,0.0,0.0,0.0,0.0,0.0,0.0,0.0,0.0,0.0,0.0,0.0,0.0,0.0,0.0,0.0,0.0,0.0,0.0,0.0,0.0,0.0,0.0,0.0,0.0,0.0,0.0,0.0,0.0,0.0,0.0,0.0,0.0,0.0,0.0,0.0,0.0,0.0,0.0,0.0,0.0,0.0,0.0,0.0,0.0,0.0,0.0,0.0,0.0,0.0,0.0,0.0,0.0,0.0,0.0,0.0,0.0,0.0,0.0,0.0,0.0,0.0,0.0,0.0,0.0,0.0,0.0,0.0,0.0,0.0,0.0,0.0,0.0,0.0,0.0,0.0,0.0,0.0,0.0,0.0,0.0,0.0,0.0,0.0,0.0,0.0,0.0,0.0,0.0,0.0,0.0,0.0,0.0,0.0,0.0,0.0,0.0,0.0,0.0,0.0,0.0,0.0,0.0,0.0,0.0,0.0,0.0,0.0,0.0,0.0,0.0,0.0,0.0,0.0,0.0,0.0,0.0,0.0,0.0,0.0,0.0,0.0,0.0,0.0,0.0,0.0,0.0,0.0,0.0,0.0,0.0,0.0,0.0,0.0,0.0,0.0,0.0,0.0,0.0,0.0,0.0,0.0,0.0,0.0,0.0,0.0,0.0,0.0,0.0,0.0,0.0,0.0,0.0,0.0,0.0,0.0,0.0,0.0,0.0,0.0,0.0,0.0,0.0,0.0,0.0,0.0,0.0,0.0,0.0,0.0,0.0,0.0,0.0,0.0,0.0,0.0,0.0,0.0,0.0,0.0,0.0,0.0,0.0,0.0,0.0,0.0,0.0,0.0,0.0,0.0,0.0,0.0,0.0,0.0,0.0,0.0,0.0,0.0,0.0,0.0,0.0,0.0,0.0,0.0,0.0,0.0,0.0,0.0,0.0,0.0,0.0,0.0,0.0,0.0,0.0,0.0,0.0,0.0,0.0,0.0,0.0,0.0,0.0,0.0,0.0,0.0,0.0,0.0,0.0,0.0,0.0,0.0,0.0,0.0,0.0,0.0,0.0,0.0,0.0,0.0,0.0,0.0,0.0,0.0,0.0,0.0,0.0,0.0,0.0,0.0,0.0,0.0,0.0,0.0,0.0,0.0,0.0,0.0,0.0,0.0,0.0,0.0,0.0,0.0,0.0,0.0,0.0,0.0,0.0,0.0,0.0,0.0,0.0,0.0,0.0,0.0,0.0,0.0,0.0,0.0,0.0,0.0,0.0,0.0,0.0,0.0,0.0,0.0,0.0,0.0,0.0,0.0,0.0,0.0,0.0,0.0,0.0,0.0,0.0,0.0,0.0,0.0,0.0,0.0,0.0,0.0,0.0,0.0,0.0,0.0,0.0,0.0,0.0,0.0,0.0,0.0,0.0,0.0,0.0,0.0,0.0,0.0,0.0,0.0,0.0,0.0,0.0,0.0,0.0,0.0,0.0,0.0,0.0,0.0,0.0,0.0,0.0,0.0,0.0,0.0,0.0,0.0,0.0,0.0,0.0,0.0,0.0,0.0,0.0,0.0,0.0,0.0,0.0,0.0,0.0,0.0,0.0,0.0,0.0,0.0,0.0,0.0,0.0,0.0,0.0,0.0,0.0,0.0,0.0,0.0,0.0,0.0,0.0,0.0,0.0,0.0,0.0,0.0,0.0,0.0,0.0,0.0,0.0,0.0,0.0,0.0,0.0,0.0,0.0,0.0,0.0,0.0,0.0,0.0,0.0,0.0,0.0,0.0,0.0,0.0,0.0,0.0,0.0,0.0,0.0,0.0,0.0,0.0,0.0,0.0,0.0,0.0,0.0,0.0,0.0,0.0,0.0,0.0,0.0,0.0,0.0,0.0,0.0,0.0,0.0,0.0,0.0,0.0,0.0,0.0,0.0,0.0,0.0,0.0,0.0,0.0,0.0,0.0,0.0,0.0,0.0,0.0,0.0,0.0,0.0,0.0,0.0,0.0,0.0,0.0,0.0,0.0,0.0,0.0,0.0,0.0,0.0,0.0,0.0,0.0,0.0,0.0,0.0,0.0,0.0,0.0,0.0,0.0,0.0,0.0,0.0,0.0,0.0,0.0,0.0,0.0,0.0,0.0,0.0,0.0,0.0,0.0,0.0,0.0,0.0,0.0,0.0,0.0,0.0,0.0,0.0,0.0,0.0,0.0,0.0,0.0,0.0,0.0,0.0,0.0,0.0,0.0,0.0,0.0,0.0,0.0,0.0,0.0,0.0,0.0,0.0,0.0,0.0,0.0,0.0,0.0,0.0,0.0,0.0,0.0,0.0,0.0,0.0,0.0,0.0,0.0,0.0,0.0,0.0,0.0,0.0,0.0,0.0,0.0,0.0,0.0,0.0,0.0,0.0,0.0,0.0,0.0,0.0,0.0,0.0,0.0,0.0,0.0,0.0,0.0,0.0,0.0,0.0,0.0,0.0,0.0,0.0,0.0,0.0,0.0,0.0,0.0,0.0,0.0,0.0,0.0,0.0,0.0,0.0,0.0,0.0,0.0,0.0,0.0,0.0,0.0,0.0,0.0,0.0,0.0,0.0,0.0,0.0,0.0,0.0,0.0,0.0,0.0,0.0,0.0,0.0,0.0,0.0,0.0,0.0,0.0,0.0,0.0,0.0,0.0,0.0,0.0,0.0,0.0,0.0,0.0,0.0,0.0,0.0,0.0,0.0,0.0,0.0,0.0,0.0,0.0,0.0,0.0,0.0,0.0,0.0,0.0,0.0,0.0,0.0,0.0,0.0,0.0,0.0,0.0,0.0,0.0,0.0,0.0,0.0,0.0,0.0,0.0,0.0,0.0,0.0,0.0,0.0,0.0,0.0,0.0,0.0,0.0,0.0,0.0,0.0,0.0,0.0,0.0,0.0,0.0,0.0,0.0,0.0,0.0,0.0,0.0,0.0,0.0,0.0,0.0,0.0,0.0,0.0,0.0,0.0,0.0,0.0,0.0,0.0,0.0,0.0,0.0,0.0,0.0,0.0,0.0,0.0,0.0,0.0,0.0,0.0,0.0,0.0,0.0,0.0,0.0,0.0,0.0,0.0,0.0,0.0,0.0,0.0,0.0,0.0,0.0,0.0,0.0,0.0,0.0,0.0,0.0,0.0,0.0,0.0,0.0,0.0,0.0,0.0,0.0,0.0,0.0,0.0,0.0,0.0,0.0,0.0,0.0,0.0,0.0,0.0,0.0,0.0,0.0,0.0,0.0,0.0,0.0,0.0,0.0,0.0,0.0,0.0,0.0,0.0,0.0,0.0,0.0,0.0,0.0,0.0,0.0,0.0,0.0,0.0,0.0,0.0,0.0,0.0,0.0,0.0,0.0,0.0,0.0,0.0,0.0,0.0,0.0,0.0,0.0,0.0,0.0,0.0,0.0,0.0,0.0,0.0,0.0,0.0,0.0,0.0,0.0,0.0,0.0,0.0,0.0,0.0,0.0,0.0,0.0,0.0,0.0,0.0,0.0,0.0,0.0,0.0,0.0,0.0,0.0,0.0,0.0,0.0,0.0,0.0,0.0,0.0,0.0,0.0,0.0,0.0,0.0,0.0,0.0,0.0,0.0,0.0,0.0,0.0,0.0,0.0,0.0,0.0,0.0,0.0,0.0,0.0,0.0,0.0,0.0,0.0,0.0,0.0,0.0,0.0,0.0,0.0,0.0,0.0,0.0,0.0,0.0,0.0,0.0,0.0,0.0,0.0,0.0,0.0,0.0,0.0,0.0,0.0,0.0,0.0,0.0,0.0,0.0,0.0,0.0,0.0,0.0,0.0,0.0,0.0,0.0,0.0,0.0,0.0,0.0,0.0,0.0,0.0,0.0,0.0,0.0,0.0,0.0,0.0,0.0,0.0,0.0,0.0,0.0,0.0,0.0,0.0,0.0,0.0,0.0,0.0,0.0,0.0,0.0,0.0,0.0,0.0,0.0,0.0,0.0,0.0,0.0,0.0,0.0,0.0,0.0,0.0,0.0,0.0,0.0,0.0,0.0,0.0,0.0,0.0,0.0,0.0,0.0,0.0,0.0,0.0,0.0,0.0,0.0,0.0,0.0,0.0,0.0,0.0,0.0,0.0,0.0,0.0,0.0,0.0,0.0,0.0,0.0,0.0,0.0,0.0,0.0,0.0,0.0,0.0,0.0,0.0,0.0,0.0,0.0,0.0,0.0,0.0,0.0,0.0,0.0,0.0,0.0,0.0,0.0,0.0,0.0,0.0,0.0,0.0,0.0,0.0,0.0,0.0,0.0,0.0,0.0,0.0,0.0,0.0,0.0,0.0,0.0,0.0,0.0,0.0,0.0,0.0,0.0,0.0,0.0,0.0,0.0,0.0,0.0,0.0,0.0,0.0,0.0,0.0,0.0,0.0,0.0,0.0,0.0,0.0,0.0,0.0,0.0,0.0,0.0,0.0,0.0,0.0,0.0,0.0,0.0,0.0,0.0,0.0,0.0,0.0,0.0,0.0,0.0,0.0,0.0,0.0,0.0,0.0,0.0,0.0,0.0,0.0,0.0,0.0,0.0,0.0,0.0,0.0,0.0,0.0,0.0,0.0,0.0,0.0,0.0,0.0,0.0,0.0,0.0,0.0,0.0,0.0,0.0,0.0,0.0,0.0,0.0,0.0,0.0,0.0,0.0,0.0,0.0,0.0,0.0,0.0,0.0,0.0,0.0,0.0,0.0,0.0,0.0,0.0,0.0,0.0,0.0,0.0,0.0,0.0,0.0,0.0,0.0,0.0,0.0,0.0,0.0,0.0,0.0,0.0,0.0,0.0,0.0,0.0,0.0,0.0,0.0,0.0,0.0,0.0,0.0,0.0,0.0,0.0,0.0,0.0,0.0,0.0,0.0,0.0,0.0,0.0,0.0,0.0,0.0,0.0,0.0,0.0,0.0,0.0,0.0,0.0,0.0,0.0,0.0,0.0,0.0,0.0,0.0,0.0,0.0,0.0,0.0,0.0,0.0,0.0,0.0,0.0,0.0,0.0,0.0,0.0,0.0,0.0,0.0,0.0,0.0,0.0,0.0,0.0,0.0,0.0,0.0,0.0,0.0,0.0,0.0,0.0,0.0,0.0,0.0,0.0,0.0,0.0,0.0,0.0,0.0,0.0,0.0,0.0,0.0,0.0,0.0,0.0,1.9316,1.8208,0.0,0.0,0.0,0.0,0.0,0.0,0.0,0.0,0.0,0.0,0.0,0.0,0.0,0.0,0.0,0.0,0.0,0.0,0.0,0.0,0.0,0.0,0.0,0.5642,0.5982,0.5974,0.6284,0.6671,0.708,0.0,0.0,0.0,0.0,0.0,0.6221,0.602,0.5742,0.5375,0.5249,0.5117,0.5017,0.503,0.4763,0.4294,0.0,0.0,0.0,0.0,0.0,0.0,0.0,0.0,0.0,0.0,0.0,0.0,0.0,0.0,0.0,0.0,0.0,0.0,0.0,0.0,0.0,0.0,0.0,0.0,0.0,0.0,0.0,0.0,0.0,0.0,0.0,0.0,0.0,0.0,0.0,0.0,0.0,0.0,0.0,0.0,0.0,0.0,0.0,0.0,0.0,0.0,0.0,0.0,0.0,0.0,0.0,0.0,0.0,0.0,0.0,0.0,0.0,0.0,0.0,0.0,0.0,0.0,0.0,0.0,0.0,0.0,0.0,0.0,0.0,0.0,2.1823,2.0918,0.0,0.0,0.0,0.0,0.0,0.0,0.0,0.0,0.0,0.0,0.0,0.0,0.0,0.0,0.0,0.0,0.0,0.0,0.0,0.0,0.0,0.5076,0.4771,0.5353,0.5623,0.5285,0.5793,0.6229,0.6412,0.6538,0.0,0.0,0.0,0.6019,0.5806,0.5394,0.496,0.453,0.4595,0.468,0.4784,0.4871,0.4831,0.4661,0.4191,0.0,0.0,0.0,0.0,0.0,0.0,0.0,0.0,0.0,0.0,0.0,0.0,0.0,0.0,0.0,0.0,0.0,0.0,0.0,0.0,0.0,0.0,0.0,0.0,0.0,0.0,0.0,0.0,0.0,0.0,0.0,0.0,0.0,0.0,0.0,0.0,0.0,0.0,0.0,0.0,0.0,0.0,0.0,0.0,0.0,0.0,0.0,0.0,0.0,0.0,0.0,0.0,0.0,0.0,0.0,0.0,0.0,0.0,0.0,0.0,0.0,0.0,0.0,1.8703,1.9792,2.0506,2.26,2.4116,2.5054,2.4259,2.4028,2.4141,2.2852,0.0,0.0,0.0,0.0,0.0,0.0,0.0,0.0,0.0,0.0,0.0,0.0,0.0,0.0,0.0,0.0,0.0,0.0,0.0,0.4377,0.4448,0.4454,0.4513,0.4695,0.4693,0.5094,0.6097,0.5738,0.0,0.0,0.5959,0.5405,0.5385,0.4922,0.455,0.4253,0.4555,0.4818,0.5078,0.6101,0.6563,0.6528,0.5811,0.558,0.564,0.0,0.0,0.0,0.0,0.0,0.0,0.0,0.0,0.0,0.0,0.0,0.0,0.0,0.0,0.0,0.0,0.0,0.0,0.0,0.0,0.0,0.0,0.0,0.0,0.0,0.0,0.0,0.0,0.0,0.0,0.0,0.0,0.0,0.0,0.0,0.0,0.0,0.0,0.0,0.0,0.0,1.135,1.2074,0.0,0.0,0.0,0.0,0.0,0.0,0.0,0.0,0.0,0.0,0.0,0.0,0.0,1.7268,1.7583,1.8517,1.9028,1.9082,2.1061,2.2052,2.2199,2.3793,2.5372,2.6783,2.6624,0.0,2.5937,2.4629,0.0,0.0,0.0,0.0,0.0,0.0,0.0,0.0,0.0,0.0,0.0,0.0,0.0,0.0,0.0,0.0,0.0,0.0,0.0,0.0,0.0,0.4196,0.4185,0.4148,0.4476,0.4983,0.5707,0.5719,0.6047,0.6864,0.6031,0.5496,0.5418,0.4986,0.4718,0.4595,0.5002,0.5625,0.6451,0.7112,0.7777,0.8472,0.8638,0.8048,0.6948,0.6802,0.0,0.0,0.0,0.0,0.0,0.0,0.0,0.0,0.0,0.0,0.0,0.0,0.0,0.0,0.0,0.0,0.0,0.0,0.0,0.0,0.0,0.0,0.0,0.0,0.0,0.0,0.0,0.0,0.0,0.0,0.0,0.0,0.0,0.0,0.0,0.0,0.0,0.0,0.0,0.9614,1.1291,1.1634,1.2817,1.3452,0.0,0.0,0.0,0.0,0.0,0.0,0.0,0.0,0.0,1.7843,1.8387,1.8838,1.9208,2.016,2.0663,2.0663,2.1693,2.2706,2.3569,2.4239,2.5459,2.7003,2.7003,2.7434,2.807,2.6987,2.5729,2.4315,0.0,0.0,0.0,0.0,2.2906,2.3752,0.0,0.0,0.0,0.0,0.0,0.0,0.0,0.0,0.0,0.0,0.0,0.0,0.428,0.4173,0.4039,0.3918,0.4368,0.4865,0.5362,0.5708,0.6087,0.6597,0.6,0.5545,0.5287,0.4998,0.4949,0.5142,0.5521,0.6401,0.7696,0.8141,0.9026,1.0259,1.1147,1.0432,0.8532,0.8259,0.7745,0.7044,0.0,0.0,0.0,0.0,0.0,0.0,0.0,0.0,0.0,0.0,0.0,0.0,0.0,0.0,0.0,0.0,0.0,0.0,0.0,0.0,0.0,0.0,0.0,0.0,0.0,0.0,0.0,0.0,0.0,0.0,0.0,0.0,0.0,0.0,0.0,0.0,0.0,0.967,1.0999,1.1244,1.2983,1.3942,0.0,0.0,0.0,0.0,0.0,0.0,1.7208,1.7622,1.8251,1.9025,1.9826,2.0388,2.0681,2.1336,2.1735,2.1735,2.1884,2.2621,2.3768,2.3768,2.4675,2.6264,2.6264,2.7217,2.8818,2.8313,2.7225,2.5786,2.506,2.4332,2.3622,2.4063,2.4811,2.5792,0.0,0.0,0.0,0.0,0.0,0.0,0.0,0.0,0.0,0.0,0.0,0.429,0.4964,0.4311,0.3924,0.4147,0.4097,0.4347,0.5079,0.5385,0.553,0.5575,0.552,0.5277,0.4741,0.4712,0.5051,0.5759,0.5892,0.6722,0.8173,0.9268,1.0431,1.1626,1.2633,1.2248,1.0802,1.054,0.9947,0.9028,0.7719,0.0,0.0,0.0,0.0,0.0,0.0,0.0,0.0,0.0,0.0,0.0,0.0,0.0,0.0,0.0,0.0,0.0,0.0,0.0,0.0,0.0,0.0,0.0,0.0,0.0,0.0,0.0,0.0,0.0,0.0,0.0,0.0,0.0,0.0,0.0,0.0,0.0,0.0,1.1418,1.3133,0.0,0.0,0.0,0.0,1.7045,1.7542,1.8089,1.8771,1.9359,1.9947,2.0548,2.1212,2.1668,2.1897,2.1937,2.1964,2.1964,2.1977,2.2043,2.2109,2.2109,2.3014,2.4531,2.4531,2.5496,2.7071,2.7491,2.7391,2.6888,2.5684,2.3977,2.2269,2.2733,2.3184,2.3638,0.0,0.0,0.0,0.0,0.0,0.4406,0.4315,0.4735,0.4965,0.4718,0.4508,0.4535,0.4923,0.4423,0.418,0.4504,0.4395,0.4588,0.5177,0.5157,0.5319,0.5794,0.5377,0.5055,0.4955,0.5244,0.563,0.6136,0.7071,0.8271,0.963,1.0789,1.1993,1.3265,1.3609,1.3385,1.2621,1.1959,1.1294,1.0523,0.9137,0.7979,0.0,0.0,0.0,0.0,0.0,0.0,0.0,0.0,0.0,0.0,0.0,0.0,0.0,0.0,0.0,0.0,0.0,0.0,0.0,0.0,0.0,0.0,0.0,0.0,0.0,0.0,0.0,0.0,0.0,0.0,0.0,0.0,0.0,0.0,0.0,0.0,0.0,1.0782,1.2636,0.0,1.4785,1.566,1.6884,1.8488,1.8945,1.9519,2.0294,2.0708,2.1109,2.151,2.1911,2.2164,2.2258,2.2645,2.2846,2.2846,2.3046,2.314,2.314,2.314,2.3364,2.3706,2.3706,2.4578,2.5971,2.5896,2.6333,2.6956,2.6489,2.5834,2.5212,2.5386,2.5517,2.5676,0.0,0.0,0.0,0.0,0.4446,0.4537,0.4446,0.4883,0.5142,0.4997,0.5023,0.5132,0.5327,0.4931,0.4661,0.4696,0.458,0.4678,0.5063,0.5014,0.5098,0.5371,0.5024,0.4989,0.5338,0.5698,0.6078,0.6485,0.745,0.8756,1.0468,1.1367,1.2662,1.4242,1.4335,1.4269,1.4055,1.3454,1.2625,1.1615,1.047,0.96,0.8793,0.0,0.0,0.0,0.0,0.0,0.0,0.0,0.0,0.0,0.0,0.0,0.0,0.0,0.0,0.0,0.0,0.0,0.0,0.0,0.0,0.0,0.0,0.0,0.0,0.0,0.0,0.0,0.0,0.0,0.0,0.0,0.0,0.0,0.0,0.8777,0.9941,1.0008,1.2015,1.3603,1.4256,1.5801,1.7422,1.8996,2.0003,2.0788,2.1376,2.1683,2.1977,2.2271,2.2565,2.2766,2.2873,2.3273,2.3474,2.3474,2.3674,2.3768,2.3768,2.3768,2.3661,2.3474,2.3474,2.3983,2.4746,2.4463,2.4856,2.5562,2.5911,2.5689,2.5239,2.5239,2.5239,2.5209,0.0,0.0,0.0,0.4295,0.4736,0.501,0.4754,0.4999,0.5412,0.6034,0.6026,0.6023,0.6182,0.5748,0.5262,0.4731,0.458,0.4552,0.468,0.4946,0.4815,0.424,0.4558,0.5067,0.58,0.5932,0.6296,0.6883,0.6939,0.8209,1.0539,1.0981,1.2336,1.4462,1.483,1.5008,1.5008,1.5008,1.4003,1.2331,1.173,1.095,1.0056,0.0,0.0,0.0,0.0,0.0,0.0,0.0,0.0,0.0,0.0,0.0,0.0,0.0,0.0,0.0,0.0,0.0,0.0,0.0,0.0,0.0,0.0,0.0,0.0,0.0,0.0,0.0,0.0,0.0,0.0,0.0,0.0,0.0,0.7621,0.844,0.9022,0.9228,1.1269,1.2524,1.2293,1.5919,1.8396,1.8536,2.0668,2.1938,2.2004,2.2285,2.2579,2.2873,2.318,2.3474,2.3768,2.3781,2.3781,2.3781,2.3794,2.3794,2.3794,2.3794,2.3794,2.3781,2.3781,2.3621,2.334,2.3327,2.3153,2.3024,2.3991,2.342,2.2017,2.2017,2.2004,2.2004,0.0,0.0,0.4076,0.4264,0.4577,0.4905,0.5165,0.5213,0.544,0.6151,0.5634,0.5388,0.5849,0.522,0.4741,0.4709,0.458,0.4552,0.468,0.4545,0.4524,0.4692,0.5223,0.5698,0.6163,0.6383,0.6654,0.6883,0.7965,0.8852,0.9571,1.1576,1.2823,1.3464,1.4507,1.5008,1.5008,1.5008,1.4727,1.4162,1.336,1.2472,1.1566,0.0,0.0,0.0,0.0,0.0,0.0,0.0,0.0,0.0,0.0,0.0,0.0,0.0,0.0,0.0,0.0,0.0,0.0,0.0,0.0,0.0,0.0,0.0,0.0,0.0,0.0,0.0,0.0,0.0,0.0,0.0,0.593,0.6783,0.8243,0.911,0.968,0.9937,1.0721,1.1765,1.3028,1.4191,1.6028,1.8789,1.9783,2.0864,2.2231,2.2792,2.3113,2.3193,2.3487,2.3688,2.3768,2.3981,2.4088,2.4088,2.4302,2.4396,2.4396,2.4396,2.4289,2.4088,2.4088,2.3915,2.3634,2.342,2.3273,2.3236,2.3311,2.3011,2.2619,2.2619,2.2485,2.2298,0.0,0.389,0.4142,0.4416,0.4686,0.5033,0.5497,0.5509,0.5785,0.6727,0.6362,0.6057,0.6127,0.5686,0.5187,0.4731,0.458,0.4552,0.468,0.4564,0.4672,0.5087,0.5616,0.6037,0.6381,0.6641,0.6871,0.697,0.7916,0.8623,0.9156,1.14,1.271,1.3227,1.4694,1.5324,1.5324,1.5324,1.5257,1.5097,1.4589,1.3921,1.3107,1.1885,1.1293,1.0841,0.8942,0.7936,0.7367,0.6278,0.0,0.0,0.0,0.0,0.0,0.0,0.0,0.0,0.0,0.0,0.0,0.0,0.0,0.0,0.0,0.0,0.0,0.0,0.0,0.0,0.0,0.0,0.0,0.0,0.5719,0.6749,0.9045,0.9741,1.01,1.0337,1.0636,1.1182,1.2269,1.3273,1.4683,1.6916,1.8788,2.0367,2.1521,2.271,2.3447,2.3688,2.3861,2.4008,2.4128,2.4302,2.4382,2.4382,2.4556,2.4636,2.4636,2.4636,2.4543,2.4382,2.4382,2.4222,2.3941,2.3768,2.3554,0.0,0.0,0.0,0.0,0.0,2.2752,2.2605,0.0,0.4132,0.4416,0.4656,0.4913,0.5273,0.5792,0.5789,0.6186,0.7461,0.7492,0.7209,0.6617,0.6514,0.5981,0.4797,0.4566,0.4559,0.4707,0.4877,0.5108,0.5453,0.5847,0.622,0.6559,0.693,0.7194,0.734,0.7545,0.817,0.9224,1.0931,1.2262,1.3309,1.5038,1.5784,1.5784,1.5784,1.5685,1.5444,1.5444,1.5097,1.4456,1.34,1.2971,1.2747,1.1166,0.974,0.8478,0.7686,0.0,0.0,0.0,0.0,0.0,0.0,0.0,0.0,0.0,0.0,0.0,0.0,0.0,0.0,0.0,0.0,0.0,0.0,0.0,0.0,0.0,0.0,0.0,0.0,0.5342,0.6569,0.9862,1.0317,1.0385,1.0527,1.0785,1.0894,1.0927,1.2735,1.3952,1.4178,1.7506,1.9772,2.0427,0.0,0.0,0.0,0.0,2.4382,2.4636,2.4636,2.4636,2.4636,2.4636,2.4636,2.4636,2.4636,2.4636,2.4636,2.4636,2.4489,2.4249,2.4222,2.3875,2.334,2.2993,2.2928,2.2928,2.2928,2.2928,2.2928,0.0,0.4285,0.4636,0.4686,0.4913,0.537,0.6172,0.5739,0.5902,0.7539,0.6909,0.6293,0.6278,0.5935,0.5399,0.4615,0.4505,0.4607,0.4857,0.5128,0.546,0.5881,0.6213,0.6532,0.6831,0.7915,0.862,0.889,0.8934,0.9181,0.9708,1.1183,1.1976,1.2314,1.4734,1.5784,1.5784,1.5784,1.5744,1.5704,1.5704,1.5391,1.4874,1.4362,1.4028,1.3692,1.2249,1.0946,0.9666,0.8577,0.7352,0.5912,0.3852,0.3612,0.0,0.0,0.0,0.0,0.0,0.0,0.0,0.0,0.0,0.0,0.0,0.0,0.0,0.0,0.0,0.0,0.0,0.0,0.0,0.6531,0.7251,0.8171,1.0161,1.0555,1.069,1.0846,1.0847,1.1043,1.128,1.1706,1.2622,1.4223,1.5194,1.7102,2.0368,2.121,2.2383,2.4123,2.4436,2.4583,2.4636,2.4636,2.4636,2.4636,0.0,0.0,2.4636,2.4636,2.4636,2.4636,2.4636,2.4609,2.4529,2.4302,2.3995,2.3634,2.3073,2.2928,2.2928,2.2928,2.2928,2.2928,0.4107,0.4416,0.4736,0.4874,0.5212,0.5664,0.6309,0.6262,0.6553,0.7664,0.7272,0.6692,0.6155,0.5898,0.5345,0.4344,0.4402,0.4648,0.4968,0.5304,0.5713,0.6125,0.6972,0.7548,0.7808,0.9095,0.9895,1.019,1.0259,1.0464,1.0763,1.2224,1.2909,1.3006,1.4949,1.5784,1.5784,1.5784,1.5784,1.5784,1.5784,1.5658,1.5364,1.507,1.4776,1.4439,1.3621,1.2475,1.1217,0.9849,0.8541,0.7064,0.4877,0.4461,0.4458,0.0,0.0,0.0,0.0,0.0,0.0,0.0,0.0,0.0,0.0,0.0,0.0,0.0,0.0,0.4409,0.0,0.0,0.487,0.7387,0.7917,0.8604,1.032,1.067,1.0778,1.086,1.1016,1.1145,1.1369,1.1457,1.1916,1.2994,1.4091,1.6094,1.9203,2.055,2.2178,2.4336,2.4556,2.4636,2.4636,2.4636,2.4636,2.4636,2.4636,2.4636,2.4636,2.4636,2.4636,2.4636,2.4636,2.4636,2.4609,2.4329,2.4115,2.3941,2.35,2.3233,2.3073,2.2926,2.2928,2.2928,0.4295,0.4596,0.494,0.5185,0.561,0.6038,0.6477,0.6855,0.7196,0.7579,0.7662,0.7243,0.6135,0.6093,0.5619,0.4332,0.4522,0.4839,0.5148,0.546,0.5847,0.6368,0.7684,0.8512,0.8743,1.0264,1.1182,1.1502,1.1643,1.1827,1.2152,1.3349,1.392,1.3968,1.5248,1.5784,1.5784,1.5784,1.5784,1.5784,1.5784,1.5784,1.5758,1.5565,1.5271,1.4981,1.4696,1.3676,1.224,1.0889,0.9526,0.8024,0.5829,0.5283,0.5202,0.3821,0.4128,0.0,0.0,0.0,0.0,0.0,0.0,0.0,0.0,0.0,0.6453,0.4465,0.5328,0.5885,0.402,0.4874,0.6496,0.8214,0.848,0.905,1.0498,1.0717,1.0778,1.086,1.1077,1.1233,1.1416,1.1545,1.1681,1.1823,1.3306,1.5207,1.7615,1.9615,2.1686,2.3944,2.4401,2.4636,2.4636,2.4636,2.4636,2.4636,2.4636,2.4636,2.4636,2.4636,2.4636,2.4636,2.4636,2.4636,2.4549,2.4382,2.4289,2.4262,2.3968,2.3714,2.346,2.3153,2.3046,2.3102,0.0,0.4893,0.5471,0.5687,0.6012,0.643,0.6947,0.7018,0.6999,0.7,0.7164,0.6947,0.6085,0.6429,0.6232,0.5071,0.5286,0.5449,0.537,0.561,0.6037,0.6627,0.7771,0.8572,0.8852,1.127,1.2671,1.2983,1.309,1.3344,1.3634,1.3813,1.392,1.3968,1.5248,1.5784,1.5784,1.5784,1.5784,1.5784,1.5784,1.5784,1.5784,1.5792,1.5444,1.5008,1.4968,1.3671,1.1808,1.0899,0.9624,0.8048,0.6014,0.5967,0.6405,0.4934,0.515,0.5841,0.5795,0.6096,0.6519,0.6876,0.6984,0.724,0.0,0.0,0.7846,0.6858,0.6842,0.7069,0.72,0.7505,0.8284,0.9916,1.0326,1.0498,1.0651,1.0717,1.0778,1.086,1.1077,1.1274,1.1565,1.1606,1.1681,1.1823,1.2181,1.3357,1.5544,1.7745,1.9833,2.19,2.3648,2.4636,2.4636,2.4636,2.4636,2.4636,2.4636,2.4636,2.4636,2.4636,2.4636,2.4636,2.4636,2.4636,2.4636,2.4596,2.4596,2.4556,2.4262,2.4128,2.4075,2.3781,2.3674,2.3634,0.0,0.5069,0.5701,0.6374,0.6703,0.6985,0.7338,0.7613,0.7545,0.6983,0.6972,0.6655,0.5697,0.565,0.5513,0.5031,0.5175,0.5506,0.5958,0.578,0.6162,0.7306,0.8675,0.958,0.987,1.2322,1.3773,1.4276,1.4287,1.4566,1.4997,1.4997,1.4997,1.5045,1.5581,1.5784,1.5784,1.5784,1.5784,1.5784,1.5784,1.5784,1.5758,1.5645,1.5217,1.471,1.471,1.4047,0.0,1.0856,0.9876,0.9081,0.6943,0.6541,0.6757,0.6083,0.6223,0.6694,0.695,0.7095,0.7238,0.7685,0.7929,0.8194,0.8723,0.8879,0.8637,0.7498,0.8147,0.8779,0.807,0.8828,0.9829,0.0,1.0677,1.0717,1.0717,1.0717,1.0778,1.086,1.1002,1.1158,1.1457,1.1484,1.1619,1.1938,1.2026,1.3049,1.5329,1.6326,1.827,2.1527,2.2434,2.3426,2.4562,2.4636,2.4636,2.4636,2.4636,2.4636,2.4636,2.4636,2.4636,2.4636,2.4636,2.4636,2.4636,2.4636,2.4636,2.4623,2.4502,2.4449,2.4396,2.3941,2.3768,2.3754,0.0,0.5254,0.6103,0.6977,0.7496,0.7791,0.7795,0.8156,0.8042,0.693,0.6852,0.6586,0.5738,0.5553,0.5438,0.5309,0.551,0.5918,0.6542,0.6334,0.6635,0.7713,0.9508,1.0479,1.0547,1.2936,1.4416,1.4843,1.5048,1.5297,1.5712,1.5792,1.5784,1.5784,1.5784,1.5784,1.5784,1.5784,1.5784,1.5784,1.5784,1.5778,1.5671,1.5391,1.4856,1.4239,1.4239,1.3988,1.3183,1.0563,0.9777,0.9519,0.7401,0.6803,0.6858,0.6831,0.7034,0.728,0.7611,0.7733,0.7882,0.8289,0.8648,0.8947,0.908,0.9381,0.9347,0.8447,0.9355,1.0057,0.8944,0.9845,1.0717,1.0717,1.0758,1.0765,1.0724,1.0758,1.0806,1.0806,1.082,1.0921,1.1246,1.1341,1.1579,1.2026,1.2135,1.286,1.4613,1.5234,1.6828,1.9854,2.0991,2.2285,2.3722,2.4327,2.4636,2.4636,2.4636,2.4636,2.4636,2.4636,2.4636,2.4636,2.4636,2.4636,2.4636,2.4636,2.4636,2.4636,2.4636,2.4636,2.4583,2.4168,2.4008,2.3995,0.0,0.0,0.684,0.7383,0.8356,0.8863,0.8353,0.8557,0.8227,0.67,0.6738,0.6815,0.6584,0.6786,0.6778,0.6395,0.6781,0.7047,0.7091,0.7441,0.7619,0.7592,0.99,1.0914,1.0439,1.3065,1.4522,1.4536,1.511,1.5391,1.5418,1.5698,1.5784,1.5784,1.5784,1.5784,1.5784,1.5784,1.5784,1.5784,1.5784,1.5658,1.5378,1.5129,1.4429,1.3626,1.3626,1.3067,1.2009,0.9842,0.9129,0.8789,0.6933,0.6478,0.0,0.6997,0.7346,0.7556,0.7467,0.7856,0.8323,0.8621,0.9028,0.9435,0.9727,0.9856,1.0051,1.0341,1.048,1.0534,1.0617,1.0651,1.0717,1.0717,1.0779,1.0826,1.0744,1.0779,1.082,1.0744,1.0724,1.0785,0.0,1.1226,1.1579,1.2026,1.2135,1.2265,1.2565,1.4475,1.554,1.5693,1.9553,2.1601,2.1676,2.3648,2.4636,2.4636,2.4636,2.4636,2.4636,2.4636,2.4636,2.4636,2.4636,2.4636,2.4636,2.4636,2.4636,2.4636,2.4636,2.4636,2.4636,2.4549,2.4609,2.4569,0.0,0.0,0.0,0.7815,0.8585,0.901,0.867,0.8731,0.834,0.7056,0.6674,0.0,0.0,0.0,0.0,0.0,0.6717,0.7064,0.7472,0.6987,0.7058,0.7822,0.8636,0.934,0.9917,1.1875,1.3341,1.4229,1.4629,1.491,1.5156,1.5204,1.5257,1.5257,1.5458,1.5538,1.5538,1.5538,1.5658,1.5744,1.5404,1.5311,1.5337,1.4856,1.4001,1.3038,0.0,1.1853,1.0785,0.9082,0.824,0.7706,0.6484,0.6247,0.6505,0.695,0.736,0.7672,0.8018,0.833,0.8682,0.9184,0.949,0.9774,1.0175,1.0304,1.0371,1.0473,1.0419,1.0365,1.0419,1.0426,1.046,1.0555,1.0778,1.0826,1.0744,1.0934,1.0995,1.0751,1.0812,0.0,0.0,0.0,0.0,1.1735,1.1857,1.204,1.2345,1.3055,1.4099,1.5463,1.8194,2.023,2.1601,2.3574,2.4636,2.4636,2.4636,2.4636,2.4636,2.4636,2.4636,2.4636,2.4636,2.4636,2.4636,2.4636,2.4636,2.4636,2.4636,2.4636,2.4636,2.4636,2.4636,2.4623,0.0,0.0,0.0,0.0,0.0,0.0,0.0,0.0,0.0,0.0,0.0,0.0,0.0,0.0,0.0,0.0,0.0,0.7315,0.7918,0.7451,0.7349,0.7798,0.8299,0.8626,0.8842,1.0313,1.156,1.2538,1.2812,1.3307,1.396,1.4107,1.4335,1.4713,1.495,1.5084,1.5084,1.5084,1.519,1.5311,1.4723,1.4536,1.4549,1.3948,1.3053,0.0,1.1484,1.0405,0.915,0.8214,0.7554,0.7004,0.6186,0.6274,0.677,0.7109,0.7516,0.7943,0.8431,0.875,0.9069,0.9564,0.9876,1.012,1.0365,1.0453,1.0446,1.0283,1.0181,1.01,1.0053,0.9998,1.0059,1.0365,1.0622,1.0785,1.0799,1.1009,1.109,1.09,1.0921,1.09,0.0,0.0,0.0,1.1592,1.1803,1.2026,1.2277,1.2427,1.3112,1.4406,1.7132,1.9252,2.0542,2.3264,2.4636,2.4636,2.4636,2.4636,2.4636,2.4636,2.4636,2.4636,2.4636,2.4636,2.4636,2.4636,2.4636,2.4636,2.4636,2.4636,2.4636,2.4636,2.4636,2.4636,0.0,0.0,0.0,0.0,0.0,0.0,0.0,0.0,0.0,0.0,0.0,0.0,0.0,0.0,0.0,0.0,0.0,0.0,0.8322,0.8605,0.8364,0.7552,0.8671,0.869,0.734,0.8551,0.9342,0.9633,0.9991,1.0818,1.2052,1.2344,1.3024,1.4001,1.4295,1.4429,1.4429,1.4429,1.4429,1.4376,1.3746,1.3347,1.308,1.2478,1.1717,1.0875,1.0314,0.8903,0.7339,0.731,0.7117,0.6757,0.6058,0.6552,0.7426,0.7453,0.789,0.837,0.8676,0.9076,0.949,0.9781,1.0168,1.0446,1.031,1.0371,1.0331,0.989,0.9788,0.9734,0.0,0.0,0.9571,1.0154,1.0399,1.0616,1.084,1.1084,1.1248,0.0,0.0,0.0,0.0,0.0,0.0,1.1606,0.0,1.2121,1.2284,1.2427,1.2501,1.2501,1.6447,1.8572,1.8572,2.2583,2.4636,2.4636,2.4636,2.4636,2.4636,2.4636,2.4636,2.4636,2.4636,2.4636,2.4636,2.4636,2.4636,2.4636,2.4636,2.4636,2.4636,2.4636,2.4636,2.4636,0.0,0.0,0.0,0.0,0.0,0.0,0.0,0.0,0.0,0.0,0.0,0.0,0.0,0.0,0.0,0.0,0.0,0.0,0.7705,0.7797,0.7746,0.7516,0.7199,0.7229,0.7594,0.7745,0.8226,0.9029,0.9371,1.0078,1.1143,1.1215,1.1816,1.2772,1.3105,1.3239,1.3239,1.3239,1.3239,1.3186,1.2596,1.2278,1.2208,1.1797,1.1102,1.0327,1.0167,0.9191,0.7919,0.7561,0.0,0.0,0.0,0.698,0.7508,0.7958,0.8384,0.8859,0.9266,0.9625,0.9951,1.0249,1.0331,1.0324,1.029,1.0127,0.9897,0.9564,0.932,0.906,0.8967,0.9184,0.9469,0.9734,1.0371,0.0,1.0873,1.1267,0.0,1.1192,0.0,1.1416,1.1341,1.1531,0.0,0.0,1.185,1.2006,1.2277,1.2427,1.2501,1.2501,1.6447,1.8572,1.8572,2.2583,2.4636,2.4636,2.4636,2.4636,2.4636,2.4636,2.4636,2.4636,2.4636,2.4636,2.4636,2.4636,2.4636,2.4636,2.4636,2.4636,2.4636,2.4636,2.4636,2.4636,0.0,0.0,0.0,0.0,0.0,0.0,0.0,0.0,0.0,0.0,0.0,0.0,0.0,0.0,0.0,0.0,0.0,0.0,0.0,0.7729,0.7603,0.7411,0.7048,0.6837,0.6739,0.667,0.678,0.7085,0.7352,0.8199,0.9559,0.9559,1.042,1.1978,1.2014,1.2186,1.2422,1.2114,1.2007,0.0,0.0,1.1102,1.1076,1.0768,1.0274,0.9724,0.9886,0.9272,0.0,0.0,0.0,0.6831,0.7197,0.7563,0.795,0.8425,0.0,0.93,0.9618,0.9964,1.0283,1.0453,1.0432,1.0304,1.0046,0.9802,0.9469,0.8906,0.8662,0.8447,0.8343,0.8635,0.9028,0.9442,0.0,0.0,1.0995,1.126,1.143,0.0,1.1552,0.0,1.1681,1.1837,1.1959,0.0,1.2033,1.2108,1.2284,1.2427,1.2501,1.2501,1.5616,1.8118,1.993,2.3042,2.4636,2.4636,2.4636,2.4636,2.4636,2.4636,2.4636,2.4636,2.4636,2.4636,2.4636,2.4636,2.4636,2.4636,2.4636,2.4636,2.4636,2.4636,2.4636,2.4636,0.0,0.0,0.0,0.0,0.0,0.0,0.0,0.0,0.0,0.0,0.0,0.0,0.0,0.0,0.0,0.0,0.0,0.0,0.0,0.0,0.0,0.7456,0.7614,0.7063,0.5683,0.5735,0.5471,0.4857,0.504,0.6084,0.7899,0.808,0.9343,1.1475,1.1103,1.1311,1.1904,1.1164,1.086,1.0843,1.0278,1.0003,0.995,0.0,0.0,0.9283,0.9517,0.0,0.0,0.0,0.7924,0.7333,0.7952,0.8346,0.8608,0.8954,0.9347,0.97,0.9863,1.0209,1.0514,1.0493,1.046,1.0276,0.9686,0.9388,0.8994,0.8103,0.7914,0.7853,0.7753,0.8024,0.8499,0.9211,0.0,1.0374,1.1125,1.1199,1.1375,1.1782,1.1762,1.1809,1.2067,1.2407,1.262,1.2685,1.2692,1.2616,1.2318,1.2433,1.2663,1.2909,1.4669,1.7493,2.162,2.3453,2.4433,2.469,2.4393,2.4367,2.4562,2.4327,2.4341,2.4636,2.4636,2.4636,2.4636,2.4636,2.4636,2.4636,2.4636,2.4636,2.4636,2.4636,2.4636,2.4636,0.0,0.0,0.0,0.0,0.0,0.0,0.0,0.0,0.0,0.0,0.9245,0.8946,0.0,0.0,0.0,0.0,0.0,0.0,0.0,0.0,0.0,0.8213,0.7876,0.7289,0.6426,0.5854,0.5227,0.4566,0.5142,0.6067,0.7293,0.8441,0.9653,1.0857,1.0799,1.1134,1.1668,1.0447,1.0103,1.0392,0.9961,0.9606,0.9377,0.9606,0.0,0.0,0.0,0.0,0.0,0.0,0.7967,0.8083,0.9521,0.9429,0.8967,0.951,0.9754,0.997,1.0304,1.0527,1.0649,1.0521,1.031,1.0033,0.9425,0.8886,0.0,0.7787,0.7577,0.7441,0.724,0.7814,0.8431,0.8933,0.9598,1.0374,1.1125,1.1382,1.1613,0.0,1.2033,1.2196,1.2244,1.3862,0.0,0.0,1.4963,1.4206,1.2538,1.2488,1.3324,1.5155,1.5543,1.7777,2.2159,2.2555,2.3453,2.4997,2.3304,2.3179,2.4562,2.2893,2.3042,2.4636,2.4636,0.0,2.4636,2.4636,2.4636,2.4636,2.4636,2.4636,2.4636,2.4636,2.4636,2.4636,0.0,0.0,0.0,0.0,0.0,0.0,0.0,0.9395,0.9999,1.086,1.0619,1.0322,1.0243,1.0054,0.9922,0.0,0.0,0.0,0.0,0.0,0.0,0.0,0.8332,0.7756,0.6615,0.6358,0.0,0.0,0.0,0.6053,0.0,0.0,0.0,0.0,0.9864,1.0068,1.0647,0.9645,0.933,0.9517,0.9465,0.9337,0.0,0.0,0.0,0.0,0.0,0.0,0.0,0.0,0.8015,0.8096,0.9175,0.9287,0.9137,0.9585,0.9808,1.0038,1.0317,1.0548,1.0683,1.0527,1.0209,0.9935,0.9846,0.0,0.0,0.8163,0.7562,0.7021,0.6984,0.7577,0.0,0.8533,0.915,0.993,1.0697,1.1009,1.1348,1.1891,1.2149,1.2318,1.2393,1.4283,1.5463,1.5463,1.6523,1.6218,1.4176,1.3113,1.312,1.4125,1.5293,1.6939,1.8994,2.01,2.1057,2.1947,2.0935,2.0813,2.1575,2.058,2.1192,2.3042,2.3042,2.3648,2.4636,2.4636,2.4636,2.4636,2.4636,2.4636,2.4636,2.4636,2.4636,2.4636,0.0,0.0,0.0,0.0,0.0,0.0,0.0,1.0078,1.0743,1.1604,1.1721,1.1604,1.1209,1.0723,1.041,0.0,0.0,0.0,0.0,0.0,0.0,0.0,0.0,0.8103,0.6642,0.0,0.0,0.0,0.0,0.0,0.0,0.0,0.0,0.0,0.0,0.0,0.0,0.9368,0.9106,0.0,0.0,0.0,0.0,0.0,0.0,0.0,0.0,0.0,0.0,0.0,0.7685,0.7638,0.8269,0.8974,0.9674,1.0032,1.0293,1.0516,1.0777,1.0774,1.0677,1.0493,1.0107,0.9815,0.9954,0.8967,0.0,0.8228,0.7575,0.6943,0.6851,0.7312,0.7801,0.0,0.877,0.9381,1.0317,1.0656,1.1111,0.0,1.2203,0.0,1.2488,1.4705,0.0,1.6142,1.8118,1.8138,1.5676,1.4205,1.3225,1.282,1.451,1.5616,1.6128,1.771,1.871,1.9133,1.8671,1.8563,1.8822,1.8435,1.9259,2.1076,2.1076,2.2217,2.4126,2.4,2.4271,2.473,2.4663,2.4636,2.4636,2.4636,2.4636,2.4636,0.0,0.0,0.0,0.0,0.0,0.0,0.0,1.0312,1.1172,1.2028,1.2145,1.2125,1.2086,1.1326,1.0767,0.0,0.0,0.0,0.0,0.0,0.0,0.0,0.0,0.0,0.0,0.0,0.0,0.0,0.0,0.0,0.0,0.0,0.0,0.0,0.0,0.0,0.0,0.0,0.0,0.0,0.0,0.0,0.0,0.0,0.0,0.0,0.0,0.0,0.0,0.0,0.0,0.6764,0.7468,0.9188,1.1015,1.1603,0.0,0.0,1.2545,1.1693,1.0656,1.0371,0.9958,0.9429,0.8837,0.0,0.843,0.7147,0.74,0.7652,0.6854,0.6943,0.7434,0.8153,0.0,0.9117,1.0154,1.0772,1.1301,1.1796,0.0,0.0,1.2501,1.5998,1.8345,1.8345,2.0155,1.9725,1.5949,1.5585,1.4806,1.3207,1.3383,1.4423,1.6515,1.676,1.7719,1.9443,1.7547,1.7447,1.8886,1.7081,1.7386,1.9247,1.9247,2.0492,0.0,2.2212,2.3266,2.501,2.4743,2.4636,2.4636,2.4636,2.4636,2.4636,0.0,0.0,0.0,0.0,0.0,0.0,0.9902,1.0527,1.1328,1.2461,1.2379,1.2301,1.2598,1.2047,1.1395,1.066,0.0,0.0,0.0,0.0,0.0,0.0,0.0,0.0,0.0,0.0,0.0,0.0,0.0,0.0,0.0,0.0,0.0,0.0,0.0,0.0,0.0,0.0,0.0,0.0,0.0,0.0,0.0,0.0,0.0,0.0,0.0,0.0,0.0,0.0,0.0,0.0,0.6851,0.8971,0.0,0.0,1.1494,1.1801,1.2333,1.1539,1.0534,1.0331,0.9876,0.9695,1.042,0.9644,0.8782,0.8793,0.829,0.7627,0.686,0.6871,0.7159,0.7773,0.8038,0.8472,0.9347,0.991,1.0527,1.1335,1.1823,0.0,0.0,0.0,1.9629,2.2049,2.3117,2.2561,1.9874,1.7313,1.5718,1.5174,1.391,1.3741,1.4616,1.4698,1.5072,1.5812,1.5011,1.4927,1.5465,1.4677,1.5409,1.7265,1.8524,1.9542,0.0,2.287,2.353,2.3203,2.4223,2.4636,2.4636,2.4636,2.4636,2.4636,0.0,0.0,0.0,0.0,0.0,0.9258,0.998,1.0664,1.1484,1.2539,1.2354,1.2211,1.2545,1.21,1.1398,1.0439,1.0701,0.0,0.0,0.0,0.0,0.0,0.0,0.0,0.0,0.0,0.0,0.5035,0.0,0.0,0.0,0.0,0.0,0.0,0.0,0.0,0.0,0.0,0.0,0.0,0.0,0.0,0.0,0.0,0.0,0.0,0.0,0.0,0.0,0.0,0.0,0.0,0.0,0.0,0.0,0.0,1.1233,1.1788,1.2055,1.1612,1.1018,1.0859,1.0733,1.0884,1.1827,1.0632,0.9327,0.9599,0.8663,0.7586,0.6846,0.679,0.7021,0.7516,0.7719,0.8235,0.9483,1.0077,1.0863,1.2321,0.0,1.3881,1.5843,1.815,2.0951,2.4459,2.4957,2.4618,2.3491,1.9959,1.7536,1.6453,1.5049,1.4052,1.3403,1.3403,1.3403,1.3403,1.3403,1.3342,1.3241,1.3881,1.4541,1.5385,1.8163,1.9352,0.0,2.2862,2.3732,2.2998,2.4175,2.4636,2.4636,2.4636,2.4636,2.4636,0.0,0.0,0.0,0.0,0.0,0.0,0.9534,1.0723,1.1741,1.2145,1.1985,1.1814,1.1814,1.1216,1.0534,0.9858,1.0055,0.0,0.0,0.0,0.0,0.0,0.0,0.0,0.0,0.0,0.654,0.5797,0.6798,0.7674,0.0,0.0,0.0,0.0,0.0,0.0,0.0,0.0,0.0,0.0,0.0,0.0,0.0,0.0,0.0,0.0,0.0,0.0,0.0,0.0,0.0,0.0,0.0,0.0,0.0,0.0,1.155,1.265,1.2125,1.2217,1.2331,1.2078,1.2712,1.3267,1.2374,1.1358,1.0185,0.8726,0.8071,0.7586,0.6846,0.6702,0.6898,0.7502,0.7719,0.8671,1.1109,1.1862,1.2979,0.0,0.0,1.6549,1.7112,1.9812,2.2544,2.49,2.5077,0.0,2.5919,2.3864,2.0783,1.6721,1.6565,1.5514,1.3397,1.3403,1.3403,1.3403,1.3403,1.3403,1.348,1.5589,1.5424,1.3638,1.8037,1.9897,0.0,2.1637,2.3547,2.5375,2.4863,2.4636,2.4636,2.4636,2.4636,2.4636,0.0,0.0,0.0,0.0,0.0,0.0,0.0,0.9904,1.0417,1.115,1.0579,1.0274,1.0788,1.0645,1.0326,0.9843,0.987,0.0,0.0,0.0,0.0,0.0,0.0,0.0,0.0,0.0,0.5864,0.5324,0.6392,0.7346,0.8269,0.8934,0.9431,0.0,0.0,0.0,0.0,0.0,0.0,0.0,0.0,0.0,0.0,0.0,0.0,0.0,0.0,0.0,0.0,0.0,0.0,0.0,0.0,0.0,0.0,0.7839,0.9228,0.0,1.1087,1.1159,1.1159,1.097,1.1783,1.2408,1.1736,1.1055,1.0185,0.8726,0.8165,0.7684,0.6867,0.6783,0.7511,0.9518,0.9912,0.0,1.2953,0.0,0.0,1.5822,1.8293,2.0016,0.0,0.0,2.4074,2.505,2.5264,2.5545,2.601,2.5492,2.3297,1.9004,1.7384,1.5597,1.3397,1.3403,1.3403,1.3403,1.3403,1.3403,1.348,1.5597,1.6237,1.5835,2.022,2.1281,2.0119,2.3225,2.4022,2.3421,2.4253,2.4636,2.4636,2.4636,2.4636,2.477,0.0,0.0,0.0,0.0,0.0,0.0,0.0,0.9581,0.9908,1.0458,0.9724,0.937,0.9955,0.9793,0.9587,0.9429,0.9406,0.0,0.0,0.0,0.0,0.0,0.0,0.0,0.0,0.6076,0.5992,0.5216,0.6639,0.7709,0.8429,0.9117,0.9717,1.0274,1.01,0.0,0.0,0.0,0.0,0.0,0.0,0.0,0.0,0.0,0.0,0.0,0.0,0.0,0.0,0.0,0.0,0.0,0.0,0.0,0.0,0.0,0.7385,0.8807,0.9424,1.0095,1.0604,1.0435,1.1341,1.2123,1.1469,1.0598,0.9644,0.8539,0.7853,0.7428,0.736,0.7483,0.834,1.0674,1.1035,1.1953,0.0,0.0,0.0,1.8113,0.0,0.0,0.0,2.3754,2.4756,2.5064,2.5344,2.5638,2.5945,2.6226,2.4761,2.12,1.9004,1.641,1.3397,1.3403,1.3403,1.3403,1.3403,1.3403,1.348,1.6492,1.7384,1.6893,2.2075,2.3081,0.0,2.4211,2.4661,2.3438,2.4289,2.4636,2.4636,2.4636,2.5065,2.5859,0.0,0.0,0.0,0.0,0.0,0.0,0.0,0.9598,0.999,0.999,0.9298,0.8924,0.9268,0.8774,0.8509,0.8778,0.0,0.0,0.0,0.0,0.0,0.0,0.0,0.0,0.0,0.6548,0.656,0.5392,0.7285,0.8398,0.8768,0.9656,1.0241,1.0552,1.0635,0.0,0.0,0.0,0.0,0.0,0.0,0.0,0.0,0.0,0.0,0.0,0.0,0.0,0.0,0.0,0.0,0.0,0.0,0.0,0.0,0.0,0.0,0.0,0.0,0.9032,1.0436,1.0378,1.1326,1.2073,1.1254,0.9952,0.0,0.8205,0.7223,0.6921,0.8237,0.8589,0.9347,1.1283,1.16,0.0,0.0,1.667,0.0,0.0,2.2886,0.0,2.3808,2.4315,2.4756,2.5064,2.5331,2.5611,2.5983,2.6186,2.5358,2.3081,2.0986,1.7846,1.3645,1.348,1.3403,1.3403,1.3403,1.348,1.3811,1.7955,1.8851,0.0,2.3676,2.5071,2.3055,2.4739,2.5317,2.505,2.4756,2.4636,2.4636,2.4636,2.5859,2.7505,0.0,0.0,0.0,0.0,0.0,0.0,0.0,0.0,0.0,0.0,0.8338,0.7935,0.8228,0.8328,0.8509,0.0,0.0,0.0,0.0,0.0,0.0,0.0,0.0,0.0,0.0,0.5225,0.5435,0.5392,0.6193,0.7114,0.8225,0.9183,0.9824,1.0242,1.0908,1.0902,0.0,0.0,0.0,0.0,0.0,0.0,0.0,0.0,0.0,0.0,0.6074,0.5811,0.0,0.0,0.0,0.0,0.0,0.0,0.0,0.0,0.5874,0.6207,0.6532,0.0,0.9262,0.989,1.0532,1.0671,0.0,0.8861,0.8328,0.7148,0.6671,0.7027,0.8785,0.9044,1.0218,1.3834,1.4651,1.5688,1.8272,2.0012,0.0,2.3207,2.3928,2.4356,2.4422,2.4556,2.4756,2.5064,2.5144,2.5304,2.5598,2.5678,2.4688,2.2553,2.0426,1.8196,1.5835,1.4217,1.3403,1.3403,1.3403,1.43,1.5917,1.8689,2.0473,2.1753,2.4784,2.5778,2.5192,2.5156,2.5144,2.505,2.4756,2.4636,2.4636,2.4636,2.5859,2.7722,0.0,0.0,0.0,0.0,0.0,0.0,0.0,0.0,0.0,0.0,0.0,0.0,0.0,0.0,0.0,0.0,0.0,0.0,0.0,0.0,0.0,0.0,0.0,0.0,0.4979,0.5305,0.5653,0.6,0.6492,0.7204,0.8095,0.8658,0.9319,1.0132,1.0755,1.0862,0.0,0.0,0.0,0.0,0.0,0.0,0.0,0.0,0.0,0.0,0.5716,0.5542,0.0,0.5691,0.5895,0.6098,0.0,0.0,0.0,0.0,0.565,0.5969,0.6596,0.7302,0.797,0.8497,0.8819,0.8768,0.7919,0.7671,0.7394,0.6562,0.0,0.7885,0.9568,1.0488,1.2027,1.5283,1.6049,0.0,0.0,0.0,2.2913,2.3674,2.4289,2.4636,0.0,2.4636,2.4703,2.4863,2.4997,2.5144,2.5304,2.5438,2.4969,2.3791,2.0801,1.8246,1.6313,1.4311,1.3295,1.3295,1.4339,1.5393,1.652,1.9745,2.1782,2.2867,2.4868,2.5678,2.5531,2.5211,2.4997,2.4863,2.4703,2.4636,2.471,2.5566,2.7128,2.9043,0.0,0.0,0.0,0.0,0.0,0.0,0.0,0.0,0.0,0.0,0.0,0.0,0.0,0.0,0.0,0.0,0.0,0.0,0.0,0.0,0.0,0.0,0.0,0.6237,0.5437,0.5797,0.6163,0.6539,0.7125,0.7604,0.7967,0.8214,0.8993,1.0178,1.0551,1.068,0.0,0.0,0.0,0.0,0.0,0.0,0.0,0.0,0.0,0.0,0.0,0.0,0.0,0.5698,0.5867,0.5959,0.5793,0.0,0.0,0.0,0.0,0.0,0.6873,0.7031,0.6919,0.7187,0.7162,0.7068,0.7133,0.0,0.0,0.0,0.0,0.0,0.0,1.2159,0.0,0.0,0.0,0.0,2.0134,2.1871,2.314,2.3701,2.4289,0.0,2.4636,2.4636,2.4636,2.4636,2.4863,2.501,2.501,2.5251,2.5371,2.5371,2.1311,1.827,1.6398,1.4245,1.3139,1.322,1.5438,1.6559,1.6808,2.0791,2.2666,2.293,2.4687,0.0,2.5077,2.5037,2.4863,2.4636,2.4636,2.4636,2.4844,2.6779,2.8701,3.0593,0.0,0.0,0.0,0.0,0.0,0.0,0.0,0.0,0.0,0.0,0.0,0.0,0.0,0.0,0.0,0.0,0.0,0.0,0.0,0.0,0.0,0.0,0.6588,0.609,0.5023,0.5072,0.5325,0.5762,0.6388,0.6767,0.695,0.8332,0.9522,1.0564,1.1035,1.1022,1.0586,0.0,0.0,0.0,0.0,0.0,0.0,0.0,0.0,0.0,0.0,0.0,0.0,0.5501,0.5698,0.5925,0.559,0.0,0.0,0.0,0.0,0.0,0.6268,0.6577,0.6916,0.7684,0.7389,0.7133,0.7998,0.8156,0.0,0.0,0.0,0.0,0.0,1.2869,1.4485,0.0,0.0,2.008,0.0,0.0,2.338,2.3728,0.0,2.4636,2.4636,2.4636,2.4636,2.4636,2.4676,2.4703,2.4703,2.4743,2.477,2.477,2.0804,1.8521,1.8217,1.4727,1.299,1.3077,1.5146,1.703,1.8818,2.1257,2.3353,2.5032,0.0,2.5117,2.5064,2.481,2.4676,2.4636,2.4636,2.4636,2.4844,2.6779,2.8701,3.0805,0.0,0.0,0.0,0.0,0.0,0.0,0.0,0.0,0.0,0.0,0.0,0.0,0.0,0.0,0.0,0.0,0.0,0.0,0.0,0.0,0.0,0.6339,0.6654,0.6431,0.551,0.5346,0.5705,0.6529,0.6664,0.6837,0.7105,0.8045,0.8882,0.9532,1.0113,1.0449,1.0586,1.0586,0.0,0.0,0.0,0.0,0.0,0.0,0.0,0.0,0.0,0.0,0.0,0.0,0.5671,0.5861,0.5576,0.0,0.0,0.0,0.0,0.0,0.5931,0.6288,0.6722,0.7267,0.7857,0.8483,0.9108,0.9699,1.0228,0.0,0.0,0.0,0.0,0.0,1.4093,1.6331,0.0,2.0962,2.1683,2.2539,2.3247,0.0,0.0,2.4462,2.4623,2.4636,2.4636,2.4636,2.4636,2.4636,2.4636,2.4636,2.4636,2.4636,2.0692,1.8572,1.8572,1.4718,1.2752,1.2913,1.6126,1.8152,1.9058,2.2319,2.4263,2.5037,0.0,2.4836,2.4823,2.469,2.4636,2.4636,2.4636,2.5212,2.6502,2.9488,3.1755,3.3656,0.0,0.0,0.0,0.0,0.0,0.0,0.0,0.0,0.0,0.0,0.0,0.0,0.0,0.0,0.0,0.0,0.0,0.0,0.0,0.0,0.734,0.6561,0.7141,0.7014,0.6022,0.5778,0.6165,0.7172,0.7021,0.7129,0.746,0.8146,0.8449,0.8383,0.9258,0.9793,1.0002,1.0206,1.0301,0.0,0.0,0.0,0.0,0.0,0.0,0.0,0.0,0.0,0.0,0.0,0.0,0.0,0.0,0.0,0.0,0.5562,0.5474,0.5528,0.5861,0.6207,0.664,0.7275,0.843,0.9621,1.0373,1.1321,1.2224,0.0,0.0,0.0,0.0,1.2884,0.0,1.7268,1.9399,2.1032,2.1951,2.2592,2.314,2.3607,2.3981,2.4289,2.4516,2.4596,2.4636,2.4636,2.4636,2.4636,2.4636,2.4636,2.4636,2.4636,2.0692,1.8572,1.8572,1.4552,1.2562,1.2678,1.6988,1.892,1.8912,2.3053,2.485,2.4636,2.4636,2.4636,2.4636,2.4636,2.4636,2.4636,2.5065,2.6707,2.9202,3.2106,3.4383,3.6016,0.0,0.0,0.0,0.0,0.0,0.0,0.0,0.0,0.0,0.0,0.0,0.0,0.0,0.0,0.0,0.0,0.0,0.0,0.0,0.0,0.7792,0.8044,0.8456,0.7857,0.6045,0.584,0.6115,0.675,0.6973,0.7233,0.7617,0.9157,0.9058,0.7736,0.9332,0.9355,0.8258,0.9043,0.9396,0.946,0.0,0.0,0.0,0.0,0.0,0.0,0.0,0.0,0.0,0.0,0.0,0.0,0.0,0.0,0.58,0.5779,0.5677,0.5698,0.6306,0.6484,0.6893,0.854,0.9058,0.9629,1.1576,1.301,0.0,1.6377,0.0,0.0,0.0,1.4952,1.5428,1.7886,1.8983,2.0202,2.207,0.0,2.3313,2.3354,2.3861,2.4209,2.4235,2.4476,2.4636,2.4636,2.4636,2.4636,2.4636,2.4636,2.4636,2.4636,2.0692,1.8572,1.8572,1.4552,1.2508,1.2592,1.6712,1.8613,1.8744,2.2769,2.4649,2.4636,2.4636,2.4636,2.4636,2.4636,2.4636,2.4784,2.6575,2.956,3.2822,3.3101,3.4383,3.6016,0.0,0.0,0.0,0.0,0.0,0.0,0.0,0.0,0.0,0.0,0.0,0.0,0.0,0.0,0.0,0.0,0.0,0.0,0.0,0.0,0.7631,0.7507,0.8259,0.8269,0.7377,0.7331,0.7252,0.7115,0.7414,0.7475,0.7305,0.7824,0.7845,0.7443,0.8061,0.8269,0.8169,0.9063,0.9437,0.9479,1.027,0.0,0.0,0.0,0.0,0.0,0.0,0.0,0.0,0.0,0.7129,0.7503,0.7662,0.7311,0.6949,0.732,0.6923,0.6503,0.7007,0.7956,0.8837,0.9026,1.0651,0.0,0.0,1.52,1.6639,1.7955,1.7215,0.0,0.0,0.0,1.7028,1.8517,2.0042,2.1393,2.2551,2.2886,2.3113,2.33,2.3527,2.3808,2.4168,2.4302,2.4436,2.4623,2.4636,2.4636,2.4636,2.4636,2.4636,2.4636,2.0692,1.8572,1.8572,1.5769,1.3722,1.2501,1.531,1.736,1.8723,2.144,2.3426,2.4636,2.4636,2.4636,2.4636,2.4636,2.4636,2.4918,2.8053,3.0892,3.3309,3.4521,3.5382,3.6016,0.0,0.0,0.0,0.0,0.0,0.0,0.0,0.0,0.0,0.0,0.0,0.0,0.0,0.0,0.0,0.0,0.0,0.0,0.619,0.6929,0.7466,0.7761,0.8521,0.8831,0.8537,0.8789,0.8678,0.8197,0.8212,0.7852,0.7092,0.7147,0.7119,0.7056,0.7188,0.7332,0.7564,0.8623,0.9097,0.9187,1.0283,1.068,0.0,0.0,0.0,0.0,0.0,0.0,0.0,0.0,0.7926,0.847,0.8671,0.8334,0.7943,0.8389,0.8208,0.7879,0.8123,0.9301,1.0439,1.0445,0.0,0.0,1.5946,1.7077,1.817,1.9252,1.8687,1.742,1.5382,0.0,0.0,0.0,2.0257,2.1579,2.2711,2.2928,2.2939,2.3153,2.326,2.3487,2.3888,2.4008,2.4155,2.4342,2.4449,2.4502,2.4502,2.4583,2.4636,2.4636,2.1291,1.9553,1.9553,1.6828,1.4782,1.3491,1.4176,1.5616,1.7739,2.038,2.236,2.3722,2.4327,2.4636,2.4636,2.4636,2.5272,2.6619,2.9242,3.1878,3.4245,3.5519,3.6016,3.6016,0.0,0.0,0.0,0.0,0.0,0.0,0.0,0.0,0.0,0.0,0.0,0.0,0.0,0.0,0.0,0.0,0.0,0.0,0.7584,0.702,0.74,0.9108,0.9526,0.9559,0.932,1.0035,1.0278,0.9998,0.9367,0.8385,0.7122,0.7581,0.7342,0.6531,0.6921,0.6687,0.6121,0.759,0.8199,0.8368,1.0255,1.0854,0.0,0.0,0.0,0.0,0.0,0.0,0.0,0.0,0.8753,0.8308,0.9903,0.9592,0.8639,0.8804,0.9336,0.9888,0.9742,1.0357,1.1413,1.3025,0.0,0.0,1.7884,1.8504,1.8918,2.0374,2.0441,1.9242,1.6135,1.6691,0.0,1.9042,1.9321,2.027,2.2574,2.2928,2.2928,2.2928,2.314,2.3327,2.3327,2.3594,2.3768,2.3768,2.4035,2.4195,2.4195,2.4476,2.4636,2.4636,2.2657,2.1601,2.1601,1.7588,1.554,1.5463,1.3491,1.3568,1.5616,1.9704,2.1601,2.1676,2.3722,2.4636,2.4636,2.4636,2.6837,3.031,3.031,3.2665,3.6016,3.6016,3.6016,3.6016,0.0,0.0,0.0,0.0,0.0,0.0,0.0,0.0,0.0,0.0,0.0,0.0,0.0,0.0,0.0,0.0,0.0,0.0,0.6885,0.7691,0.838,0.8898,0.9419,0.9659,0.9576,1.0581,1.0353,0.8743,0.8777,0.8042,0.6559,0.6765,0.6631,0.6166,0.6503,0.6821,0.7114,0.7974,0.8894,0.9832,1.064,1.0942,0.0,0.0,0.0,0.0,0.0,0.0,0.0,0.0,0.0,0.0,1.0686,1.0646,1.045,1.0598,1.0704,1.0761,1.0541,1.1818,0.0,1.3671,0.0,0.0,0.0,1.9105,0.0,0.0,2.0748,2.0288,1.9336,1.9534,0.0,2.0786,2.1058,2.1645,2.2711,2.2928,2.2928,2.2928,2.2939,2.3086,2.33,2.3407,2.3541,2.3754,2.3848,2.3901,2.3901,2.4168,2.4329,2.4329,2.2559,2.1601,2.1601,1.9025,1.698,1.5463,1.4935,1.4935,1.5616,1.827,2.0241,2.1676,2.3722,2.4636,2.4636,2.4636,2.6837,3.031,3.031,3.2665,3.6016,3.6016,3.6016,3.6016,0.0,0.0,0.0,0.0,0.0,0.0,0.0,0.0,0.0,0.0,0.0,0.0,0.0,0.0,0.0,0.0,0.0,0.0,0.0,0.8023,0.8538,0.8951,0.9325,0.9673,1.005,1.073,1.0348,0.8799,0.8904,0.8028,0.6306,0.6443,0.641,0.6302,0.6485,0.6979,0.7664,0.8392,0.9288,1.0266,1.1046,1.1196,1.1009,0.0,0.0,0.0,0.0,0.0,0.0,0.0,0.0,0.0,1.0854,1.0895,1.1053,1.1475,1.1784,1.2023,1.2211,1.3578,0.0,1.5297,1.6821,1.8517,1.9626,0.0,0.0,0.0,2.0882,2.0708,2.0828,2.0762,0.0,2.1603,2.1871,2.2191,2.2847,2.2928,2.2928,2.2928,2.2928,2.2939,2.3126,2.314,2.322,2.3394,2.3527,2.3594,2.3594,2.3875,2.4035,2.4035,2.3006,2.2117,2.1358,1.9351,1.7339,1.532,1.457,1.4228,1.4305,1.7246,1.9252,2.0542,2.3351,2.4636,2.4636,2.5419,2.7548,3.038,3.1158,3.3309,3.6016,3.6016,3.6016,3.6016,0.0,0.0,0.0,0.0,0.0,0.0,0.0,0.0,0.0,0.0,0.0,0.0,0.0,0.0,0.0,0.0,0.0,0.0,0.0,0.0,0.8226,0.9176,0.9284,0.9766,1.0653,1.056,1.023,0.9589,0.929,0.8183,0.6374,0.6462,0.6613,0.6847,0.6819,0.7293,0.8133,0.8875,0.9499,1.0135,1.1326,1.1511,1.1022,1.1289,0.0,0.0,0.0,0.0,0.0,0.0,0.0,0.0,1.0626,1.0653,1.0827,1.1605,1.2465,1.3387,1.4188,1.5297,1.646,1.7395,1.8156,0.0,2.0401,2.0922,2.1109,2.1109,0.0,2.0802,2.1069,2.0895,2.0989,2.1817,2.1964,2.2178,2.2739,2.2914,2.2928,2.2928,2.2928,2.2928,2.2928,2.2928,2.2928,2.2928,2.3126,2.3217,2.2994,2.3355,2.343,2.3216,2.3242,2.2443,2.067,1.8633,1.6809,1.5072,1.3168,1.2277,1.2443,1.6518,1.8497,1.9101,2.2967,2.4636,2.4784,2.6721,2.8629,3.0522,3.2455,3.4383,3.6016,3.6016,3.6016,3.6016,0.0,0.0,0.0,0.0,0.0,0.0,0.0,0.0,0.0,0.0,0.0,0.0,0.0,0.0,0.0,0.0,0.0,0.0,0.0,0.0,0.8737,0.9176,0.99,1.0581,1.1223,1.0353,0.9479,0.8695,0.8157,0.7555,0.6921,0.6516,0.6888,0.7885,0.7861,0.8733,1.0154,0.9832,1.0265,1.1088,1.1182,1.1102,1.0995,1.1062,1.0862,0.0,0.0,0.0,0.0,0.0,0.0,0.0,1.0854,1.1062,1.1236,1.1196,1.2144,1.3253,1.344,1.4683,0.0,0.0,1.9092,2.0347,2.0895,2.1069,2.1109,2.1109,2.1056,2.1029,2.1096,2.1056,2.1149,2.1641,2.1844,2.2111,2.2458,2.2712,2.2928,2.2928,2.2928,2.2928,2.2928,2.2928,2.2928,2.2928,2.2926,2.2319,2.0853,2.1026,2.0521,1.9096,1.9199,1.9152,1.8716,1.6745,1.5506,1.5064,1.3126,1.2176,1.2374,1.5007,1.7891,2.1066,2.3574,2.4636,2.4784,2.6721,2.8629,3.0522,3.2455,3.4383,3.6016,3.6016,3.6016,3.6016,0.0,0.0,0.0,0.0,0.0,0.0,0.0,0.0,0.0,0.0,0.0,0.0,0.0,0.0,0.0,0.0,0.0,0.0,0.0,0.0,0.9005,0.9432,0.9916,1.0185,1.0263,0.8997,0.8275,0.8064,0.6897,0.6421,0.6572,0.7142,0.7829,0.8654,0.8995,0.9817,1.086,1.0239,1.0484,1.1223,1.1209,1.1116,1.0982,1.0868,1.0608,1.0327,1.0224,0.0,0.0,0.0,0.0,0.0,0.0,0.0,1.0675,1.1076,1.185,1.2759,1.3614,0.0,0.0,1.8237,0.0,2.0748,2.1042,2.1109,2.1109,2.1109,2.1109,2.1109,2.1109,2.1109,2.1203,2.1574,2.1748,2.1924,2.2352,2.2552,2.2699,2.2914,2.2928,2.2928,2.2928,2.2928,2.2928,2.2928,2.2928,2.2091,2.0201,2.025,1.9408,1.7501,1.7612,1.7233,1.6371,1.5298,1.4293,1.3436,1.2427,1.2547,1.3589,1.5943,1.8648,2.1676,2.3722,2.5139,2.6137,2.8053,2.9971,3.1878,3.3812,3.5158,3.6016,3.6016,3.6016,3.6016,0.0,0.0,0.0,0.0,0.0,0.0,0.0,0.0,0.0,0.0,0.0,0.0,0.0,0.0,0.0,0.0,0.0,0.0,0.0,0.8764,0.8971,0.9522,0.9492,0.9313,0.8947,0.7597,0.7136,0.7549,0.5958,0.5603,0.6525,0.7923,0.8989,0.974,1.0256,1.0781,1.1192,1.0513,1.0467,1.0862,1.1049,1.0982,1.0742,1.0533,1.0261,1.0007,0.9766,0.9873,1.0083,1.0083,0.0,0.0,0.0,0.0,0.9953,1.0982,1.1516,1.2131,1.3707,0.0,1.6938,1.8811,1.9987,0.0,2.0975,2.1069,2.1109,2.1109,2.1109,2.1109,2.1109,2.1109,2.1189,2.1494,2.1588,2.1724,2.2205,2.2311,2.2458,2.2752,2.2779,2.2806,2.2859,2.2928,2.2928,2.2928,2.2928,2.1941,1.9704,1.9565,1.8438,1.5821,1.575,1.4832,1.2922,1.3278,1.2659,1.1109,1.1616,1.2912,1.4948,1.7375,1.9607,2.168,2.3696,2.5712,2.765,2.9544,3.1456,3.3378,3.5245,3.6016,3.6016,3.6016,3.6016,3.6016,0.0,0.0,0.0,0.0,0.0,0.0,0.0,0.0,0.0,0.0,0.0,0.5456,0.5382,0.6091,0.0,0.0,0.0,0.0,0.8804,0.0,0.0,0.892,0.869,0.8606,0.8643,0.7489,0.6948,0.701,0.5917,0.6434,0.8492,0.8444,0.9754,1.212,1.1813,1.1854,1.2083,1.1222,1.0607,1.0221,1.0007,0.99,0.9889,0.9849,0.9809,0.974,0.9729,0.9873,1.0083,1.0083,1.0314,0.0,0.0,0.0,1.014,1.0586,1.1062,1.1615,0.0,0.0,1.7393,0.0,1.984,2.0681,0.0,0.0,2.1109,0.0,2.1109,2.1109,2.1109,2.1109,2.1122,2.1162,2.139,2.1641,2.1722,2.1884,2.2151,2.2445,2.2472,2.2579,2.2832,2.2928,2.2928,2.2928,2.2928,2.1321,1.7809,1.7599,1.5177,0.9988,0.9844,0.8909,0.6962,0.8621,0.9347,0.9141,1.0948,1.2853,1.4834,1.7,1.92,2.1358,2.3619,2.5712,2.765,2.9544,3.1456,3.3378,3.5245,3.6016,3.6016,3.6016,3.6016,3.6016,0.0,0.0,0.0,0.0,0.0,0.0,0.0,0.0,0.0,0.0,0.0,0.4952,0.4952,0.5574,0.0,0.0,0.0,0.0,0.8182,0.8237,0.0,0.0,0.7408,0.7173,0.7152,0.6178,0.5701,0.5762,0.567,0.7061,0.9867,1.0208,1.1455,1.3419,1.3393,1.3213,1.2934,1.1757,1.0902,1.031,0.9611,0.9439,0.9524,0.9053,0.9051,0.9283,0.9216,0.9379,0.9617,0.982,1.0074,1.0341,1.0546,0.0,0.0,0.0,1.0488,1.1076,1.2826,1.471,1.6815,0.0,2.0402,2.1349,2.2886,2.3353,2.3504,2.3808,2.3854,2.3311,2.1411,2.1109,2.1109,2.1109,2.1216,2.1363,2.1601,2.1722,2.1857,2.2138,2.2178,2.2285,2.2579,2.2619,2.2686,2.2914,2.2928,2.1239,1.7388,1.7178,1.4611,0.8842,0.8703,0.7761,0.5808,0.7761,0.9213,1.0377,1.2302,1.4272,1.6202,1.8338,1.9953,2.1087,2.4485,2.7063,2.8987,3.109,3.3031,3.4883,3.5655,3.6016,3.6016,3.6016,3.6016,3.6016,0.0,0.0,0.0,0.0,0.0,0.0,0.0,0.0,0.0,0.0,0.0,0.0,0.4704,0.0,0.0,0.0,0.0,0.0,0.7423,0.0,0.0,0.0,0.0,0.5853,0.569,0.5071,0.4782,0.4863,0.564,0.7603,1.0686,1.1671,1.3083,1.474,1.4715,1.4252,1.34,1.2104,1.1249,1.0723,0.985,0.9669,0.9843,0.951,0.9584,0.9819,0.9543,0.959,0.9764,0.9793,0.9993,1.0247,1.0439,1.014,0.0,0.0,0.0,0.0,0.0,0.0,1.5773,1.9088,2.0414,2.1526,0.0,0.0,2.5288,0.0,2.5918,2.5253,2.2812,2.2327,2.2327,2.2327,2.2327,2.2412,2.2652,2.2376,2.2245,2.2483,2.2133,2.1991,2.2285,2.2311,2.2405,2.2619,2.2645,2.1065,1.7296,1.6658,1.3766,0.8121,0.703,0.5578,0.3629,0.6011,0.8477,1.0887,1.2809,1.4929,1.7258,1.8904,2.0226,2.1447,2.5328,2.8099,3.0076,3.2296,3.4314,3.6016,3.6016,3.6016,3.6016,3.6016,3.6016,3.6016,0.0,0.0,0.0,0.0,0.0,0.0,0.0,0.0,0.0,0.0,0.0,0.0,0.0,0.0,0.0,0.0,0.0,0.0,0.0,0.0,0.0,0.0,0.0,0.0,0.4781,0.4859,0.4843,0.4701,0.6006,0.8059,1.0807,1.2159,1.4141,1.652,1.5738,1.4563,1.3173,1.2238,1.1663,1.1322,1.1029,1.0903,1.1029,1.2135,1.2388,1.2035,1.1482,1.1269,1.1149,1.0336,1.0287,1.0519,1.0221,1.0083,1.0047,0.0,0.0,0.0,0.0,1.2839,0.0,1.7154,1.9015,0.0,0.0,0.0,2.4851,2.5271,2.5677,2.5984,2.5802,2.5741,2.5741,2.5741,2.5741,2.5741,2.5757,2.444,2.3598,2.3847,2.258,2.1762,2.1977,2.2004,2.2017,2.2031,2.2031,2.0513,1.6973,1.5063,1.1566,0.6094,0.239,-0.0507,-0.2398,0.1301,0.5129,0.8848,1.0809,1.3666,1.7178,1.7328,1.9379,2.2953,2.5807,2.8099,3.0076,3.2296,3.4314,3.6016,3.6016,3.6016,3.6016,3.6016,3.6016,3.6016,0.0,0.0,0.0,0.0,0.0,0.0,0.0,0.0,0.0,0.0,0.0,0.0,0.0,0.4869,0.5136,0.5846,0.6335,0.0,0.0,0.0,0.0,0.0,0.0,0.0,0.0,0.5381,0.5465,0.5402,0.6924,0.8452,1.0014,1.1907,1.3605,1.503,1.5084,1.4937,1.4522,1.3092,1.2409,1.2251,1.1441,1.1341,1.17,1.1777,1.2174,1.2703,1.2412,1.2144,1.2016,1.2303,1.1712,1.0911,1.121,1.0641,0.974,0.9259,0.9593,0.0,0.0,0.0,0.0,1.6667,1.8879,2.1016,2.3513,2.5613,2.7105,2.7547,2.8212,2.8692,2.8692,2.72,2.5984,2.5984,2.5984,2.5984,2.5984,2.5497,2.5178,2.5244,2.4766,2.4532,2.4807,2.3912,2.3372,2.3508,2.2555,2.0468,1.6828,1.4913,1.1371,0.5876,0.1947,-0.0362,-0.1015,0.159,0.484,0.8776,1.1865,1.4716,1.7248,1.8508,2.1076,2.4684,2.7128,2.8724,2.9864,3.3193,3.5133,3.6016,3.6016,3.6016,3.6016,3.6016,3.6016,3.6016,0.0,0.0,0.0,0.0,0.0,0.0,0.0,0.0,0.0,0.4491,0.0,0.0,0.0,0.0,0.4791,0.5202,0.5675,0.5733,0.5191,0.0,0.0,0.0,0.0,0.0,0.0,0.5884,0.6069,0.6226,0.7724,0.885,0.9667,1.161,1.3079,1.4082,1.411,1.4509,1.5164,1.3923,1.3373,1.332,1.2594,1.2559,1.2936,1.3146,1.3791,1.4585,1.464,1.456,1.4525,1.4862,1.4083,1.2941,1.2883,1.1511,0.9827,0.9032,0.9432,1.0207,1.0595,0.0,0.0,0.0,0.0,2.0217,2.3394,2.5737,2.7461,2.832,2.918,2.9805,2.9961,2.86,2.7474,2.7614,2.7632,2.7632,2.7632,2.7134,2.6832,2.6832,2.6349,2.6067,2.6253,2.5295,2.4529,2.4138,2.3143,0.0,1.667,1.4638,1.031,0.2906,-0.0359,-0.1957,-0.1957,0.065,0.3898,0.7761,1.165,1.4787,1.7248,1.8508,2.1477,2.5584,2.7678,2.9127,3.0324,3.3897,3.5566,3.582,3.5957,3.6016,3.6084,3.6674,3.6856,3.6991,0.0,0.0,0.0,0.0,0.0,0.0,0.0,0.0,0.4464,0.4519,0.0,0.0,0.0,0.0,0.0,0.4714,0.4701,0.4662,0.4505,0.4491,0.0,0.0,0.0,0.0,0.0,0.6311,0.6684,0.7146,0.8401,0.9304,0.9886,1.1231,1.265,1.3975,1.2812,1.328,1.4941,1.4576,1.4439,1.4536,1.4509,1.4536,1.4776,1.6522,1.7436,1.7866,1.8198,1.8593,1.8769,1.7912,0.0,1.6679,1.5053,1.2679,1.0297,0.9218,0.9459,1.011,0.0,0.0,0.0,0.0,0.0,0.0,2.1977,0.0,2.5517,2.7278,2.8242,2.8965,2.9453,2.9883,3.0312,3.0801,3.0879,3.0898,3.0898,2.953,2.8486,2.8486,2.7073,2.6167,2.6167,2.6106,2.5375,2.3807,2.3636,2.1402,1.6359,1.4117,0.8043,-0.2753,-0.4889,-0.5805,-0.5805,-0.1946,0.1946,0.5881,0.9723,1.3595,1.7178,1.7178,2.0281,2.5719,2.7437,2.9436,3.1636,3.4317,3.5391,3.543,3.5859,3.6016,3.6219,3.7888,3.8531,3.8861,0.0,0.0,0.0,0.0,0.0,0.8344,0.7251,0.6027,0.5258,0.0,0.0,0.0,0.4827,0.4955,0.5022,0.4982,0.4918,0.4789,0.4668,0.4552,0.4491,0.4491,0.5356,0.6138,0.6777,0.7671,0.8072,0.788,0.897,0.9309,0.8974,1.0315,1.1511,1.2516,1.2358,1.2826,1.3654,1.2919,1.3587,1.5084,1.4186,1.4897,1.6455,1.6246,1.7725,1.9851,0.0,2.0192,2.1182,0.0,1.9861,1.8002,1.5666,1.3232,1.1161,1.084,1.0756,1.0701,1.0501,0.0,0.0,0.0,0.0,0.0,0.0,0.0,2.334,2.5419,2.623,2.7031,2.8398,2.8984,2.9512,3.0273,3.0664,3.0898,3.0898,3.0528,3.0216,3.0216,2.9844,2.953,2.953,2.8426,2.7073,0.0,2.424,2.1371,1.62,1.0598,0.4313,-0.272,-0.4826,-0.5726,-0.5655,-0.1865,0.1946,0.5881,0.9723,1.3595,1.7178,1.7178,2.0946,2.7503,2.7966,3.0,3.2931,3.4335,3.5078,3.543,3.5859,3.6016,3.6084,3.6539,3.7508,3.8663,0.0,0.0,0.0,0.0,0.0,1.0389,0.8991,0.8096,0.727,0.0,0.0,0.0,0.5392,0.5515,0.5549,0.5386,0.5223,0.5013,0.4802,0.4675,0.4559,0.4491,0.559,0.6529,0.7262,0.8398,0.8938,0.8824,0.942,0.9417,0.887,0.9787,1.0559,1.1142,1.1316,1.1797,1.2374,1.1516,1.2572,1.4843,1.4763,0.0,0.0,1.6901,1.8692,0.0,0.0,0.0,2.3881,2.4017,2.2447,0.0,0.0,1.5324,1.3748,1.2165,1.2081,1.2289,1.1228,1.1605,0.0,0.0,0.0,0.0,1.7796,1.9722,2.1725,0.0,2.5156,2.582,2.7012,2.7715,2.85,2.9802,3.052,3.1144,3.1744,3.2322,3.2721,3.2721,3.2721,3.2721,3.2721,3.1283,2.9672,2.8021,2.5846,2.1714,1.5142,0.884,0.3221,-0.1653,-0.434,-0.5296,-0.4453,-0.1421,0.2002,0.5836,0.9772,1.3595,1.7248,1.7977,2.1936,2.8295,2.9683,3.1888,3.4485,3.5869,3.5885,3.5156,3.5586,3.5859,3.6152,3.7642,3.8795,3.9888,0.0,0.0,1.0658,1.1484,1.2845,1.3061,1.0866,1.0537,0.9778,0.0,0.7056,0.668,0.618,0.6247,0.6238,0.5922,0.5638,0.5317,0.4986,0.4796,0.4683,0.4657,0.5743,0.6773,0.7638,0.8834,0.9519,0.9715,0.9715,0.9526,0.9217,0.9472,0.9753,1.003,1.0033,1.0456,1.1202,1.0589,1.1757,1.4108,1.5444,1.6179,0.0,0.0,2.0027,2.2057,2.3124,2.4843,2.6582,2.6484,2.4824,0.0,0.0,0.0,0.0,1.3574,1.3669,0.0,1.2396,1.2567,0.0,0.0,0.0,0.0,1.8051,1.9263,2.0517,0.0,2.429,2.4766,2.541,2.6172,2.7311,2.914,3.0378,3.1603,3.2944,3.435,3.5199,3.5199,3.5266,3.5288,3.5288,3.4125,3.2561,3.076,2.721,2.1756,1.3929,0.836,0.375,0.0204,-0.3383,-0.453,-0.2862,-0.0631,0.2259,0.5841,0.9721,1.3579,1.7248,1.9035,2.2917,2.8361,3.175,3.418,3.5949,3.7967,3.7272,3.493,3.5402,3.5835,3.6594,3.9693,4.1136,4.1884,0.0,0.9412,1.0841,1.2292,1.3243,1.3398,1.2178,1.131,1.0611,0.995,0.8746,0.7644,0.6956,0.6736,0.6593,0.6532,0.603,0.5589,0.5324,0.4941,0.4991,0.5681,0.6691,0.771,0.8695,0.9775,1.0151,0.9715,0.9715,0.9526,0.9204,0.9031,0.9259,0.9753,0.9484,0.9737,1.0403,1.145,0.0,1.3427,1.3906,1.5531,1.7808,1.9089,2.1139,2.3557,2.4718,2.6324,2.7812,2.7129,2.5859,2.4316,0.0,0.0,0.0,1.6632,1.6349,1.6464,1.5095,1.5537,0.0,0.0,0.0,0.0,1.6763,1.8058,1.964,0.0,2.111,2.2034,2.3828,2.459,2.5535,2.7517,3.0014,3.2145,3.3347,3.4114,3.4575,3.4575,3.4987,3.5288,3.5288,3.5013,3.3669,3.0818,2.3917,1.8586,1.5559,0.9016,0.4367,0.2207,-0.1498,-0.3233,-0.2753,0.0555,0.3437,0.5838,0.9629,1.3459,1.7248,1.9035,2.2917,2.8361,3.175,3.418,3.5928,3.7654,3.7458,3.6162,3.6616,3.7071,3.7594,3.8291,4.0504,4.3271,0.9259,1.0917,1.2528,1.3874,1.4743,1.4914,1.3846,1.3346,1.2651,1.1497,1.047,0.9416,0.8338,0.8074,0.7655,0.6866,0.6335,0.5911,0.5535,0.5228,0.5313,0.5862,0.6983,0.803,0.8991,1.0051,1.0452,1.0157,0.9849,0.9526,0.9204,0.9071,0.9419,1.0131,0.9659,1.0033,1.1042,1.1829,1.3006,1.4394,1.5123,0.0,1.8023,1.9935,2.1994,2.3972,2.5377,2.6927,2.8125,2.7051,2.6269,0.0,2.3945,2.3036,2.2013,0.0,1.9164,1.9337,1.7368,0.0,0.0,1.7732,0.0,0.0,0.0,1.872,1.9619,2.0866,2.1005,2.1367,2.2871,2.332,2.4133,2.6247,2.8416,3.0259,3.1551,3.3686,3.5434,3.6133,3.5876,3.6051,3.702,3.6437,3.4142,2.9754,2.3336,1.8146,1.4753,0.8723,0.4554,0.2742,-0.0877,-0.1899,0.0,0.1846,0.4213,0.7048,1.004,1.2888,1.5831,1.8633,2.2849,2.821,3.2522,3.5842,3.832,3.9931,3.9331,3.7313,3.6938,3.7106,3.7654,3.8766,4.0954,4.3436,1.0868,1.2522,1.4154,1.5332,1.6269,1.6426,1.5261,1.5248,1.462,1.249,1.206,1.1344,0.9662,0.948,0.8869,0.7334,0.6742,0.6261,0.5874,0.5769,0.5929,0.6353,0.7379,0.8432,0.9437,1.0152,1.0479,1.0425,0.9889,0.9472,0.9217,0.9217,0.9657,1.0492,1.0358,1.103,1.2283,0.0,0.0,1.6417,0.0,1.7872,1.832,2.1143,2.291,2.409,2.5901,2.7276,2.8125,2.7012,2.6641,2.6348,2.4687,2.4707,0.0,0.0,0.0,2.2226,0.0,0.0,0.0,0.0,0.0,1.9022,0.0,0.0,0.0,2.1444,2.1401,0.0,0.0,0.0,0.0,0.0,0.0,0.0,0.0,3.22,0.0,3.6407,3.5883,3.6069,3.7916,3.6777,3.3829,2.8849,2.3777,1.8813,1.3994,0.9048,0.5422,0.3287,0.0402,0.0067,0.2685,0.3847,0.5701,0.834,1.0688,1.2642,1.4353,1.811,2.2741,2.7994,3.3322,3.7509,4.0707,4.2012,4.0822,3.8089,3.7173,3.7105,3.7699,3.9667,4.1661,4.3651,1.2965,1.3535,1.4276,1.575,1.675,1.6857,1.5571,1.5749,1.5232,1.2836,1.317,1.2743,1.0369,1.0092,0.9624,0.8436,0.7529,0.6923,0.6748,0.6844,0.7373,0.8432,0.8719,0.9578,1.108,1.0478,1.0047,0.9809,0.9431,0.9244,0.9217,0.9217,0.9537,1.0211,1.1759,1.2823,1.3619,0.0,1.7256,0.0,1.986,1.9798,0.0,2.3169,2.4297,2.4396,2.7112,2.8174,2.8203,0.0,2.7571,2.7285,0.0,2.5859,2.5761,2.3109,0.0,0.0,0.0,0.0,0.0,0.0,2.2851,0.0,0.0,0.0,2.06,1.9229,0.0,0.0,0.0,0.0,0.0,0.0,0.0,0.0,2.755,2.7942,2.8951,3.1203,3.2391,3.3638,3.5065,3.3834,3.2019,2.9616,2.4474,1.9706,1.5798,1.2015,0.853,0.5228,0.469,0.389,0.2685,0.7403,0.9267,0.834,1.1692,1.3568,1.4353,1.8017,2.2618,2.7994,3.3322,3.7509,4.0592,4.0765,3.9814,3.8164,3.8052,3.8303,3.8853,3.9713,4.2178,4.531,1.3037,1.3895,1.4725,1.5918,1.6398,1.637,1.5518,1.5716,1.5613,1.461,1.506,1.4983,1.3486,1.297,1.2303,1.1353,1.0697,1.0031,0.9484,0.9311,0.9579,1.033,1.0102,1.0474,1.1677,1.0854,1.0345,1.0224,0.9524,0.9217,0.9217,0.9217,1.0239,1.2109,1.279,1.4375,1.6609,0.0,1.8541,0.0,0.0,0.0,0.0,2.4491,2.6129,2.7024,2.8242,2.8809,2.8926,0.0,2.7871,0.0,0.0,0.0,0.0,2.5118,0.0,0.0,0.0,0.0,0.0,0.0,0.0,0.0,2.1669,0.0,2.0702,0.0,0.0,0.0,0.0,0.0,0.0,0.0,2.3577,0.0,0.0,0.0,2.5235,0.0,0.0,0.0,3.2456,3.2267,3.1135,2.8893,2.4059,2.0299,1.8208,1.3204,0.9764,0.8464,0.6423,0.6023,0.7265,0.951,1.1329,1.2682,1.2245,1.2075,1.2367,1.5247,1.9941,2.6103,3.164,3.71,4.1899,4.1019,3.9639,3.8104,3.7205,3.695,3.7392,3.9204,4.1495,4.3888,1.2928,1.4175,1.5156,1.5811,1.5988,1.5922,1.5541,1.5533,1.5645,1.5758,1.6339,1.6445,1.5737,1.5243,1.4625,1.3912,1.3298,1.273,1.1985,1.1695,1.1663,1.2018,1.156,1.16,1.2238,1.1323,1.0747,1.0586,0.9753,0.9377,0.9457,0.9457,1.0784,1.3195,1.3926,1.603,1.8947,0.0,2.0641,2.192,2.3487,2.397,2.3918,2.5222,2.7118,2.9046,2.8586,2.8889,2.9453,2.8711,2.8262,0.0,2.7871,2.7422,2.6894,0.0,0.0,0.0,2.5195,0.0,0.0,0.0,0.0,0.0,0.0,0.0,0.0,0.0,0.0,0.0,0.0,0.0,0.0,0.0,0.0,2.2038,0.0,2.0615,0.0,0.0,0.0,0.0,0.0,3.0661,2.99,2.7813,2.3557,2.0458,1.9051,1.4245,1.1027,0.9911,0.8408,0.8541,1.0563,1.2073,1.3852,1.5848,1.2931,1.1344,1.0961,1.3729,1.8462,2.4772,3.0972,3.7176,4.2849,4.0765,3.9229,3.7985,3.5928,3.515,3.55,3.8211,4.0502,4.2652,1.3197,1.4534,1.5391,1.543,1.5675,1.586,1.5721,1.5302,1.519,1.5704,1.6339,1.651,1.5934,1.6005,1.5771,1.5191,1.4443,1.3928,1.3633,1.3445,1.332,1.3333,1.3182,1.3134,1.3173,1.2011,1.1129,1.0586,0.9997,0.982,0.0,0.0,1.0843,1.238,1.5455,1.7895,1.993,2.2135,2.4465,2.6746,2.6426,2.6541,2.6762,0.0,2.6693,2.9383,2.7748,0.0,0.0,2.9043,2.8887,0.0,0.0,0.0,0.0,0.0,0.0,0.0,0.0,0.0,0.0,2.3854,0.0,0.0,0.0,0.0,2.2207,0.0,0.0,0.0,0.0,0.0,0.0,0.0,0.0,0.0,0.0,0.0,0.0,0.0,0.0,0.0,0.0,2.8475,2.7796,0.0,2.3337,2.0111,1.7343,1.5711,1.2783,0.822,1.1336,1.225,1.0629,1.5679,1.7462,1.5848,1.403,1.2347,1.1008,1.4948,1.9528,2.4843,3.2277,3.8376,4.2737,3.9581,3.8223,3.7865,3.4674,3.3481,3.3769,3.6412,3.9494,4.2448,1.2986,1.4921,1.5911,1.4781,1.4878,1.5104,1.5178,1.5562,1.6112,1.6887,1.7341,1.7859,1.8635,1.85,1.8346,1.847,1.8096,1.7645,1.7198,1.6366,1.6072,1.6407,1.4897,1.4625,1.5821,1.421,1.3444,1.357,1.2869,1.2598,0.0,0.0,0.0,1.5427,1.6444,1.8806,0.0,0.0,0.0,0.0,0.0,2.7088,2.7369,0.0,2.6232,2.8344,2.7748,2.8818,0.0,3.0273,2.9824,2.9375,2.9512,2.8965,2.8262,2.8125,2.8086,2.7949,0.0,0.0,2.7872,2.6249,0.0,0.0,0.0,0.0,0.0,0.0,0.0,0.0,0.0,0.0,0.0,0.0,0.0,0.0,0.0,0.0,0.0,0.0,0.0,0.0,0.0,0.0,0.0,2.397,2.2073,0.0,1.9674,1.6526,1.4729,1.4683,1.3761,1.4083,1.5808,1.758,1.818,1.7527,1.2216,0.9425,0.9098,1.1947,1.602,2.1427,3.1318,3.7807,4.1305,4.0245,3.917,3.7985,3.5806,3.432,3.3705,3.637,3.7994,3.9441,1.32,1.525,1.6261,1.4841,1.4586,1.4609,1.4729,1.5718,1.67,1.7475,1.8036,1.8781,2.0033,1.9893,1.9907,2.0494,2.0281,1.9813,1.9132,1.8947,1.8854,1.887,1.7934,1.781,1.8596,1.7028,1.6108,1.5888,1.5138,1.4496,0.0,0.0,0.0,0.0,0.0,1.9236,2.309,2.5371,2.6847,0.0,0.0,2.8048,0.0,0.0,2.6329,2.793,0.0,2.8759,3.0898,3.0898,3.0508,3.0078,3.0351,2.9766,2.8965,2.8965,2.8867,2.8652,2.8223,2.8516,0.0,2.7451,2.6426,0.0,2.3808,0.0,2.3379,0.0,0.0,0.0,0.0,0.0,0.0,0.0,0.0,0.0,0.0,1.9032,0.0,0.0,0.0,0.0,0.0,0.0,2.3624,2.2333,2.0679,0.0,0.0,1.6961,1.5867,1.6963,1.5826,1.6485,1.937,2.0017,2.0017,1.9306,1.2805,0.9109,0.8086,1.1045,1.48,1.9695,3.0226,3.6669,3.9756,3.9756,3.9111,3.8104,3.7062,3.5683,3.4421,3.586,3.6972,3.823,1.3815,1.5577,1.6523,1.5649,1.49,1.45,0.0,0.0,1.6927,1.7542,1.841,1.9305,2.0127,2.022,2.0494,2.1182,2.098,2.0517,1.9798,2.1146,2.1587,2.078,2.2025,2.2316,2.1442,2.0252,1.8982,1.7608,0.0,0.0,0.0,0.0,0.0,0.0,1.6577,0.0,2.2847,2.6889,2.9642,3.1179,3.0434,2.9507,2.8349,2.6712,2.7073,2.817,2.6651,2.8188,3.0898,3.0898,3.0898,3.0898,3.0898,3.0586,3.0234,3.0195,2.9922,2.9531,2.9101,2.9004,2.8711,2.7461,2.7109,0.0,0.0,0.0,2.5421,0.0,0.0,0.0,0.0,0.0,0.0,0.0,0.0,0.0,0.0,0.0,0.0,0.0,0.0,0.0,0.0,2.2932,2.1444,2.1717,1.9233,0.0,0.0,1.7004,1.628,1.5164,1.7334,1.9242,2.085,2.2596,2.2534,2.0648,1.5312,1.1012,0.7985,1.1992,1.5682,1.937,2.8828,3.4821,3.7963,3.8141,3.8223,3.8223,3.8283,3.7287,3.5789,3.5022,3.634,3.8861,1.4665,1.667,1.8119,1.8439,1.6599,1.5346,0.0,0.0,0.0,1.8116,1.9025,1.9907,2.0788,2.0882,2.1436,2.2827,2.2879,2.3273,2.4259,2.4101,2.4049,2.4252,2.3599,2.3547,2.4312,2.2654,2.1753,2.1608,0.0,0.0,1.8323,0.0,0.0,0.0,0.0,0.0,2.4054,2.7121,3.0407,3.3463,3.2672,3.1411,2.9868,0.0,2.8051,2.8349,2.7931,2.9098,3.0898,3.0898,3.0898,3.0898,3.0898,3.082,3.0644,3.0293,3.0371,3.0449,3.0,3.0117,3.0156,2.916,2.8437,2.7656,0.0,0.0,0.0,0.0,0.0,0.0,0.0,0.0,0.0,0.0,0.0,0.0,0.0,0.0,0.0,2.0458,0.0,0.0,0.0,2.0167,1.8965,1.8052,1.7812,0.0,0.0,0.0,1.6263,1.6635,1.7822,1.8692,1.9127,2.0879,2.0233,1.7108,1.1782,0.8094,0.6156,0.8828,1.2007,1.5873,2.5134,3.1165,3.4697,3.7046,3.8089,3.8342,3.9522,3.8672,3.6581,3.5176,3.634,3.8663,1.5753,1.8336,2.0367,2.0795,0.0,0.0,1.7659,1.7197,0.0,1.8357,1.9252,0.0,2.0481,2.0882,2.179,2.345,2.3574,2.4178,2.5522,2.6065,2.6354,2.644,2.6379,2.6554,2.6913,2.537,2.426,2.3647,0.0,0.0,1.926,0.0,0.0,0.0,0.0,2.0521,2.3577,2.8279,3.2107,3.5024,3.5029,3.406,0.0,3.1721,3.1397,3.1339,3.0684,3.0626,3.0898,3.0898,3.0898,3.0898,3.0898,3.0898,3.084,3.0586,3.0684,3.084,3.0566,3.0703,3.0762,3.0273,2.9785,2.9141,2.8086,2.8027,2.8027,0.0,2.764,2.7955,0.0,0.0,0.0,0.0,0.0,0.0,0.0,0.0,0.0,0.0,1.9571,0.0,0.0,1.7762,1.6928,1.632,1.6431,0.0,0.0,0.0,1.7333,1.7901,1.8951,2.0218,2.1742,2.2062,2.1155,1.9093,1.3842,1.0058,0.7744,0.9159,1.1783,1.569,2.2523,2.8046,3.234,3.4841,3.6811,3.8342,3.9954,3.9611,3.7952,3.6336,3.6471,3.7441,1.7366,2.0412,2.2734,2.2695,0.0,0.0,0.0,1.8352,0.0,1.8613,0.0,1.9973,1.9973,2.0655,2.1853,2.376,2.3931,2.4466,2.5795,2.7677,2.8473,2.795,2.9432,2.9902,2.9101,2.7793,2.6269,0.0,0.0,0.0,0.0,0.0,0.0,0.0,0.0,0.0,0.0,2.9958,3.4013,3.59,3.7049,3.6703,3.5563,3.5343,3.5288,3.5123,3.3845,3.2416,3.117,3.0937,3.0898,3.0898,3.0898,3.0898,3.0898,3.0898,3.0898,3.0898,3.0898,3.0898,3.0898,3.0898,3.0898,3.0586,2.9434,2.918,2.9062,2.8711,2.8757,2.9273,0.0,0.0,0.0,0.0,0.0,0.0,0.0,0.0,0.0,0.0,0.0,0.0,0.0,0.0,0.0,0.0,0.0,0.0,0.0,0.0,1.8477,1.8945,2.004,2.2158,2.5282,2.3977,2.308,2.2701,1.7736,1.3802,1.0965,1.1212,1.3341,1.6978,2.0761,2.5464,3.0578,3.2194,3.5128,3.8639,4.0071,4.0148,3.9308,3.7699,3.6603,3.6016,2.0847,2.2882,2.3965,2.3633,2.2649,2.1892,2.2007,2.1438,2.0656,1.9681,2.0334,2.0882,2.0882,2.1015,2.2327,2.5314,2.5558,0.0,0.0,0.0,0.0,3.0296,3.0606,3.0527,2.998,2.8379,2.6875,0.0,0.0,0.0,0.0,0.0,0.0,0.0,0.0,0.0,2.6995,3.1688,0.0,3.6054,3.7101,3.7346,3.6972,3.5781,3.5288,3.5288,3.5013,3.3979,3.253,3.1325,3.0898,3.0898,3.0898,3.0898,3.0898,3.0898,3.0898,3.0898,3.0898,3.0898,3.0898,3.0898,3.0898,3.084,3.0605,3.0547,3.0527,3.0449,3.0741,3.0905,3.0517,0.0,0.0,0.0,0.0,0.0,0.0,0.0,0.0,0.0,0.0,2.0067,0.0,0.0,0.0,0.0,0.0,0.0,0.0,0.0,1.7675,0.0,1.9907,2.0828,0.0,0.0,2.0816,1.9294,1.548,1.3328,1.271,1.1745,1.3298,1.6871,1.9415,2.3636,2.8804,3.0352,3.4636,4.0187,4.0476,4.0148,3.9308,3.7699,3.6603,3.6016,2.394,2.4824,2.5176,2.541,0.0,0.0,0.0,2.3041,2.2023,2.0077,2.0174,2.0428,2.0428,2.0842,2.2389,2.5741,2.5984,2.7391,3.0704,3.0898,3.0898,3.0898,3.0898,3.0664,3.0215,2.8965,2.7578,2.6074,0.0,0.0,0.0,0.0,0.0,0.0,0.0,2.3523,0.0,0.0,0.0,3.4578,3.5848,3.6811,3.7423,3.6703,3.6942,3.7477,3.6703,3.5977,3.5046,3.2815,3.2035,3.194,3.117,3.0898,3.0898,3.0898,3.0898,3.0898,3.0898,3.0898,3.0898,3.0898,3.0898,3.0898,3.0898,3.0898,3.0898,3.0898,3.1808,3.2608,3.2601,3.1993,0.0,0.0,0.0,0.0,0.0,0.0,2.5964,0.0,0.0,0.0,0.0,0.0,0.0,0.0,0.0,0.0,1.3579,0.0,1.6466,0.0,0.0,0.0,2.2318,0.0,2.1145,2.1105,1.7599,1.5982,1.5937,1.466,1.5509,1.8173,1.953,2.3175,2.8541,3.2768,3.6389,3.9545,4.148,4.1648,4.0709,3.9283,3.814,3.726,2.6237,2.6387,2.6465,0.0,2.6616,2.5851,2.4906,2.4404,2.3167,2.0402,2.008,2.008,2.008,2.0695,2.2389,2.5741,2.5984,2.7391,3.0704,3.0898,3.0898,3.0898,3.0898,3.0723,3.0351,2.9492,2.8223,0.0,0.0,0.0,0.0,0.0,0.0,0.0,0.0,0.0,0.0,0.0,3.133,3.3444,3.4773,3.5999,3.7079,3.7346,3.8243,3.9129,3.8295,3.7954,3.7583,3.4936,3.362,3.2851,3.1383,3.0898,3.0898,3.0898,3.0898,3.0898,3.0898,3.0898,3.0898,3.0898,3.0898,3.0898,3.0898,3.0898,3.0859,3.0762,3.2196,3.3737,3.4573,3.4198,0.0,0.0,0.0,0.0,0.0,0.0,0.0,0.0,0.0,0.0,1.8631,0.0,0.0,0.0,0.0,0.0,1.1267,1.318,1.5179,0.0,0.0,1.996,2.2725,0.0,2.1209,2.2486,1.9776,1.8728,1.912,1.7807,1.8228,2.0063,2.048,2.3528,2.8673,3.5088,3.7865,3.8566,4.1968,4.2793,4.1992,4.1175,3.9904,3.842,2.6883,0.0,0.0,0.0,0.0,2.6975,2.6839,2.6219,2.4608,2.1428,2.0989,2.0989,2.0989,2.1056,2.2389,2.5741,2.5984,2.7391,3.0704,3.0898,3.0898,3.0898,3.0898,3.0859,3.082,2.9961,2.8672,0.0,0.0,2.3027,0.0,0.0,0.0,0.0,0.0,0.0,0.0,3.0028,3.1971,3.4513,3.5064,3.5398,3.5672,3.6972,3.7583,3.7849,3.9077,3.9465,3.9258,3.7636,3.5321,3.2851,3.1383,3.0898,3.0898,3.0898,3.0898,3.0898,3.0898,3.0898,3.0898,3.0898,3.0898,3.0898,3.0898,3.0898,3.0762,3.0351,3.1767,3.3398,3.4499,3.5454,3.5228,0.0,0.0,0.0,0.0,0.0,2.8204,2.6767,0.0,0.0,0.0,1.844,0.0,0.0,1.291,0.0,1.1687,1.1894,1.3914,1.8037,1.6056,1.6517,1.9924,1.9187,1.8832,1.8948,1.864,1.9478,2.1252,1.982,2.0221,2.2123,2.2508,2.4776,2.8624,3.3888,3.6881,3.8447,4.0752,4.1828,4.2173,4.2512,4.0923,3.8597,0.0,0.0,0.0,0.0,0.0,0.0,0.0,2.7435,2.6333,2.4966,2.3676,2.2504,2.1746,2.163,2.3021,2.6395,2.6645,2.7983,3.1033,3.1269,3.1152,3.0898,3.0898,3.0898,3.0898,3.0273,2.9355,0.0,0.0,0.0,0.0,0.0,0.0,0.0,0.0,2.9154,3.1346,3.2237,3.2874,3.3343,3.3763,3.3957,3.4125,3.5617,3.6703,3.769,3.9181,3.9697,3.9465,3.8031,3.6703,3.5321,3.2964,3.2207,3.2035,3.117,3.0898,3.0898,3.0898,3.0898,3.0898,3.0898,3.0898,3.0898,3.0898,3.0898,3.0974,3.1313,3.2896,3.449,3.5528,3.5529,3.5228,3.4776,0.0,0.0,0.0,0.0,0.0,2.7762,0.0,2.247,0.0,0.0,0.0,0.0,0.0,1.1219,1.0212,1.0571,1.2224,1.5321,0.0,1.7279,1.972,1.8926,1.8512,1.8512,1.7474,1.806,2.0033,1.9634,2.06,2.2753,2.3936,2.5853,2.8492,3.2593,3.6013,3.8897,4.1104,4.2866,4.4081,4.3538,4.2017,4.0018,2.9726,0.0,2.9219,0.0,2.9392,2.8747,2.9865,2.9313,2.8591,2.8191,2.6755,2.5022,2.3,2.3261,2.4545,2.69,2.7596,2.8933,3.1539,3.1699,3.1523,3.1094,3.1074,0.0,3.0898,3.0566,2.998,2.9101,2.7773,0.0,0.0,0.0,0.0,0.0,2.9182,3.113,3.3107,3.339,3.3442,3.3262,3.3156,3.2851,3.2644,3.457,3.5945,3.7079,3.9025,3.9697,3.9517,3.853,3.8137,3.7583,3.4181,3.3077,3.2794,3.1325,3.0898,3.0898,3.0898,3.0898,3.0898,3.0898,3.0898,3.0898,3.0898,3.0898,3.1224,3.2411,3.3914,3.5327,3.6243,3.573,3.5353,3.5805,0.0,0.0,0.0,3.1168,0.0,0.0,2.4456,2.2212,2.0941,1.9519,0.0,0.0,0.0,0.0,0.0,1.0285,0.0,0.0,0.0,0.0,1.9001,1.87,1.8244,1.7731,1.7012,1.725,1.8292,1.9212,2.0811,2.2996,2.4723,2.6239,2.7701,3.1066,3.4463,3.7696,3.9969,4.2107,4.3893,4.3207,4.1884,4.0278,3.0098,3.0176,3.0449,3.1348,3.1444,3.1581,3.209,3.2168,3.1673,3.0329,3.0113,2.8685,2.4948,2.6136,2.7217,2.709,2.8647,3.0359,3.2088,3.2168,3.1973,0.0,0.0,3.1328,3.0898,3.0879,3.0449,2.957,0.0,0.0,2.6973,0.0,2.6867,2.7708,2.8139,3.0441,3.3915,3.2866,3.3504,3.5123,3.3677,3.2264,3.1228,3.4202,3.5288,3.5727,3.8635,3.9697,3.9697,3.9697,3.9697,3.8921,3.4515,3.3077,3.2794,3.1325,3.0898,3.0898,3.0898,3.0898,3.0898,3.0898,3.0898,3.0898,3.0898,3.0898,3.1411,3.3212,3.4439,3.5426,3.6268,3.6405,3.6028,3.4926,0.0,0.0,0.0,2.945,0.0,2.474,2.2938,2.1572,2.0775,2.0602,0.0,0.0,0.0,0.0,0.0,0.0,0.0,1.3668,1.4419,0.0,1.7241,1.8062,1.7667,1.5978,1.7667,1.7794,1.6736,1.9049,2.1101,2.2996,2.4723,2.5517,2.5771,2.9392,3.2049,3.4123,3.6453,3.859,4.0423,4.1002,4.0148,3.8597,3.1074,3.1328,3.1621,3.1914,3.2207,3.2441,3.2578,3.2832,3.2879,3.2409,3.2365,3.1466,2.9112,2.8271,2.8336,0.0,3.0137,3.1062,0.0,3.2598,3.2402,3.1973,3.168,3.1445,3.1328,3.1035,3.0762,3.0469,0.0,0.0,0.0,2.9149,3.0031,3.0928,3.1975,3.3333,3.4872,3.4537,3.4161,3.3733,3.3304,3.2207,3.1112,3.3077,3.4403,3.5563,3.7477,3.8844,3.9697,3.9697,3.9697,3.931,3.6865,3.5398,3.4292,3.2815,3.171,3.0898,3.0898,3.0898,3.0898,3.0898,3.0898,3.0898,3.0898,3.1354,3.2149,3.3338,3.4388,3.5079,3.5017,3.5017,3.4607,3.3256,3.2531,0.0,3.0651,0.0,2.5182,2.4117,2.1802,2.0492,2.1059,2.0827,0.0,0.0,0.0,0.0,0.0,0.0,0.0,0.0,1.6125,0.0,1.8941,1.8625,1.8244,1.7667,1.725,1.7642,1.8868,2.1009,2.2297,2.2928,2.3461,2.4385,2.5584,2.669,3.0014,3.4491,3.5231,3.7719,4.0957,4.1114,4.0083,3.8597,3.1758,3.1973,3.2226,3.2383,3.2617,3.2851,3.3008,3.3242,3.3418,3.3418,3.3418,3.2956,3.1899,3.0789,0.0,3.0771,3.1433,3.2124,3.2984,3.3027,3.2851,3.2422,3.2148,3.1934,3.1758,3.1348,0.0,3.1133,3.041,2.9922,2.9648,3.0575,3.0949,3.096,3.2448,3.3266,3.3613,3.4215,3.3957,3.3077,3.3077,3.253,3.1883,3.336,3.4847,3.6325,3.7796,3.8921,3.9697,3.9697,3.9697,3.9517,3.8635,3.7317,3.5836,3.4348,3.3247,3.2436,3.1883,3.171,3.1614,3.1054,3.0898,3.0898,3.0898,3.1755,3.2656,3.2987,3.3855,3.4407,3.3947,3.3741,3.3132,3.1708,3.0696,2.9596,2.8166,0.0,2.2686,0.0,0.0,0.0,0.0,2.1255,2.1735,0.0,0.0,0.0,0.0,0.0,1.627,1.7215,1.8248,1.9251,2.0294,1.9738,1.9164,1.8512,1.715,1.7636,1.9867,2.1183,2.2229,2.2928,2.2928,2.3529,2.4588,2.5248,2.7925,3.1817,3.3199,3.5587,3.8249,3.8972,3.8531,3.7642,3.2085,3.1983,3.2057,0.0,3.2459,0.0,3.317,3.3228,3.3228,3.3228,3.3228,3.3165,3.3019,3.3019,3.2365,3.0771,0.0,0.0,0.0,3.3418,3.3242,3.2851,3.2812,3.2617,3.2226,3.1777,3.1543,3.1523,3.1133,3.0859,3.0704,3.0704,2.9844,2.8289,2.9962,3.0568,3.0413,3.2183,3.2907,3.2773,3.2907,3.3021,3.3247,3.4626,3.6108,3.769,3.9077,3.9645,3.9697,3.9697,3.9697,3.9697,3.9697,3.8739,3.737,3.589,3.5398,3.5013,3.362,3.3247,3.2907,3.1441,3.0995,3.0898,3.0898,3.1977,3.2839,3.2302,3.2987,3.354,3.2975,3.2434,3.1527,3.0025,2.8977,2.7321,2.4395,2.1816,1.9798,0.0,0.0,0.0,1.9557,2.1525,2.3172,0.0,0.0,0.0,0.0,0.0,1.991,2.0024,2.0564,2.094,2.1109,2.1109,2.0284,1.8764,1.7541,1.808,2.0039,2.0221,2.1252,2.2928,2.2928,2.2928,2.3065,2.4655,2.5838,2.6976,3.0547,3.2467,3.3448,3.5314,3.6016,3.6016,0.0,0.0,2.9185,2.9271,2.9288,2.976,3.1222,3.1433,3.1433,3.1433,3.1433,3.0918,2.9557,2.9409,2.9279,2.8821,3.1643,3.3418,3.3418,3.3418,3.3379,3.3281,3.2969,3.2754,3.2656,3.2226,3.1855,3.1523,3.1426,3.0581,2.8979,2.8979,2.811,2.6651,2.8247,2.8289,2.7279,3.0217,3.0704,2.9651,3.0878,3.2092,3.3134,3.3473,3.5211,3.7583,3.7902,3.8739,3.9697,3.9697,3.9697,3.9697,3.9697,3.9465,3.8921,3.7423,3.6162,3.5233,3.4847,3.4792,3.4403,3.2964,3.171,3.0898,3.0898,3.117,3.1589,3.2079,3.239,3.2326,3.1625,3.0408,2.8947,2.6997,2.5247,2.3272,2.0811,1.9021,1.7327,0.0,1.5399,1.6072,1.7551,1.9095,2.1044,0.0,0.0,2.4951,2.682,2.5272,2.3497,2.1554,2.2182,2.2091,2.1109,2.1109,2.1131,2.1176,2.1047,2.1433,2.2193,2.2203,2.2503,2.2928,2.2928,2.2928,2.2928,2.3324,2.4756,2.6837,2.9168,3.1338,3.3448,3.5314,3.6016,3.6016,2.9421,2.8685,2.8163,2.8163,2.8163,2.8492,2.9474,2.9605,2.9605,2.9605,2.9605,2.9279,2.8295,2.8163,2.8163,2.8163,2.9947,3.1387,3.2155,3.2218,3.2556,3.3355,3.3203,3.3086,3.3086,3.1894,3.0655,2.9433,2.9433,2.8816,2.7729,2.7729,2.7197,2.6215,2.7895,2.8048,2.7194,2.8979,2.9648,2.9589,2.9707,3.121,3.3407,3.3931,3.5643,3.784,3.834,3.9025,3.9697,3.9697,3.9697,3.9697,3.9697,3.9697,3.9517,3.8739,3.7926,3.7156,3.6487,3.6325,3.5781,3.362,3.2473,3.171,3.1054,3.0898,3.1033,3.1502,3.143,3.0958,2.9734,2.8567,2.6921,2.4213,2.2646,2.0818,1.7912,1.6311,1.4983,1.3769,1.3406,1.4098,1.6338,1.8154,2.0318,2.2909,2.4651,0.0,2.7896,2.8119,2.6747,2.3618,2.3384,2.2591,2.1109,2.1243,2.1537,2.1991,2.2285,2.2579,2.2928,2.2928,2.2928,2.2928,2.2928,2.2928,2.2928,2.2928,2.3887,2.5538,2.7393,2.9126,3.0822,3.2665,3.3378,3.3378,2.8098,2.7569,2.737,2.737,2.737,2.7503,2.7768,2.7768,2.7768,2.7768,2.7768,2.7701,2.7437,2.737,2.737,2.737,2.737,2.8229,3.0254,3.0384,3.1047,3.2575,3.2638,3.2638,3.2638,3.0847,2.8945,2.6982,2.6982,2.6838,2.6519,2.6519,2.6214,2.5846,2.7727,2.8306,2.7867,2.8349,2.9223,3.023,2.9025,3.0503,3.3559,3.4697,3.6424,3.834,3.9262,3.9715,3.9948,3.9948,3.9898,3.9823,3.9823,3.9772,3.9697,3.9697,3.9697,3.9413,3.819,3.769,3.6865,3.4125,3.3247,3.2701,3.1228,3.0898,3.0898,3.0898,3.0586,2.9815,2.8082,2.7065,2.5375,2.2081,2.0892,1.9229,1.5861,0.0,1.3202,1.2821,1.1872,1.2409,1.5246,1.7185,1.9412,2.2063,2.4892,2.7025,2.8276,2.9431,2.8759,2.588,2.4804,2.3527,2.1985,2.2276,2.2466,2.244,2.2739,2.2876,2.2928,2.2928,2.2928,2.2928,2.2928,2.2928,2.2928,2.3242,2.3539,2.4052,2.6213,2.7236,2.7722,2.9615,3.031,3.031,2.5972,2.4723,2.3734,2.3734,2.3734,2.4196,2.5719,2.5905,2.5905,2.5905,2.5905,2.5383,2.3856,2.3734,2.3734,2.3734,2.3734,2.5113,2.8361,2.8624,2.8689,2.9017,2.9017,2.9017,2.9017,2.8704,2.816,2.7407,2.7407,2.6487,2.4789,2.4789,2.3998,2.28,2.5993,2.6596,2.5389,2.8161,2.8676,2.7804,2.8924,3.0443,3.2196,3.3859,3.6315,3.8824,3.8974,3.9927,4.1025,4.1025,4.0777,4.04,4.04,4.0074,3.9697,3.9697,3.9697,3.9645,3.9413,3.8453,3.7079,3.5398,3.4013,3.2701,3.1228,3.0898,3.0898,3.0898,3.084,3.018,2.8137,2.6452,2.4441,2.1638,1.9834,1.8006,1.5579,0.0,1.3144,1.1907,1.0859,1.1033,1.304,1.3269,1.542,2.0442,2.0767,2.2938,2.8129,2.6998,2.6712,2.7884,2.7776,2.7063,2.578,2.6071,2.5718,2.4635,2.4893,2.4274,2.2928,2.2928,2.2928,2.2928,2.2928,2.2928,2.301,2.4944,2.4943,2.4137,2.7912,2.8625,2.7722,2.9615,3.031,3.031,2.4249,2.3461,2.2928,2.2928,2.2928,2.3188,2.3992,2.4128,2.4128,2.4128,2.4128,2.3788,2.2996,2.2928,2.2928,2.2928,2.2928,2.3597,2.5263,2.6254,2.7172,2.8163,2.8163,2.7768,2.6773,2.6773,2.6162,2.5026,2.5026,2.4567,2.3571,2.3571,2.3605,2.3648,2.5191,2.5861,2.5881,2.6503,2.682,2.6964,2.682,2.842,3.1076,3.2413,3.4585,3.6987,3.8367,3.9354,4.0117,4.0981,4.1125,4.0899,4.0899,4.0724,4.0526,4.0224,3.9923,3.9697,3.9697,3.9181,3.8137,3.5836,3.4792,3.3698,3.1441,3.0898,3.0898,3.0898,3.0898,3.0334,2.8487,2.6565,2.461,2.2336,2.0118,1.8056,1.6246,1.5547,1.4374,1.2114,1.1779,1.1632,1.1517,1.2298,1.4522,1.8691,1.9788,2.2161,2.6508,2.6081,2.6104,2.7073,2.7134,2.6959,2.6608,2.6909,2.644,2.5105,2.5353,2.4588,2.2928,2.2928,2.2928,2.2928,2.2928,2.2928,2.3023,2.4136,2.4316,2.4008,2.604,2.6431,2.6064,2.691,2.7258,2.7258,2.3133,2.2928,2.2928,2.2928,2.2928,2.2928,2.2928,2.2928,2.2928,2.2928,2.2928,2.2928,2.2928,2.2928,2.2928,2.2928,2.2928,2.2928,2.2928,2.4128,2.5517,2.6906,2.6972,2.6321,2.4926,2.4926,2.4249,2.2928,2.2928,2.2928,2.2928,2.2928,2.3473,2.4428,2.4893,2.5585,2.6504,2.521,2.5405,2.644,2.5145,2.6713,2.9839,3.1028,3.3031,3.5441,3.7482,3.8454,3.8963,4.0618,4.1062,4.1017,4.1422,4.1376,4.12,4.0827,4.009,3.9407,3.9619,3.9465,3.8582,3.5945,3.5288,3.4515,3.1556,3.117,3.1325,3.0937,3.0898,3.0392,2.8724,2.712,2.5324,2.3049,0.0,1.9122,1.7543,1.6946,1.5733,1.3156,1.3,1.2419,1.0737,1.1884,1.3956,1.7067,1.8882,2.1306,2.4731,2.4865,2.5192,2.5984,2.6493,2.7095,2.7919,2.8237,2.7771,2.6446,2.6249,2.5181,2.3461,2.3065,2.2928,2.2928,2.2928,2.2968,2.3062,2.3775,2.4018,2.3973,2.4688,2.4801,2.4636,2.4636,2.4636,2.4636,2.2928,2.2928,2.2928,2.2928,2.2928,2.2928,2.2928,2.2928,2.2928,2.2928,2.2928,2.2928,2.2928,2.2928,2.2928,2.2928,2.2928,2.2928,2.2928,2.2996,2.3133,2.327,2.3256,2.327,2.3065,2.3065,2.3065,2.2928,2.2928,2.2928,2.2928,2.2928,2.2914,2.3092,2.4747,2.5539,2.5576,2.5442,2.5509,2.5576,2.5442,2.6577,2.8525,3.023,3.2908,3.5743,3.5945,3.6953,3.8526,4.0127,4.0335,4.0154,4.1673,4.1756,4.1275,4.1225,3.9918,3.8581,3.9434,3.8687,3.7293,3.5672,3.5288,3.4515,3.1556,3.1977,3.253,3.117,3.0898,3.0392,2.8724,2.8102,2.6696,2.3227,0.0,0.0,1.9475,1.8109,1.6722,1.499,1.3789,1.2467,1.0816,1.0777,1.2339,1.5754,1.6162,1.8453,2.3467,2.2264,2.2875,2.5924,2.7843,2.9794,3.1805,3.215,3.1722,3.033,2.8738,2.7039,2.5248,2.3665,2.2928,2.2928,2.2928,2.3033,2.3453,2.5505,2.5484,2.4413,2.6417,2.6196,2.4636,2.4636,2.4636,2.4636,2.2928,2.2928,2.2928,2.2928,2.2928,2.2928,2.2928,2.2928,2.2928,2.2928,2.2928,2.2928,2.2928,2.2928,2.2928,2.2928,2.2928,2.2928,2.2928,2.2928,2.2928,2.2928,2.2928,2.2928,2.2928,2.2928,2.2928,2.2928,2.2928,2.2928,2.2928,2.2928,2.2928,2.2928,2.3597,2.3856,2.3856,2.3856,2.3856,2.3856,2.3856,2.4926,2.6706,2.8492,3.0689,3.2966,3.5047,3.6173,3.6941,3.8557,3.8997,3.8895,3.9534,3.9567,3.9299,3.8995,3.8109,3.7333,3.765,3.6974,3.5999,3.5453,3.5288,3.5013,3.3866,3.409,3.4292,3.3754,3.3642,3.3113,3.1609,3.0412,2.8904,2.6618,0.0,2.38,2.3309,2.1772,2.014,1.8619,1.6329,1.415,1.2471,1.1306,1.1696,1.4101,1.5265,1.7194,2.0284,2.0829,2.2237,2.4657,2.6881,2.9349,3.2168,3.2578,3.2156,3.0771,2.9017,2.7238,2.545,2.3652,2.2928,2.2941,2.3073,2.322,2.3354,2.4591,2.4723,2.4308,2.5308,2.5286,2.4636,2.4636,2.4636,2.4636,2.2928,2.2928,2.2928,2.2928,2.2928,2.2928,2.2928,2.2928,2.2928,2.2928,2.2928,2.2928,2.2928,2.2928,2.2928,2.2928,2.2928,2.2928,2.2928,2.2928,2.2928,2.2928,2.2928,2.2928,2.2928,2.2928,2.2928,2.2928,2.2928,2.2928,2.2928,2.2928,2.2928,2.2928,2.3461,2.372,2.372,2.372,2.372,2.3665,2.3133,2.3924,2.5651,2.6906,2.8821,3.1093,3.3407,3.4571,3.5273,3.6902,3.7445,3.7544,3.8045,3.8223,3.8156,3.7761,3.6963,3.618,3.618,3.5646,3.5099,3.5391,3.573,3.589,3.5398,3.5672,3.5836,3.5398,3.5288,3.5013,3.3957,3.2483,3.0857,2.9319,2.7452,2.6033,2.5751,2.4168,2.2401,2.0827,1.7839,1.52,1.3447,1.1696,1.163,1.397,1.52,1.6883,1.9215,2.054,2.2088,2.3925,2.5674,2.8208,3.1527,3.2525,3.2541,3.1561,2.9279,2.7569,2.6239,2.3924,2.2928,2.2886,2.3193,2.338,2.35,2.3995,2.4262,2.4356,2.4556,2.4636,2.4636,2.4636,2.4636,2.4636,2.2928,2.2928,2.2928,2.2928,2.2928,2.2928,2.2928,2.2928,2.2928,2.2928,2.2928,2.2928,2.2928,2.2928,2.2928,2.2928,2.2928,2.2928,2.2928,2.2928,2.2928,2.2928,2.2928,2.2928,2.2928,2.2928,2.2928,2.2928,2.2928,2.2928,2.2928,2.2928,2.2928,2.2996,2.4723,2.5517,2.5517,2.5517,2.5517,2.5383,2.3597,2.3924,2.545,2.5517,2.7685,3.0771,3.0771,3.1899,3.365,3.5273,3.5806,3.6051,3.7686,3.8164,3.8164,3.8164,3.6736,3.5194,3.5194,3.4858,3.4726,3.5688,3.6694,3.7133,3.5672,3.6487,3.7079,3.5617,3.5343,3.5343,3.5288,3.4125,3.2582,3.0895,2.9359,2.7871,2.6288,2.4655,2.2985,2.1227,1.8006,1.5265,1.3521,1.1762,1.215,1.5589,1.5913,1.7474,2.0919,2.139,2.2309,2.394,2.4695,2.6711,3.0131,3.2302,3.3355,3.3355,2.9882,2.8163,2.8098,2.452,2.2859,2.2954,2.3193,2.35,2.3866,2.4088,2.4382,2.4636,2.4636,2.4636,2.4636,2.4636,2.4636,2.4636,2.2928,2.2928,2.2928,2.2928,2.2928,2.2928,2.2928,2.2928,2.2928,2.2928,2.2928,2.2928,2.2928,2.2928,2.2928,2.2928,2.2928,2.2928,2.2928,2.2928,2.2928,2.2928,2.2928,2.2928,2.2928,2.2928,2.2928,2.2928,2.2928,2.2928,2.2928,2.2928,2.2928,2.2996,2.4723,2.5517,2.5584,2.6839,2.6639,2.545,2.4911,2.4317,2.3788,2.5046,2.6972,2.9148,3.0384,3.1899,3.3481,3.3965,3.4133,3.4195,3.4674,3.4798,3.4798,3.4798,3.4407,3.3953,3.3953,3.4391,3.5117,3.6197,3.728,3.824,3.88,3.9009,3.8921,3.8477,3.8372,3.8084,3.7026,3.5617,3.4125,3.2618,3.1129,2.9962,2.953,2.703,2.5053,2.4593,2.0485,1.7012,1.5265,1.3578,1.2931,1.397,1.6366,1.8787,2.1339,2.1574,2.1997,2.2852,2.4342,2.6315,2.8782,3.0653,3.2155,3.3355,2.9882,2.8163,2.8032,2.3188,2.1779,2.3137,2.2049,2.33,2.6097,2.6373,2.7328,2.847,2.7143,2.6648,2.6502,2.5065,2.4636,2.4636,2.2928,2.2928,2.2928,2.2928,2.2928,2.2928,2.2928,2.2928,2.2928,2.2928,2.2928,2.2928,2.2928,2.2928,2.2928,2.2928,2.2928,2.2928,2.2928,2.2979,2.3046,2.3046,2.3153,2.3113,2.2941,2.2928,2.2928,2.2928,2.2928,2.2928,2.2928,2.2928,2.2928,2.2996,2.4723,2.5905,2.6639,2.7701,2.7569,2.6506,2.5786,2.4858,2.406,2.5113,2.7039,2.9344,3.0448,3.1899,3.3418,3.3418,3.3418,3.3418,3.3418,3.3418,3.3418,3.3418,3.3418,3.3418,3.3418,3.4306,3.5465,3.6161,3.7474,3.8953,4.0508,4.0425,4.0023,4.0023,3.9848,3.9413,3.853,3.6703,3.5013,3.4125,3.2264,3.0645,3.002,2.7632,2.5741,2.5146,2.1204,1.8116,1.7023,1.5329,1.4651,1.5522,1.8136,2.0296,2.171,2.183,2.2058,2.2405,2.3588,2.5189,2.7105,2.8886,3.0983,3.3355,2.9882,2.8163,2.8048,2.3461,2.2084,2.3284,2.2502,2.4026,2.6997,2.7356,2.8629,3.0168,2.9043,2.8141,2.736,2.621,2.5286,2.4636,2.2928,2.2928,2.2928,2.2928,2.2928,2.2928,2.2928,2.2928,2.2928,2.2928,2.2928,2.2928,2.2928,2.2928,2.2928,2.2928,2.2928,2.2941,2.2899,2.3166,2.334,2.3367,2.3621,2.3514,2.2953,2.3008,2.3008,2.3008,2.3008,2.3008,2.3008,2.3008,2.3008,2.3077,2.481,2.645,2.8015,2.8345,2.8262,2.7834,2.6306,2.5651,2.5517,2.5517,2.7685,3.0771,3.0771,3.1899,3.3418,3.3418,3.3418,3.3418,3.3418,3.3418,3.3418,3.3418,3.3418,3.3418,3.3418,3.4487,3.5622,3.5745,3.7214,3.9086,4.0785,4.0871,4.0601,4.0601,4.0199,3.9848,3.9848,3.7382,3.5356,3.5356,3.2856,3.0333,2.8664,2.7013,2.5375,2.3807,2.0727,1.8704,1.8512,1.7098,1.6947,1.8912,2.0656,2.1724,2.2004,2.2271,2.2432,2.2458,2.2726,2.372,2.545,2.7304,2.9865,3.3165,2.98,2.8196,2.8097,2.4673,2.3143,2.3434,2.3752,2.5252,2.7327,2.7644,2.8988,3.0805,3.0593,2.9544,2.7996,2.765,2.6357,2.4844,2.2928,2.2928,2.2928,2.2928,2.2928,2.2928,2.2928,2.2928,2.2928,2.2928,2.2928,2.2928,2.2928,2.2928,2.2928,2.2928,2.2928,2.2966,2.3207,2.3287,2.3434,2.3661,2.3741,2.3714,2.3581,2.3581,2.3581,2.3581,2.3581,2.3581,2.3581,2.3581,2.3581,2.3708,2.5406,2.6351,2.6639,2.9393,2.8826,2.6172,2.7172,2.6773,2.5517,2.5517,2.7685,3.0771,3.0771,3.1899,3.3418,3.3418,3.3418,3.3418,3.3418,3.3418,3.3418,3.3418,3.3418,3.3418,3.3418,3.365,3.4195,3.5499,3.6125,3.7125,3.9566,4.0635,4.11,4.11,4.1025,4.0924,4.0924,3.8217,3.5927,3.5927,3.3122,3.0333,2.8664,2.7013,2.5375,2.3807,2.1776,2.0005,1.864,1.843,1.8584,1.9236,2.095,2.2017,2.2311,2.2392,2.2525,2.2752,2.2832,2.372,2.545,2.7304,2.9279,3.1368,2.9213,2.8312,2.8325,2.3402,2.2195,2.395,2.2579,2.486,2.9557,2.9638,3.1667,3.459,3.317,3.2316,3.1614,2.8573,2.7215,2.6648,2.2928,2.2928,2.2928,2.2928,2.2928,2.2928,2.2928,2.2928,2.2928,2.2928,2.2928,2.2928,2.2928,2.2928,2.2928,2.2928,2.2993,2.3153,2.3313,2.3594,2.3808,2.3968,2.4115,2.4182,2.4182,2.4182,2.4048,2.3768,2.3768,2.3768,2.3768,2.3768,2.3768,2.3839,2.472,2.5522,2.6373,2.9091,2.857,2.6117,2.7935,2.8138,2.7259,2.7259,2.9527,3.2673,3.2673,3.323,3.4004,3.3789,3.373,3.3691,3.3496,3.3418,3.3418,3.3418,3.3418,3.3418,3.3418,3.3418,3.3398,3.3446,3.4613,3.6392,3.8534,3.9273,3.9427,3.9427,3.9213,3.9046,3.9046,3.6997,3.528,3.528,3.2412,2.967,2.8009,2.6326,2.4638,2.3035,2.2025,2.1187,2.0268,1.9531,1.9193,1.9507,2.0349,2.1024,2.1301,2.2144,2.2699,2.2859,2.2928,2.3324,2.4263,2.6039,2.7451,2.8544,2.8411,2.846,2.8439,2.4231,2.2955,2.4136,2.3292,2.5707,3.031,3.031,3.2508,3.5879,3.4952,3.402,3.2961,3.098,2.9631,2.8557,2.2928,2.2928,2.2928,2.2928,2.2928,2.2928,2.2928,2.2928,2.2928,2.2928,2.2928,2.2928,2.2928,2.2928,2.2928,2.2928,2.3153,2.3354,2.3407,2.3901,2.4222,2.4275,2.4502,2.4636,2.4636,2.4636,2.4396,2.3915,2.4273,2.4402,2.4402,2.4745,2.4745,2.4402,2.4402,2.5059,2.6173,2.8371,2.8186,2.6628,2.8482,2.9373,2.9646,2.9305,3.1492,3.4707,3.4707,3.4707,3.4648,3.4297,3.418,3.4121,3.375,3.3633,3.3633,3.3555,3.3535,3.3452,3.3038,3.2956,3.2556,3.0771,3.246,3.482,3.621,3.7035,3.756,3.756,3.7166,3.6898,3.6898,3.5355,3.4051,3.4051,3.126,2.8459,2.69,2.5368,2.3768,2.2175,2.1991,2.2004,2.2058,2.0639,1.9733,1.971,1.9665,1.9828,2.0108,2.1596,2.2585,2.2859,2.2928,2.2928,2.2928,2.4713,2.5741,2.601,2.7537,2.828,2.8228,2.5442,2.4235,2.4289,2.4529,2.6765,3.031,3.031,3.2508,3.6016,3.6016,3.5021,3.3674,3.3309,3.1948,3.0097,2.2928,2.2928,2.2928,2.2928,2.2928,2.2928,2.2928,2.2928,2.2928,2.2928,2.2928,2.2928,2.2928,2.2928,2.2928,2.2928,2.3153,2.3434,2.3688,2.4022,2.4315,2.4569,2.4609,2.4636,2.4636,2.4636,2.4596,2.4516,2.6155,2.701,2.701,2.8687,2.8545,2.701,2.701,2.6085,2.4706,2.8178,2.8424,2.6768,2.8482,3.0191,3.151,2.9851,3.1492,3.4707,3.4707,3.4707,3.4687,3.4629,3.4609,3.4609,3.4551,3.4531,3.4453,3.4101,3.3984,3.3566,3.1653,3.1176,3.0707,2.9017,2.8869,2.9244,2.9505,3.3955,3.8111,3.8111,3.8007,3.7963,3.7963,3.5137,3.2787,3.2787,2.9681,2.6646,2.4982,2.4531,2.3768,2.2175,2.1991,2.2084,2.2338,2.215,2.1446,2.0119,2.0004,2.0016,2.012,2.034,2.1252,2.2859,2.2928,2.2928,2.2928,2.493,2.5966,2.6025,2.6718,2.7044,2.6989,2.5066,2.4342,2.4583,2.4549,2.6765,3.031,3.031,3.2508,3.6016,3.6016,3.5811,3.5451,3.3812,3.1948,3.0239,2.2928,2.2928,2.2928,2.2928,2.2928,2.2928,2.2928,2.2928,2.2928,2.2928,2.2928,2.2928,2.2928,2.2928,2.2928,2.2928,2.33,2.3634,2.3768,2.4195,2.4502,2.4549,2.4636,2.4636,2.4636,2.4636,2.4636,2.4636,2.5492,2.643,2.7505,2.8341,2.8828,2.9043,2.9043,2.8535,2.7753,3.05,3.0486,2.885,3.0683,3.1943,3.2647,3.1737,3.3125,3.543,3.543,3.543,3.5391,3.5176,3.5078,3.5039,3.4785,3.4707,3.4668,3.4473,3.4414,3.3927,3.1763,3.1114,3.0407,2.7419,2.7437,2.79,2.6906,2.9777,3.2637,3.2637,3.2637,3.2637,3.2637,3.1238,3.0109,3.0109,2.697,2.4283,2.3567,2.2593,2.2149,2.2472,2.2472,2.2525,2.2659,2.1761,2.084,2.012,1.9077,1.8519,1.8519,1.9495,2.0479,2.1321,2.2366,2.2939,2.3113,2.4067,2.5181,2.6549,2.5741,2.587,2.6769,2.5143,2.4516,2.4636,2.4636,2.621,2.8844,2.9884,3.1948,3.4521,3.5587,3.6016,3.5879,3.5089,3.4227,3.3309]}]]